ECMWFNIL_925_thetae_000.txt.gz
Theta_e
338 338 337 335 333 333 335 337 338 338 338 337 336 335 336 337 337 335 333 334 335 334 334 332 333 333 333 334 334 334 335 335 335 335 334 334 335 335 335 333 332 333
339 338 336 335 334 333 334 336 338 338 337 336 335 334 335 334 334 333 332 335 336 335 333 334 334 334 334 334 334 334 334 334 335 335 334 334 335 335 335 333 332 333
337 337 337 334 334 334 334 335 336 336 336 336 334 333 334 334 334 334 334 335 336 334 335 335 335 335 335 334 334 334 334 335 335 335 335 335 335 335 335 334 333 333
337 338 337 335 334 334 334 335 333 334 334 334 334 333 335 336 335 335 335 335 334 335 335 336 335 335 334 334 334 334 334 334 335 335 336 336 336 335 335 334 334 334
338 338 336 335 335 333 334 335 334 335 335 334 334 335 337 338 337 336 335 336 336 336 336 335 335 334 334 334 334 333 333 333 333 334 336 337 336 334 334 336 335 335
338 338 337 336 336 335 336 337 337 337 335 334 335 336 338 339 338 337 337 336 336 335 335 335 335 335 333 333 332 332 332 332 332 333 335 335 335 334 334 336 336 336
340 339 337 338 338 337 337 338 338 337 335 334 335 336 338 338 337 337 337 335 334 333 333 334 334 333 332 330 330 330 331 331 332 334 335 335 334 334 335 336 336 336
341 340 338 338 338 338 339 338 338 337 334 334 335 336 337 336 336 336 335 334 333 333 334 333 332 332 330 329 329 330 330 331 333 336 336 335 335 335 336 337 336 336
342 340 339 339 339 338 339 338 337 336 333 333 335 336 336 336 335 335 334 333 334 335 335 334 331 330 329 329 329 330 332 334 334 335 335 334 334 334 333 335 336 337
341 340 341 340 340 338 339 337 336 334 333 333 335 335 336 337 337 336 334 334 334 334 333 332 330 329 329 329 330 332 332 332 332 333 334 335 334 333 331 331 333 335
342 342 342 342 341 339 338 337 335 334 334 335 336 337 338 338 337 336 334 333 333 332 331 330 330 330 330 330 330 330 329 329 331 332 333 332 332 332 332 332 332 333
343 343 343 342 341 340 338 338 336 336 337 337 339 340 338 336 334 332 331 332 333 332 331 331 331 330 329 329 328 328 327 328 331 332 332 331 332 332 332 332 332 332
344 344 343 342 340 340 339 338 338 337 339 340 340 339 336 334 332 331 332 333 332 332 332 332 332 330 329 329 328 326 327 328 331 331 330 329 330 331 330 329 328 327
344 343 343 341 340 340 339 338 339 339 340 341 341 338 335 334 334 334 333 332 333 334 334 333 332 330 328 328 328 327 328 329 331 331 327 325 326 327 327 327 326 325
344 344 343 341 340 340 339 338 338 339 340 341 340 337 336 335 335 335 334 333 334 335 335 334 332 330 328 327 327 328 328 329 330 330 328 327 327 328 328 328 327 326
344 344 343 341 340 340 338 336 337 338 339 339 338 337 336 336 335 334 334 334 335 335 335 335 332 330 328 326 326 328 329 328 328 329 329 329 330 330 330 330 330 329
343 343 343 342 340 338 336 336 336 338 338 338 338 336 336 335 334 334 335 334 335 335 336 334 332 330 328 325 327 328 328 327 327 327 328 329 330 329 328 329 329 328
341 342 343 341 339 338 336 337 337 338 339 338 337 336 335 334 334 334 335 334 335 336 336 334 332 331 329 326 327 328 328 327 327 327 327 328 327 326 326 326 327 326
338 340 343 341 339 338 337 338 339 339 338 337 336 335 334 334 334 335 335 335 335 335 336 334 331 331 330 328 328 328 327 327 326 327 328 327 326 325 325 325 325 325
338 341 342 341 340 339 338 339 340 338 337 336 335 334 334 333 334 334 335 334 335 336 335 334 332 331 330 329 328 328 327 326 326 327 328 327 327 326 326 326 326 327
341 343 343 341 341 339 340 339 339 339 338 336 335 334 333 333 334 334 334 334 336 336 335 335 334 332 330 329 329 328 327 326 327 327 327 327 327 327 326 327 328 329
341 344 343 343 342 340 340 340 339 339 338 335 335 334 333 333 333 333 335 336 336 334 333 334 335 333 330 329 328 327 327 327 327 327 326 327 327 327 326 326 327 328
343 345 344 343 342 341 341 340 340 338 336 334 335 334 334 335 336 336 337 337 335 334 334 335 334 331 329 328 327 326 327 327 326 326 326 326 327 326 325 324 323 324
344 344 343 342 341 341 341 339 338 336 334 335 335 335 336 337 337 337 336 333 332 334 336 335 332 329 328 327 326 326 327 326 325 325 325 325 325 324 323 322 321 319
340 337 339 340 340 340 339 338 337 336 335 337 337 337 338 338 337 337 335 332 331 333 334 331 329 328 327 325 325 326 326 325 324 324 325 324 324 323 322 320 319 319
336 332 335 339 340 339 337 337 337 337 337 338 339 339 339 338 336 335 335 335 334 334 332 330 328 328 325 325 325 325 325 324 324 324 325 324 323 321 320 319 319 320

ECMWFNIL_925_thetae_003.txt.gz
Theta_e
341 339 337 337 336 336 334 332 333 336 338 340 340 337 336 335 337 338 336 334 333 331 332 332 332 332 332 332 332 333 334 334 334 335 335 335 335 334 334 335 334 332
341 339 337 336 337 336 334 332 332 336 338 339 338 336 336 336 336 337 335 333 332 333 334 333 333 334 334 334 334 334 334 334 334 335 335 335 335 335 335 334 334 333
340 339 336 335 336 335 334 333 333 335 337 338 337 336 335 335 335 335 333 331 331 334 335 334 334 335 335 334 334 334 334 333 333 333 334 334 334 336 335 334 335 334
341 338 336 336 336 335 334 333 334 336 337 337 337 335 334 334 333 333 333 332 332 335 336 335 335 335 335 334 333 333 333 333 332 331 331 331 332 334 334 334 334 335
341 338 337 337 336 335 333 333 333 335 336 335 335 334 333 332 333 333 334 334 334 335 336 336 335 335 335 334 333 333 332 331 331 330 330 331 331 333 334 334 334 334
341 338 338 337 336 335 333 334 333 334 334 332 333 332 332 333 336 336 335 335 336 337 336 336 335 334 334 334 333 332 331 330 330 330 331 331 332 334 335 334 334 334
340 337 338 337 336 335 334 334 333 334 333 331 331 332 333 335 337 338 337 337 336 337 335 334 333 333 333 333 332 330 330 329 330 330 331 332 334 335 335 334 334 335
340 337 337 337 336 336 334 334 334 334 334 333 333 333 334 335 336 337 337 337 336 335 334 332 332 333 332 332 330 329 329 329 329 331 332 333 334 334 334 334 335 335
339 338 338 338 336 335 335 335 334 335 336 336 335 334 334 334 335 336 336 335 335 333 331 331 332 333 331 330 329 329 330 330 329 330 330 330 331 333 334 334 334 334
339 339 338 338 337 336 337 336 336 337 337 337 336 333 332 333 334 335 334 334 334 332 331 331 333 332 331 330 330 330 330 329 329 327 327 329 330 332 333 332 333 333
338 339 339 338 338 337 337 337 337 337 337 337 337 333 332 332 333 335 335 336 335 334 332 332 331 330 330 331 331 330 329 328 327 326 327 329 331 331 331 331 331 331
339 339 339 339 339 338 338 339 338 337 337 337 336 333 332 332 334 335 337 337 337 335 332 331 331 331 331 332 330 329 328 327 327 327 327 329 330 330 329 329 330 330
340 340 339 340 340 338 338 339 339 338 336 335 334 333 333 334 336 337 338 337 334 332 331 331 331 332 332 332 331 328 327 327 326 327 327 328 330 330 328 327 328 328
340 340 340 340 340 337 336 339 340 338 335 333 332 333 334 336 338 338 336 334 332 330 330 331 332 332 333 332 330 328 327 327 327 327 328 328 329 330 328 327 326 326
341 341 341 341 340 337 337 340 340 339 336 333 333 334 336 338 339 337 334 332 331 332 331 332 333 334 334 333 331 328 327 326 326 327 329 328 328 329 329 328 328 328
342 342 342 342 340 338 339 341 340 339 338 336 335 336 337 338 339 337 335 333 334 333 332 333 334 334 335 334 332 328 326 325 327 328 328 327 327 327 328 328 328 327
342 342 343 342 341 340 341 341 340 340 338 336 337 338 337 339 340 338 335 335 334 334 333 333 334 334 335 335 333 330 327 326 326 327 328 327 327 326 326 327 326 324
342 342 342 341 341 341 341 341 340 339 337 335 337 338 338 339 340 338 336 335 334 334 333 334 334 334 334 335 333 331 328 327 326 327 328 327 326 326 326 326 326 325
341 341 340 337 336 338 341 342 340 338 337 336 337 337 338 339 339 338 336 335 334 333 334 334 334 334 335 336 335 332 330 328 328 327 327 326 325 326 327 327 326 326
340 339 337 332 332 336 340 342 340 338 336 336 336 336 337 339 339 338 337 335 334 333 333 334 334 334 334 335 335 334 331 329 328 328 326 326 326 327 327 327 327 327
341 339 335 331 330 334 339 341 341 339 336 335 335 335 336 337 338 337 336 334 334 334 333 333 334 334 334 333 333 334 331 329 329 327 326 326 326 327 327 327 326 327
341 338 334 332 331 333 338 341 341 340 338 336 336 335 336 337 337 336 336 335 334 334 334 335 334 333 333 332 332 333 331 329 328 327 326 326 327 327 326 326 326 325
340 336 333 333 333 333 337 340 340 340 339 337 337 338 338 338 337 336 335 335 335 335 335 335 334 331 331 332 333 333 331 329 327 326 326 326 326 326 326 325 324 322
338 336 333 331 329 331 336 339 340 340 340 338 338 338 338 338 337 336 335 335 336 335 334 333 332 330 330 333 334 333 331 328 327 326 326 326 326 325 325 324 322 320
337 336 333 329 327 330 336 340 341 340 339 338 338 338 338 337 337 336 336 336 334 333 332 331 331 331 331 331 331 331 330 328 326 326 326 325 325 324 323 323 320 319
335 334 332 329 328 332 337 340 340 338 336 335 336 338 337 337 337 335 334 332 330 329 328 328 331 332 331 329 329 328 328 327 325 326 325 324 324 324 323 321 319 318

ECMWFNIL_925_thetae_006.txt.gz
Theta_e
357 357 354 347 343 343 341 339 338 338 337 337 339 339 338 336 335 335 338 338 336 334 331 329 331 331 331 331 331 332 333 333 334 335 335 336 336 336 335 335 334 333
356 356 351 344 341 340 339 337 337 336 335 336 337 339 338 336 335 334 337 337 335 333 331 330 332 332 332 333 332 333 333 333 334 334 334 334 334 335 335 335 335 335
355 354 349 343 340 338 337 336 335 334 333 334 337 339 338 336 335 335 336 336 334 333 331 331 333 333 333 334 333 333 333 333 334 333 333 332 332 332 332 332 334 335
354 353 349 344 340 337 336 335 334 333 333 335 338 339 338 336 335 336 336 335 334 332 329 331 334 334 334 334 334 333 333 333 333 332 332 331 330 330 330 331 333 334
354 353 349 343 339 337 336 335 334 333 333 335 338 338 337 336 335 336 335 335 333 329 328 332 335 334 334 335 334 333 333 332 332 331 330 330 330 330 331 331 333 334
354 352 348 343 339 337 336 335 334 333 332 334 336 337 337 336 335 334 333 332 331 329 329 333 335 335 335 335 334 333 333 332 332 330 330 330 330 330 330 331 333 334
352 350 346 342 339 336 335 335 334 333 332 332 334 336 336 335 333 332 331 330 330 331 332 334 335 335 335 334 334 333 333 332 331 330 330 329 329 330 330 331 333 334
350 348 345 342 339 336 335 335 334 333 332 332 333 334 333 332 331 331 331 331 333 334 334 335 336 335 333 332 333 333 332 331 329 329 329 329 329 329 329 329 331 333
348 347 344 341 339 336 335 334 333 333 332 332 333 333 331 330 329 330 332 334 335 336 336 336 336 334 332 331 332 332 330 328 328 329 329 329 328 328 327 328 331 332
346 345 343 340 338 336 335 334 333 333 332 332 333 332 330 329 329 330 333 336 337 337 337 336 335 332 330 331 332 331 329 329 329 329 328 328 327 326 327 329 331 332
344 344 343 341 339 336 334 333 333 333 332 332 333 332 331 331 331 332 334 335 336 336 336 335 333 330 329 330 330 329 330 330 330 329 328 327 326 326 328 329 330 330
343 342 342 341 338 336 335 334 333 333 333 333 333 333 333 333 332 333 333 333 334 335 335 334 333 331 330 330 330 330 331 331 330 328 327 327 326 326 328 329 330 329
342 341 341 339 336 335 335 335 334 334 334 333 334 334 334 334 334 333 332 332 333 334 334 335 336 334 331 330 330 331 331 331 330 328 327 327 326 327 328 329 330 329
342 340 339 337 336 335 334 335 336 335 335 336 336 335 334 335 335 334 332 332 333 334 336 337 336 334 331 331 331 331 332 332 331 328 327 327 326 327 328 328 329 329
341 338 337 337 337 336 335 336 336 335 337 337 336 336 335 334 335 334 333 332 334 336 337 336 332 330 330 330 331 332 332 332 331 329 327 326 326 327 328 327 327 327
339 337 337 336 337 335 334 336 336 336 337 337 337 337 336 335 335 335 333 334 336 337 336 333 331 330 330 330 331 333 333 333 333 331 327 326 326 327 327 327 326 326
338 337 336 337 337 336 335 336 336 336 337 338 337 337 337 336 335 334 334 335 337 337 334 332 331 332 331 331 332 333 334 334 335 333 329 326 326 327 327 327 326 326
338 337 337 337 337 336 337 337 335 335 338 338 337 338 337 336 335 333 334 336 338 339 336 333 333 333 332 331 332 332 333 334 335 335 332 328 327 327 327 326 326 326
339 338 338 337 336 336 338 338 335 336 337 335 337 339 338 337 336 334 335 337 338 339 338 335 334 334 333 332 331 332 333 334 334 335 333 330 328 327 327 326 326 326
340 340 339 338 336 336 338 339 339 337 332 330 335 340 338 338 337 336 336 337 338 339 338 336 334 334 333 332 332 333 333 334 335 335 334 331 328 327 326 325 326 326
341 339 338 339 337 334 336 339 338 334 331 333 338 339 339 339 337 336 336 336 337 338 337 337 336 334 333 332 333 334 334 335 335 334 333 331 328 326 325 325 326 326
341 339 338 338 337 334 336 337 333 330 331 337 340 340 339 340 338 337 336 336 336 337 337 337 336 335 334 333 334 334 334 334 333 332 332 331 329 327 326 326 326 326
341 339 338 338 338 337 336 335 333 332 333 336 338 338 338 339 338 338 337 337 336 336 337 337 336 335 335 334 333 333 332 332 333 332 331 331 329 327 326 326 326 326
340 339 338 338 337 336 335 334 333 333 332 332 334 336 337 338 338 337 337 337 337 337 337 336 336 335 335 334 332 330 331 333 333 332 331 330 328 327 326 326 325 324
340 338 338 337 335 334 334 333 330 327 327 330 334 337 338 338 337 336 336 336 336 336 336 335 335 335 334 333 332 330 331 333 333 332 331 329 328 327 326 325 324 322
339 337 336 335 334 332 331 331 328 326 328 333 336 337 337 337 337 336 336 336 335 335 334 333 333 333 333 333 331 329 330 331 331 331 330 328 327 326 325 324 323 321

ECMWFNIL_925_thetae_009.txt.gz
Theta_e
359 358 356 357 359 359 358 355 352 347 342 340 340 340 340 339 338 337 338 339 339 339 337 333 331 334 336 334 333 333 334 334 335 335 334 335 336 337 337 337 337 336
360 358 356 358 359 359 358 355 352 347 342 340 339 339 339 338 337 337 337 338 339 338 336 333 331 332 335 335 333 333 333 332 334 335 334 334 336 336 337 337 337 337
359 356 355 358 360 360 357 354 351 346 341 339 339 339 338 338 337 336 336 337 338 338 335 333 332 332 333 334 333 334 334 333 335 335 333 333 334 334 335 336 337 337
357 354 354 357 359 359 357 354 349 344 340 339 338 338 338 338 337 336 335 336 337 337 335 333 332 332 333 334 333 334 335 334 335 334 333 334 333 331 333 334 335 336
355 354 354 356 359 358 355 352 347 342 340 339 338 337 337 337 337 336 335 335 336 337 335 333 332 331 333 333 334 335 336 336 335 332 332 334 332 330 331 332 333 334
355 355 354 356 358 356 354 350 344 341 339 338 337 335 335 337 338 337 336 335 336 337 336 334 331 331 333 334 334 335 336 336 335 332 332 334 333 331 331 330 330 332
356 355 355 356 356 355 353 347 341 339 337 336 335 334 335 337 338 338 336 335 336 336 336 333 330 330 333 335 335 335 335 335 334 332 332 333 332 331 329 328 329 330
355 354 354 354 354 353 349 343 339 338 336 335 334 333 336 338 338 338 336 336 336 335 335 332 328 330 333 335 335 335 335 334 333 332 333 332 331 330 329 328 329 328
353 353 352 351 350 347 344 340 339 338 335 334 333 333 336 337 337 337 335 336 335 334 333 331 328 331 334 335 335 334 334 334 333 332 332 332 331 331 329 328 328 328
352 350 347 346 345 343 342 340 339 337 335 334 333 333 335 336 336 336 335 335 334 331 331 330 330 332 335 336 335 333 332 333 333 331 329 330 331 330 330 328 328 329
350 346 344 346 346 343 342 341 339 336 335 334 334 333 333 333 334 335 334 333 332 330 330 330 331 334 336 336 335 333 331 330 330 329 329 329 330 329 328 328 327 328
346 343 345 348 347 344 343 342 339 336 335 334 334 332 332 332 333 334 333 332 330 329 329 330 332 335 335 335 334 331 330 330 329 329 330 330 330 329 328 327 326 327
344 343 346 348 347 344 344 343 340 337 335 334 333 332 332 332 332 332 332 331 329 328 328 330 333 335 335 334 333 331 329 329 330 330 331 331 330 329 327 326 326 326
344 345 347 347 346 343 343 342 340 337 334 332 332 331 332 331 330 331 332 330 330 330 329 330 332 334 334 334 333 333 331 329 330 330 331 332 331 329 327 327 326 326
345 344 345 345 344 343 340 339 339 338 334 330 330 330 332 332 330 331 332 331 332 332 330 330 332 333 333 334 335 335 334 331 330 331 331 332 332 330 328 327 326 326
346 343 343 343 343 342 340 338 338 337 333 330 330 331 332 332 330 331 333 334 334 333 331 330 331 332 333 335 336 335 334 331 330 331 332 332 333 332 331 328 326 326
346 343 342 342 341 341 339 337 337 337 333 329 330 332 333 333 333 333 335 335 335 335 333 330 331 332 335 336 335 332 330 330 330 331 332 333 334 334 334 332 328 327
346 344 343 342 341 340 339 337 336 336 334 330 331 333 332 332 334 336 336 336 336 336 335 333 331 333 336 335 332 330 330 330 331 332 333 333 334 334 334 334 332 329
345 344 343 342 341 339 339 338 337 335 334 333 333 334 332 331 335 336 336 336 336 335 336 335 333 335 336 335 332 331 332 332 332 333 333 333 333 334 334 335 333 329
344 344 343 341 340 339 339 339 337 337 336 335 335 336 335 335 333 328 331 336 335 332 334 335 333 335 337 336 335 333 332 333 333 333 333 333 334 334 334 335 332 328
345 343 341 341 340 339 339 339 337 336 336 335 336 336 335 334 327 321 328 335 332 328 333 334 333 334 337 338 338 335 333 334 333 333 334 334 334 334 334 334 332 328
345 343 342 341 340 339 339 338 337 336 335 335 335 333 331 330 326 324 330 336 333 331 334 334 333 335 336 337 338 336 334 334 334 334 334 333 332 332 333 332 330 327
345 343 342 341 340 340 340 339 338 337 336 334 332 328 326 324 324 327 333 337 336 334 332 332 333 334 334 336 337 336 335 334 334 333 332 330 330 331 332 331 329 326
346 344 343 342 341 341 341 339 339 337 334 332 329 325 323 322 324 328 331 333 335 334 331 332 334 335 334 336 336 335 334 334 332 331 331 331 332 332 332 330 327 326
346 344 344 343 342 341 339 338 337 334 332 330 326 324 324 326 327 327 327 330 334 335 334 334 335 335 336 336 335 335 334 332 331 330 330 331 332 331 330 328 326 325
346 345 344 343 341 339 337 335 334 333 331 328 326 327 330 331 330 330 331 333 336 336 335 336 335 334 334 334 333 333 333 331 330 329 329 331 332 330 329 328 326 325

ECMWFNIL_925_thetae_012.txt.gz
Theta_e
360 359 360 360 361 361 360 360 359 359 357 356 355 353 352 351 350 349 347 345 344 343 343 341 339 338 339 339 339 339 338 337 336 336 338 338 338 338 338 337 337 337
360 360 360 360 361 361 362 361 360 359 358 356 355 353 353 352 350 349 348 346 344 343 343 341 339 338 338 338 339 339 338 337 337 336 338 338 338 337 337 337 336 337
361 360 359 359 360 361 361 361 360 359 358 356 355 354 352 351 349 349 347 345 343 342 342 341 339 338 338 337 338 338 337 338 337 336 337 338 338 337 336 336 335 335
362 361 360 360 360 361 361 361 361 360 358 356 355 353 352 350 348 348 346 345 343 342 342 341 339 338 338 336 337 337 337 337 337 336 337 337 337 337 336 335 335 334
363 362 361 361 360 361 361 361 361 360 358 356 355 353 351 349 348 347 345 344 343 342 341 341 340 338 337 337 338 337 337 336 336 336 336 336 336 336 336 335 335 335
364 363 361 360 360 361 361 361 360 359 357 355 353 351 350 349 347 345 345 344 343 342 342 341 340 338 337 338 338 338 337 336 335 336 336 336 335 335 334 334 334 334
365 363 361 360 360 360 361 361 359 358 356 354 352 350 349 348 346 344 344 343 343 342 342 341 340 339 337 337 338 339 338 337 337 336 336 335 335 334 334 334 334 334
365 363 361 360 360 360 361 360 358 357 355 354 351 349 348 346 345 343 342 343 343 343 342 341 341 340 338 337 338 339 339 338 337 337 336 336 335 335 335 334 334 335
364 363 361 359 359 360 360 359 357 356 355 354 351 349 347 345 344 343 343 344 344 342 342 342 341 341 339 337 338 339 339 337 336 336 336 336 336 336 335 335 334 335
364 362 361 359 359 359 359 358 357 356 355 353 349 347 347 344 342 344 344 345 345 343 342 342 341 341 339 337 339 340 339 338 337 336 336 336 336 336 335 335 334 334
364 362 361 360 359 358 357 356 355 353 353 353 348 345 344 341 340 342 344 345 344 343 343 343 342 340 338 337 339 340 340 338 337 336 336 336 336 336 335 335 334 334
364 362 361 359 357 356 355 354 352 349 350 352 348 345 341 338 336 338 342 344 342 341 343 343 340 339 339 340 340 340 340 339 337 335 335 336 336 335 335 335 334 334
365 363 360 357 356 354 352 350 349 349 349 350 350 347 340 336 336 336 338 342 342 341 341 341 339 339 340 339 338 338 340 340 338 335 334 335 336 335 335 334 334 334
365 362 359 356 354 350 349 349 349 347 347 349 350 349 342 337 337 337 336 339 341 341 339 338 337 337 335 334 334 335 337 338 339 337 335 335 335 335 335 334 334 333
364 360 357 355 351 348 348 349 348 346 346 347 348 347 344 340 339 337 336 337 339 339 337 334 332 330 329 331 332 334 335 336 338 339 336 334 335 335 335 335 335 334
361 357 356 354 350 347 348 348 347 346 346 346 344 343 341 339 339 338 336 336 337 337 335 333 329 326 326 329 332 333 333 334 337 339 337 335 335 335 335 335 335 335
360 357 356 354 349 348 349 349 347 345 345 343 342 341 339 339 340 339 337 337 337 336 334 332 330 326 323 326 331 332 332 333 335 337 337 335 335 336 336 336 336 336
360 357 356 352 349 348 349 349 347 344 343 343 342 341 341 340 341 340 339 338 336 336 334 331 329 326 322 324 330 331 330 331 334 336 337 335 335 335 335 336 336 337
360 358 356 352 349 348 348 348 346 344 344 344 343 343 341 340 340 340 339 338 337 337 334 330 328 325 321 325 330 328 325 328 331 334 336 335 335 335 335 337 339 341
360 358 355 353 350 348 347 347 346 346 346 345 344 343 341 340 339 339 340 339 336 334 332 331 330 326 323 328 331 325 324 329 331 333 335 336 336 336 336 338 341 343
360 358 356 354 351 349 347 347 346 347 347 345 344 343 342 341 339 340 342 339 333 331 333 334 330 325 327 330 327 322 326 332 334 334 335 335 335 336 337 339 341 340
360 359 357 355 352 350 348 347 347 348 346 344 344 343 342 341 340 341 341 338 335 334 333 331 327 325 328 329 324 322 327 331 333 334 333 333 335 336 338 339 338 334
360 359 357 355 353 351 349 348 348 348 346 345 344 342 341 341 341 340 338 336 336 334 329 328 329 327 326 328 326 325 328 329 331 333 333 334 334 335 337 339 336 332
360 359 357 355 354 352 350 349 348 347 346 345 343 342 341 340 339 337 335 334 334 333 330 331 331 325 322 327 329 326 327 329 331 333 334 333 333 333 336 337 334 332
358 358 356 354 354 352 350 349 348 346 344 343 341 339 338 337 334 332 330 331 333 335 334 333 332 327 325 328 328 325 326 330 332 334 333 332 332 333 334 334 333 333
357 356 355 353 353 352 350 349 347 345 343 341 339 337 334 333 330 327 327 330 333 335 336 335 335 334 330 327 324 323 325 329 331 332 332 331 331 330 331 332 333 334

ECMWFNIL_925_thetae_015.txt.gz
Theta_e
363 363 361 361 361 359 358 358 358 357 356 355 355 354 353 351 350 348 346 346 346 345 343 340 340 341 341 340 341 340 340 338 336 336 338 338 338 337 337 337 337 336
363 363 361 361 361 360 359 359 358 358 357 356 355 354 353 352 351 349 347 345 344 344 342 342 342 342 341 341 341 340 340 338 336 336 337 337 337 337 337 337 337 337
363 363 362 361 360 360 359 359 359 359 357 356 355 354 353 352 351 349 348 345 344 344 343 343 343 342 342 341 341 340 339 338 337 336 336 337 338 338 337 336 336 336
365 364 363 361 360 360 360 360 359 359 357 355 354 354 353 352 352 350 348 346 345 345 344 344 343 342 342 341 340 340 339 338 338 336 336 337 337 338 338 337 336 335
366 365 364 362 361 360 360 361 361 359 357 354 352 355 355 354 352 350 348 347 346 346 344 344 343 342 342 341 339 339 339 338 338 336 336 336 336 336 337 337 337 336
366 366 365 363 361 361 361 362 361 360 358 354 353 355 356 355 353 350 348 347 347 345 343 343 342 341 341 341 339 339 339 338 337 336 336 336 335 335 335 335 336 336
367 368 366 363 362 362 362 362 361 361 359 356 356 356 357 356 354 351 349 347 346 344 342 343 342 341 340 340 339 339 339 339 338 337 337 337 336 335 334 334 335 336
368 368 367 365 364 362 362 362 361 361 360 358 358 358 357 356 354 350 348 347 346 344 343 342 342 341 340 339 339 338 339 339 338 338 337 337 336 336 335 335 335 335
368 368 367 365 363 362 362 361 360 361 360 359 360 358 356 355 353 350 347 346 346 344 343 343 343 342 341 339 339 338 338 339 339 338 338 338 337 336 336 336 335 335
369 368 367 365 364 362 360 358 358 360 360 359 359 357 354 353 352 350 347 345 346 344 342 344 344 343 341 340 340 339 339 339 339 338 338 338 337 336 336 336 336 335
369 368 367 365 363 360 359 358 357 358 360 359 358 356 354 352 351 350 347 345 346 345 344 345 344 342 342 341 340 340 340 340 340 339 339 338 337 337 336 336 336 336
369 367 367 365 362 358 358 358 356 356 359 359 357 356 355 353 351 350 348 346 344 345 346 346 343 342 343 343 341 340 339 340 340 339 338 337 337 337 337 336 336 336
370 367 367 366 362 358 357 358 357 354 355 358 357 355 355 354 351 350 348 345 345 346 347 345 343 342 344 344 341 339 339 341 340 339 338 337 336 336 336 336 336 336
369 368 368 367 363 359 358 359 357 352 354 358 356 354 354 353 352 351 348 346 347 348 347 344 343 343 344 344 340 338 340 341 340 339 337 335 334 333 333 334 335 334
370 369 369 367 364 363 362 360 358 355 357 357 354 353 353 352 352 351 349 348 348 348 346 344 344 344 344 342 340 340 341 341 340 340 337 334 332 330 330 332 333 334
371 370 368 367 365 364 363 362 360 358 358 356 354 354 353 352 352 351 349 349 348 348 346 343 343 344 342 340 341 341 341 340 340 338 335 333 333 332 331 332 333 334
371 368 367 365 364 364 363 362 360 359 358 356 355 355 353 352 351 350 350 349 348 348 346 343 344 344 340 340 340 338 339 341 339 337 337 338 338 337 335 334 333 334
369 368 366 364 363 362 360 359 358 359 358 356 355 354 353 352 351 350 350 349 348 348 346 345 345 341 340 341 338 335 338 340 337 337 339 338 337 336 333 331 331 333
369 368 366 363 362 360 359 358 357 358 359 356 355 354 352 352 351 349 349 349 347 347 345 345 343 341 341 341 333 330 336 337 334 333 334 333 333 332 330 330 333 335
368 367 364 363 362 359 359 359 358 359 359 357 355 354 352 352 351 349 349 348 347 346 344 342 342 341 340 335 327 326 331 334 333 331 330 332 332 328 327 331 335 336
368 366 363 362 360 359 359 359 359 359 359 357 355 354 352 351 350 349 349 347 347 346 342 340 341 340 335 328 324 325 328 331 332 328 328 331 330 326 327 331 334 335
367 365 363 361 360 359 358 358 358 358 358 357 355 354 353 352 350 349 348 347 346 344 341 340 339 336 330 325 322 323 327 331 331 329 329 332 331 329 330 332 333 334
366 364 362 361 360 359 358 357 356 356 357 356 356 355 353 352 350 349 347 346 345 343 340 339 337 332 327 323 321 322 326 329 330 330 330 331 330 329 329 330 331 333
364 362 361 360 360 358 357 355 354 354 354 355 355 354 353 352 350 348 346 345 344 342 339 337 334 330 324 321 320 321 325 328 328 328 328 328 328 327 326 326 327 331
361 361 361 361 360 358 357 355 354 353 354 353 353 352 351 350 347 345 344 343 342 341 338 335 333 330 324 322 321 322 326 329 328 328 328 327 325 323 323 325 327 330
361 362 361 359 359 359 357 355 354 354 353 352 351 349 347 346 344 342 341 341 339 337 334 333 332 331 327 323 321 322 328 331 329 329 328 325 322 324 327 329 331 331

ECMWFNIL_925_thetae_018.txt.gz
Theta_e
363 362 362 362 362 360 359 359 358 359 358 357 357 355 353 351 350 349 349 348 348 347 346 344 341 340 340 340 340 340 340 339 338 338 338 338 338 338 337 337 337 336
363 363 362 363 363 361 360 359 358 358 357 357 357 355 353 351 350 349 348 348 348 347 345 343 342 340 340 341 341 340 340 339 338 338 338 337 337 337 337 337 336 336
364 364 363 363 363 362 361 359 358 358 357 357 356 355 354 352 351 349 348 348 348 346 344 343 342 341 340 341 341 341 341 340 338 337 337 336 337 337 337 337 337 336
364 364 364 363 362 362 361 360 359 358 358 357 357 356 355 354 352 350 349 348 347 346 344 343 343 342 341 341 342 341 340 340 338 337 337 337 336 336 337 338 338 337
365 365 365 363 361 361 361 360 359 359 359 359 357 356 355 354 353 352 350 348 347 345 345 344 343 343 342 342 342 342 340 340 339 337 337 338 337 337 337 337 337 337
365 365 365 363 361 360 360 360 359 359 359 358 358 356 355 354 353 352 351 349 347 346 345 344 344 344 343 342 342 341 341 340 339 338 337 337 337 336 337 336 336 336
367 366 365 364 361 360 360 360 359 358 357 358 357 356 354 354 353 352 352 350 347 347 347 346 345 344 343 343 342 341 341 340 339 338 337 337 336 336 336 336 336 336
367 366 365 364 362 361 360 360 360 358 356 356 356 354 353 354 354 353 352 351 349 347 347 346 345 344 344 344 342 340 340 340 339 339 338 337 336 336 336 335 335 335
367 367 366 364 362 362 361 360 361 361 358 357 356 354 352 354 355 354 353 351 349 348 347 346 345 344 343 343 342 340 339 338 339 339 339 338 337 337 336 336 335 335
367 368 367 365 363 363 362 360 361 362 361 359 358 355 353 354 356 356 354 352 350 348 347 345 344 343 343 343 342 340 338 336 338 340 339 339 339 338 337 336 335 335
367 367 367 366 364 363 362 361 361 361 361 360 359 357 356 356 357 357 355 353 350 349 347 345 343 344 343 342 342 341 338 336 338 340 339 338 338 338 337 336 335 334
367 366 367 367 365 363 362 361 360 360 362 362 361 359 359 359 358 357 356 354 351 349 347 344 344 344 343 342 341 341 339 337 339 340 339 338 339 338 337 336 336 335
368 366 366 367 365 363 361 361 359 359 361 362 361 361 360 360 360 358 357 355 352 350 348 345 344 344 343 342 341 341 340 339 339 340 340 340 340 339 337 336 336 336
369 366 365 366 365 363 361 360 359 358 359 361 361 361 360 360 360 359 357 356 353 351 348 346 344 344 344 342 341 341 341 341 340 340 340 340 340 339 337 336 336 336
369 367 365 364 364 363 361 359 359 358 357 359 360 360 360 359 360 359 358 356 353 351 349 346 345 344 343 343 342 341 342 341 341 341 340 341 340 338 337 337 337 336
369 369 366 364 364 363 361 360 359 359 357 358 360 361 360 359 358 359 358 355 353 351 349 347 347 345 344 342 341 341 342 341 341 341 341 341 339 337 336 337 335 334
369 369 368 366 365 364 364 362 360 359 358 358 359 359 360 359 358 357 357 355 353 352 349 349 348 347 344 342 341 341 340 340 340 341 341 340 338 337 336 334 332 332
370 370 371 369 368 367 366 364 362 361 360 359 360 360 360 360 358 356 356 355 354 352 351 350 349 347 344 342 342 342 340 339 342 342 341 340 338 337 335 333 333 333
371 372 372 371 370 369 367 367 366 363 362 362 362 362 360 359 358 356 355 355 353 352 352 351 350 347 345 343 343 342 339 340 342 342 342 341 339 338 336 335 334 333
373 375 374 372 372 370 369 369 367 365 364 363 363 361 359 359 357 356 355 354 353 352 351 351 349 347 345 344 344 341 340 341 343 342 341 340 339 338 335 334 333 333
375 375 374 373 371 369 368 367 366 365 364 362 362 361 359 358 357 355 354 353 352 351 351 350 349 347 345 344 343 341 340 341 341 340 339 338 336 334 329 329 333 333
375 374 372 370 368 366 365 363 362 362 361 361 361 360 359 358 356 355 354 353 352 351 350 349 347 346 345 343 342 340 339 339 339 337 336 334 332 330 327 328 331 331
374 372 370 368 366 364 363 361 361 361 361 361 361 360 359 357 356 355 354 353 352 351 349 347 345 344 344 342 341 340 338 337 336 334 333 331 330 329 329 330 332 331
372 370 368 366 364 363 362 360 360 360 361 361 360 359 358 357 356 355 353 352 351 349 348 346 343 342 342 341 340 339 337 334 332 332 331 330 329 328 330 332 332 329
369 368 366 364 363 361 360 359 358 358 358 358 357 357 357 354 353 352 351 350 349 347 346 344 342 340 340 341 341 339 334 330 329 329 330 330 330 331 332 332 328 325
368 366 364 363 362 360 358 357 357 356 355 355 355 355 353 351 349 348 347 347 347 345 343 342 340 339 338 339 338 335 330 327 328 330 331 332 333 333 333 332 327 324

ECMWFNIL_925_thetae_021.txt.gz
Theta_e
361 362 361 360 359 357 357 355 354 355 354 353 354 352 352 353 352 351 351 349 348 348 347 345 345 342 340 339 338 339 339 339 339 338 337 337 336 336 338 338 336 337
361 362 361 361 360 358 357 356 354 355 355 354 355 353 352 353 352 350 350 349 348 348 348 346 344 342 340 338 338 339 340 339 339 338 337 338 336 335 337 338 337 336
362 362 362 361 360 358 358 358 354 354 356 356 355 354 352 353 352 350 349 349 347 347 348 347 344 342 340 339 338 339 340 339 339 338 338 338 337 336 336 337 337 336
362 362 361 360 360 359 358 359 357 356 357 357 356 355 353 352 351 350 349 349 348 346 346 347 345 342 341 340 338 339 339 339 339 338 338 338 337 336 336 337 337 336
363 362 361 360 360 360 359 359 358 357 357 358 357 356 354 353 351 350 351 349 348 347 346 346 345 343 341 340 339 340 339 339 339 338 338 337 336 336 337 337 337 337
364 363 362 361 360 360 360 359 359 358 357 357 357 356 355 354 352 349 350 350 348 348 347 346 345 343 341 341 340 340 339 339 339 338 338 338 336 335 335 336 336 337
364 363 362 361 360 361 361 360 359 359 358 357 357 357 356 355 353 351 349 350 349 348 347 346 345 343 341 341 340 340 340 340 339 338 337 337 338 336 335 335 336 337
364 364 363 362 361 361 361 360 360 359 358 358 357 357 356 355 354 352 350 350 349 349 348 347 345 343 342 342 341 340 340 340 340 339 337 336 338 338 336 335 335 335
364 364 363 363 362 361 361 360 360 359 359 358 358 357 357 356 355 354 352 351 350 349 348 347 345 344 343 342 342 340 341 341 340 339 338 337 337 338 337 336 336 335
364 364 363 363 362 361 361 361 360 359 358 358 358 357 357 357 355 355 354 352 351 350 349 347 346 344 343 343 342 341 340 341 341 340 338 337 337 337 336 336 336 336
364 364 364 363 363 362 361 361 360 359 358 358 358 358 358 357 356 355 355 353 352 351 349 348 346 345 344 344 343 342 340 340 340 340 339 338 337 337 336 335 336 336
364 364 364 364 363 362 361 360 359 359 358 358 358 358 357 357 357 356 355 354 353 352 350 348 347 346 345 344 344 342 341 340 339 340 340 339 338 337 335 335 335 335
364 364 364 363 363 362 361 360 359 358 358 358 357 357 356 356 355 355 355 355 353 353 351 349 348 347 346 344 344 343 342 341 339 339 339 339 339 339 338 337 336 335
364 364 364 364 363 362 361 360 359 358 358 358 358 357 356 355 355 354 354 355 354 354 352 350 348 347 346 345 344 343 342 341 340 338 337 337 339 340 339 338 337 336
363 363 364 364 363 362 361 360 359 358 357 357 358 358 357 357 356 355 355 355 356 355 353 351 349 347 346 345 344 343 342 341 340 338 336 336 338 339 339 338 338 337
363 363 363 364 364 363 362 361 359 358 358 358 358 359 358 358 357 357 357 357 357 356 355 352 350 348 346 345 344 343 342 341 340 338 336 336 339 340 339 339 338 337
363 362 362 363 364 363 363 361 360 359 358 358 359 360 359 359 358 358 358 359 358 358 356 353 351 349 347 345 344 343 342 341 340 339 337 338 340 341 340 339 338 337
363 363 363 363 364 364 364 363 361 360 359 358 359 360 360 360 359 359 359 360 359 358 356 354 352 350 348 346 345 343 342 341 340 339 339 339 340 341 339 338 337 336
364 365 365 364 364 364 364 364 362 360 360 359 358 360 361 360 360 359 359 359 359 358 356 355 353 351 349 347 346 344 343 341 340 340 340 340 341 340 339 338 337 336
365 366 366 365 365 364 364 364 363 361 361 360 359 360 361 360 360 359 359 359 358 357 356 355 354 352 350 348 346 345 343 342 340 340 341 341 341 340 338 337 335 334
366 366 367 367 366 364 365 364 364 363 362 361 361 361 361 361 361 359 358 357 357 356 355 354 353 352 350 349 347 345 344 342 340 340 341 341 341 339 338 336 332 330
366 366 367 368 367 366 366 366 365 364 362 362 361 361 361 360 360 359 358 357 355 355 354 353 352 351 350 349 348 346 344 342 340 340 342 341 339 338 337 334 330 329
367 368 369 369 369 368 367 366 366 364 363 363 362 361 361 360 359 359 358 357 355 354 353 352 351 351 351 350 349 347 344 342 341 342 342 341 339 338 337 334 331 330
368 369 370 370 370 369 368 366 366 364 364 363 361 360 360 359 358 358 356 356 355 353 353 352 350 350 350 349 348 346 343 342 341 342 341 339 339 337 335 333 331 330
370 371 371 370 369 367 366 366 365 364 363 362 361 360 359 358 358 357 355 355 354 353 352 351 350 349 348 347 346 344 342 341 340 340 338 337 336 335 333 332 330 329
372 371 370 369 367 366 365 364 363 362 361 361 360 359 358 357 356 356 354 353 353 352 351 350 349 348 346 345 344 342 341 340 339 338 337 335 334 332 331 331 329 328

ECMWFNIL_925_thetae_024.txt.gz
Theta_e
356 356 356 357 357 357 357 357 356 357 357 357 356 356 355 353 353 353 351 351 350 350 348 347 347 345 342 341 340 340 340 339 337 335 336 338 336 335 336 336 336 336
357 357 356 357 357 357 357 357 357 357 356 355 355 354 354 353 353 352 351 350 351 349 346 346 347 345 342 341 339 339 340 339 338 337 337 338 337 334 334 335 336 336
358 358 358 358 358 358 358 358 358 357 357 355 355 354 353 353 353 352 351 350 350 348 344 345 346 344 343 341 339 339 340 339 338 338 338 338 337 334 334 336 337 336
359 358 359 358 358 358 359 358 358 357 356 355 355 354 353 352 352 352 351 350 350 349 345 343 344 344 344 342 340 339 339 338 339 339 339 338 337 334 333 335 337 337
358 358 359 359 359 359 358 358 357 356 356 355 354 354 352 352 352 351 351 350 350 349 347 345 344 344 345 343 340 339 338 338 339 339 339 338 336 335 333 333 336 337
358 358 359 359 359 359 359 358 357 356 356 355 354 353 352 352 352 351 351 351 350 349 348 347 346 345 345 343 341 339 338 338 339 339 339 338 336 336 334 333 334 336
359 358 359 359 359 359 359 358 357 356 356 355 354 353 353 352 352 352 351 351 351 350 349 347 347 347 346 344 341 340 338 338 339 339 339 338 337 337 336 335 334 335
359 360 359 359 359 359 359 358 358 357 356 355 355 354 354 354 353 352 352 352 351 350 349 347 347 347 346 345 342 340 339 338 338 339 339 338 338 337 337 336 335 336
360 360 360 360 360 359 359 359 358 357 357 356 356 355 354 355 354 353 352 352 351 350 349 348 347 347 346 345 343 341 340 339 338 338 338 338 338 337 337 336 335 335
360 360 360 360 360 359 359 359 358 358 357 357 356 356 355 355 355 354 352 351 351 350 349 348 347 346 346 345 343 342 340 340 339 339 338 338 338 337 337 337 336 335
360 361 361 361 361 360 360 360 359 358 357 357 357 356 356 356 356 355 353 352 351 350 350 349 348 347 346 345 344 343 341 340 339 339 339 337 337 337 337 337 337 337
361 361 361 361 361 360 360 360 359 359 358 357 357 357 357 356 356 355 354 353 352 350 350 349 348 347 347 345 344 343 342 341 340 340 339 338 337 338 337 337 337 337
361 361 361 361 361 361 360 360 360 359 358 358 357 357 357 356 356 356 355 354 352 351 350 349 349 348 347 346 345 343 342 341 340 340 339 339 338 338 338 337 336 337
361 361 361 361 361 361 360 360 359 359 359 358 357 358 357 356 356 356 355 354 353 352 351 350 349 348 347 346 345 343 342 341 341 341 340 339 339 339 338 338 337 336
361 362 361 361 361 361 361 360 360 359 359 358 358 357 357 357 356 356 355 355 354 353 352 351 350 349 348 347 346 344 343 342 342 342 341 340 339 339 339 339 338 337
362 362 362 361 361 361 361 360 360 359 359 358 358 357 357 357 356 356 356 355 355 354 353 352 351 350 349 348 347 345 344 343 342 342 342 340 339 339 339 339 339 338
362 362 361 362 361 361 361 360 360 359 358 358 358 357 357 356 356 356 355 355 355 354 354 353 352 351 350 349 348 346 344 344 343 343 342 341 339 338 338 338 339 339
362 362 362 361 361 361 361 360 360 360 358 358 357 357 357 357 356 356 355 355 355 354 354 354 353 353 352 350 349 347 346 345 345 344 342 340 339 338 338 338 338 339
362 362 361 361 361 361 361 361 360 360 359 358 357 357 357 357 356 356 355 355 354 354 354 354 353 353 352 351 350 348 347 347 345 344 343 340 339 338 338 337 338 338
362 362 361 361 361 361 361 361 360 360 359 358 357 356 356 357 357 356 356 356 355 354 354 354 354 354 353 352 351 350 349 347 345 344 343 341 339 339 338 337 338 338
362 362 361 361 361 361 361 361 360 360 359 358 357 357 356 357 357 357 357 357 356 356 355 355 355 354 354 353 352 351 350 348 345 343 342 340 339 339 338 337 338 338
362 361 361 361 360 361 361 361 361 360 359 359 358 357 357 357 357 358 357 357 357 357 356 356 356 355 355 354 353 353 350 347 344 342 341 340 339 339 338 338 338 339
362 361 361 361 360 361 360 361 361 360 360 359 358 358 358 357 358 358 358 358 358 357 357 357 356 355 355 355 354 353 350 346 344 342 341 341 340 339 339 339 339 339
361 362 361 361 361 361 360 360 361 361 360 360 359 359 358 358 358 358 358 358 358 358 358 357 356 356 356 355 354 353 350 347 344 342 341 341 340 339 339 339 339 338
361 361 362 361 361 361 360 361 361 361 361 360 360 360 359 358 359 358 358 358 358 358 357 356 356 355 354 353 352 352 350 347 343 342 341 341 340 339 338 339 338 336
359 361 362 362 362 362 361 361 361 361 361 361 360 359 359 359 358 358 357 357 356 356 356 355 354 353 352 352 352 351 349 346 343 342 341 340 339 338 337 338 337 335

ECMWFNIL_925_thetae_027.txt.gz
Theta_e
353 353 353 353 353 353 353 353 353 353 354 355 355 356 356 356 356 357 358 359 357 354 350 347 346 345 343 342 343 343 341 339 339 340 340 339 338 335 333 333 336 337
353 354 354 354 354 354 353 352 353 353 354 355 355 355 356 356 357 357 358 358 356 353 350 347 347 346 344 342 342 342 340 339 340 340 340 339 337 335 333 332 334 336
354 354 354 354 354 354 353 353 353 354 355 355 355 355 355 356 357 358 358 356 354 352 350 348 348 348 346 343 342 342 340 339 340 340 340 339 336 335 334 333 334 336
355 355 355 354 354 354 353 353 354 354 355 355 355 355 355 356 357 357 357 355 353 351 349 349 349 349 347 344 343 343 341 340 340 340 340 338 336 336 335 334 334 335
355 355 355 355 354 354 354 354 354 354 355 355 355 355 355 356 357 356 356 354 353 351 350 349 349 349 348 345 344 344 343 341 340 340 340 338 337 337 337 336 334 334
355 355 355 355 355 354 354 354 354 355 355 355 355 355 355 356 356 355 354 353 352 351 350 350 350 350 349 346 345 345 344 342 340 339 340 339 337 337 337 337 335 333
356 356 355 355 355 355 355 355 355 355 355 355 355 355 355 355 355 355 354 353 352 352 351 350 350 350 348 346 345 345 344 342 340 339 339 339 338 338 338 338 337 335
355 356 356 356 356 356 356 355 355 355 355 355 355 355 355 355 355 354 353 353 352 352 351 350 349 349 348 346 346 346 344 342 340 339 338 338 338 338 338 338 337 336
356 356 356 356 356 356 357 356 356 355 355 355 355 355 355 355 355 354 353 352 352 351 351 350 350 349 348 345 345 345 344 343 341 339 338 338 338 338 338 338 337 336
356 356 356 357 357 356 357 357 356 356 355 355 355 355 355 354 354 354 353 352 351 351 350 350 349 349 348 346 344 343 343 343 342 341 339 338 337 338 338 338 338 336
357 357 356 356 357 357 357 357 356 356 356 356 356 355 355 354 354 353 352 352 351 351 350 350 349 349 348 347 345 344 344 343 343 342 340 338 338 338 338 338 338 337
357 357 357 357 357 356 357 357 356 356 356 356 356 355 355 354 354 353 352 352 351 351 350 350 349 349 348 348 347 346 345 344 343 342 341 340 338 338 338 338 338 337
358 358 358 357 357 357 357 357 356 356 356 356 356 356 355 354 354 354 353 352 351 351 351 350 350 350 349 349 348 346 346 345 343 342 341 340 339 339 338 338 337 337
358 358 358 358 358 358 357 357 357 357 357 356 356 356 355 355 355 354 353 353 352 351 351 351 350 350 349 348 347 346 345 344 343 342 341 341 340 339 339 338 338 337
358 358 358 358 358 358 358 358 357 357 357 357 356 356 356 355 355 355 354 353 353 352 351 351 350 350 349 348 347 346 345 344 343 342 342 341 341 340 339 339 338 338
358 358 358 359 358 358 358 358 358 358 357 357 357 356 356 355 355 355 355 354 353 353 352 351 351 350 350 349 348 347 346 344 343 343 342 342 341 341 340 339 338 338
359 358 359 359 359 358 358 358 358 358 357 357 357 356 356 356 356 355 355 354 354 354 353 352 352 351 350 350 349 348 347 345 344 344 343 343 342 341 340 339 339 339
358 359 359 359 358 359 358 359 359 358 358 357 357 357 357 356 356 356 355 355 354 354 353 353 352 352 351 350 349 348 347 346 345 345 344 343 342 341 340 339 339 339
359 359 359 359 359 359 358 359 359 358 358 358 357 357 357 356 356 356 355 355 355 354 354 354 353 352 351 351 350 349 348 348 346 346 345 344 343 341 340 339 339 339
359 359 359 359 359 359 359 359 359 359 358 358 358 357 356 357 356 356 356 355 355 355 354 354 354 353 352 352 352 351 350 349 348 347 346 345 344 342 341 340 340 339
359 359 359 359 359 359 359 359 359 359 359 358 357 357 357 357 356 356 356 355 355 355 355 354 354 353 353 353 352 352 352 351 349 348 346 344 343 343 342 342 340 339
359 360 360 360 360 359 360 359 359 359 358 358 358 357 357 356 356 356 355 355 355 355 354 354 354 354 354 354 353 353 353 351 350 347 345 344 344 343 343 342 340 339
360 360 360 360 360 360 359 359 359 359 358 358 358 357 357 356 355 356 355 355 355 355 354 354 354 354 354 353 353 354 353 351 350 347 344 344 344 343 343 342 341 339
360 360 360 360 359 360 359 359 359 359 359 358 358 357 357 356 356 355 355 356 355 355 355 354 354 354 354 353 354 353 352 352 350 347 344 344 344 343 342 342 340 339
359 360 360 360 360 359 359 359 359 359 359 359 358 357 357 356 356 355 355 355 355 355 355 355 355 355 354 354 354 353 353 352 350 346 343 343 344 343 341 341 339 338
359 360 360 360 360 360 359 359 359 359 359 359 358 357 357 356 356 355 355 355 355 355 355 355 355 355 355 355 355 354 354 353 349 346 343 343 343 342 341 340 339 338

ECMWFNIL_925_thetae_030.txt.gz
Theta_e
353 353 352 351 352 352 352 352 352 352 352 352 353 353 353 353 352 353 353 354 355 356 356 355 356 357 355 349 344 343 342 341 340 340 339 340 340 339 339 337 336 336
353 353 352 352 352 352 351 351 351 352 351 352 352 352 352 351 350 352 353 354 355 356 355 355 356 357 354 349 344 342 342 341 341 341 341 341 340 339 339 338 337 335
353 353 352 352 352 352 352 351 351 351 351 351 351 351 351 350 350 351 353 354 355 356 355 356 357 357 354 348 343 342 342 341 341 341 341 340 339 339 339 339 338 335
352 353 353 352 352 352 352 352 351 351 351 351 351 351 350 350 350 352 354 354 355 356 355 356 357 356 353 349 344 343 342 341 341 341 341 339 338 339 340 339 338 336
352 353 353 352 352 352 352 352 352 351 351 352 352 351 351 350 351 352 354 355 355 356 356 357 357 355 353 349 345 344 343 341 341 341 341 340 339 339 340 340 338 336
353 352 352 353 352 352 352 352 352 352 352 352 352 352 351 351 351 352 354 355 355 356 356 357 357 354 352 349 346 346 344 342 341 341 341 340 339 339 339 340 338 336
353 353 352 353 352 352 352 352 352 352 352 353 352 352 352 351 351 352 354 355 355 355 356 357 356 354 351 349 347 347 346 344 343 342 342 341 340 340 339 339 338 336
353 353 353 353 353 352 353 352 353 353 353 353 353 352 352 351 351 352 353 355 355 355 356 356 356 354 351 349 348 348 348 347 345 344 343 343 342 341 340 339 339 337
353 353 353 353 353 353 353 353 353 353 353 353 353 353 352 352 352 352 353 354 354 354 355 355 355 353 351 349 348 348 348 348 347 345 344 343 343 342 340 339 339 338
353 354 353 353 353 353 353 353 353 353 353 353 353 353 353 352 352 353 353 353 354 354 354 354 354 353 351 350 349 348 348 348 348 346 344 343 343 342 341 339 338 338
353 354 354 354 354 354 354 353 353 354 353 353 354 353 353 353 353 353 353 353 353 353 353 353 353 352 351 351 350 349 349 348 348 347 344 343 343 343 341 339 338 338
353 354 354 354 354 354 354 354 354 354 354 354 354 353 354 353 353 353 353 353 353 353 353 353 352 352 351 351 350 349 349 349 348 347 344 343 343 343 341 340 339 338
353 354 354 354 354 354 354 354 354 354 354 354 354 354 354 353 353 353 353 353 353 353 353 353 352 351 351 351 350 349 349 348 347 346 344 343 342 342 342 341 340 339
354 354 354 354 355 354 354 355 354 355 354 355 355 354 354 354 353 353 353 353 353 353 353 352 352 351 351 350 350 349 348 348 347 346 345 343 342 342 341 341 341 340
354 354 354 354 354 354 355 355 355 355 355 355 355 355 354 354 354 354 353 353 353 353 352 352 351 351 351 350 349 349 348 347 347 346 345 344 342 342 341 341 341 340
355 355 355 355 355 354 355 355 355 355 355 355 355 355 355 354 354 354 353 353 352 352 352 351 351 351 351 351 350 349 348 348 348 347 346 345 344 342 342 342 341 340
355 355 356 356 355 355 355 355 355 355 355 356 355 355 355 355 355 354 353 353 353 352 352 351 351 351 351 351 350 350 349 348 348 347 346 346 345 344 343 342 342 340
355 355 356 356 356 356 356 356 356 355 355 355 355 355 355 355 355 354 354 353 353 352 352 351 351 351 351 351 350 350 350 349 348 348 347 346 345 344 343 343 342 340
355 356 356 356 356 356 356 356 356 356 356 356 355 355 355 355 355 354 354 354 353 353 352 352 352 352 351 351 351 350 350 350 349 348 347 346 346 345 343 343 341 340
355 356 356 356 356 356 356 356 356 356 356 356 356 356 355 355 355 354 354 354 354 353 353 352 352 352 351 351 351 351 351 350 349 348 347 347 346 345 344 343 341 341
356 356 356 356 356 356 357 357 356 357 356 356 356 356 355 355 355 355 354 354 354 353 353 353 353 352 352 352 351 352 351 351 350 348 347 347 345 345 344 343 342 341
356 356 356 357 356 357 357 357 357 357 357 357 356 356 356 355 355 355 355 354 354 354 353 353 353 353 352 353 352 352 352 351 350 348 347 346 345 345 344 344 343 342
356 357 357 357 357 357 357 357 357 357 357 357 357 356 356 356 355 355 355 354 354 354 354 354 353 353 353 353 353 353 352 351 350 348 347 346 345 345 345 344 343 342
356 357 357 357 357 357 357 357 357 357 357 357 357 356 356 356 355 355 355 355 354 354 354 354 353 353 353 353 353 353 352 351 350 349 347 346 345 345 345 344 344 343
356 357 357 357 358 357 357 357 357 357 358 357 357 357 356 356 356 355 355 355 355 355 354 354 353 353 353 353 353 353 353 352 351 348 346 346 345 344 344 344 343 342
356 357 357 357 358 358 358 358 358 357 358 357 357 357 357 356 356 355 355 355 354 354 354 354 353 353 353 353 353 353 353 352 351 349 347 346 346 344 344 343 342 341

ECMWFNIL_925_thetae_036.txt.gz
Theta_e
361 361 362 363 363 361 361 361 361 362 361 360 360 360 360 360 361 361 362 363 362 361 360 360 358 358 358 358 359 358 358 358 357 354 353 351 349 345 344 343 342 343
360 361 362 362 363 362 361 361 361 362 362 361 360 359 360 361 362 363 362 363 363 362 361 359 358 358 357 358 358 358 358 358 357 354 352 351 348 345 343 344 343 344
361 362 362 362 363 363 361 361 362 362 362 361 361 360 361 361 362 363 363 363 363 361 361 360 358 357 357 357 358 359 358 358 357 353 352 351 348 344 344 344 343 344
361 361 361 362 363 363 362 362 363 362 361 362 361 360 360 361 362 364 364 363 363 362 361 361 359 358 358 357 358 359 358 358 358 355 352 352 349 345 344 344 344 344
361 362 362 362 363 363 363 362 362 363 362 361 361 361 360 361 362 363 364 364 363 362 361 361 361 360 359 358 358 358 358 357 357 356 354 352 350 348 346 345 345 345
363 363 362 363 364 363 364 363 362 362 362 360 360 361 361 361 362 362 363 364 363 361 360 361 362 361 359 359 358 358 358 356 356 356 355 353 351 349 347 346 347 346
364 364 364 364 364 363 363 363 362 362 362 361 361 361 361 362 362 361 361 363 363 362 361 361 362 362 360 360 359 359 358 357 356 355 354 354 352 350 348 348 347 347
364 364 364 364 363 363 363 363 362 362 362 361 361 361 361 361 362 362 361 362 363 362 362 361 362 362 361 360 360 359 359 358 357 356 355 354 353 352 350 349 348 347
363 363 364 364 363 363 362 362 363 362 362 361 361 361 362 361 361 362 362 362 363 363 363 362 363 362 361 361 361 360 360 359 359 358 356 356 354 352 351 350 349 348
363 363 363 363 363 362 362 362 362 362 362 361 361 360 361 362 362 362 363 364 364 363 364 364 364 363 361 361 361 361 360 361 361 360 358 358 355 353 352 351 350 349
363 362 362 362 362 362 361 362 361 361 362 362 361 360 360 362 362 362 363 364 364 364 364 365 365 363 362 361 362 362 361 362 362 361 360 359 356 354 353 352 351 349
362 362 361 362 362 361 360 360 360 360 361 362 361 361 360 361 362 363 363 364 365 365 364 365 365 364 363 362 362 362 362 362 362 362 360 359 358 355 354 353 352 351
362 362 361 361 361 361 360 360 360 359 360 361 362 361 361 360 361 363 363 364 365 365 364 365 365 365 365 364 363 362 362 362 361 362 361 360 359 357 355 354 353 352
361 362 362 361 361 361 361 360 360 360 359 360 361 361 361 360 360 362 363 364 365 365 365 364 365 365 365 365 364 362 362 363 362 362 361 360 359 358 356 355 354 353
361 362 362 362 362 362 362 361 361 360 360 360 361 361 362 361 360 361 363 364 364 365 365 364 364 365 364 364 364 363 362 362 362 362 361 361 360 359 357 356 355 354
362 362 363 363 362 363 363 362 361 361 361 361 361 362 362 361 361 360 362 363 364 365 365 364 364 364 363 361 361 362 362 362 362 362 361 360 360 360 358 357 356 355
364 363 363 364 363 363 363 363 362 362 362 362 362 362 362 362 362 361 361 362 364 364 364 364 364 363 361 359 358 358 360 362 362 362 361 361 360 360 359 358 357 356
365 364 365 365 365 365 364 364 363 362 362 363 363 363 363 363 362 362 362 361 363 364 364 364 364 362 360 359 357 356 356 359 362 362 361 361 360 360 360 359 358 356
365 366 366 366 366 365 365 365 364 363 363 363 363 364 364 364 363 363 363 362 362 363 364 363 364 363 360 358 357 356 354 355 359 361 361 360 360 360 359 359 358 357
366 366 367 367 367 366 366 366 365 364 364 363 363 364 364 365 364 363 363 363 363 363 364 364 364 363 361 358 356 356 354 353 356 359 360 359 359 359 359 359 359 357
366 366 366 367 367 366 366 366 366 365 364 363 363 364 365 365 364 364 364 364 364 364 364 364 364 362 361 360 357 356 354 353 354 357 358 358 358 357 357 358 358 358
367 366 366 366 366 366 366 366 366 366 365 364 363 363 364 365 364 364 364 363 363 363 362 362 363 362 361 360 358 357 355 354 354 355 357 358 357 356 356 356 357 357
366 365 365 366 366 366 366 365 365 365 365 365 364 364 364 365 364 364 363 363 363 362 361 362 363 363 361 359 358 357 356 354 353 354 357 357 356 355 355 355 355 356
365 365 366 366 366 366 366 365 365 365 366 365 365 364 365 365 365 364 364 363 363 362 362 361 363 363 361 359 358 357 356 354 353 355 356 356 355 355 355 354 354 354
365 366 366 366 367 366 366 366 366 366 366 366 365 365 365 365 365 364 364 363 362 362 362 361 362 363 362 360 358 357 356 354 354 355 356 355 354 354 354 354 354 354
365 366 366 366 367 367 367 367 366 366 366 366 365 365 364 364 364 364 364 363 363 362 361 360 361 361 361 360 359 358 356 355 354 356 356 355 355 355 354 355 354 354

ECMWFNIL_925_thetae_039.txt.gz
Theta_e
364 364 363 362 362 361 360 362 365 365 363 361 361 361 360 359 358 357 356 359 362 363 362 361 363 363 362 361 361 361 360 359 357 357 355 351 350 351 351 347 343 344
364 365 366 364 364 363 362 362 363 364 363 361 359 358 361 360 359 359 357 358 362 363 362 361 362 363 363 361 361 361 361 361 359 356 355 352 350 352 351 348 345 344
365 366 366 364 364 364 364 363 362 363 363 363 360 359 359 360 360 361 360 359 361 362 362 361 361 362 362 360 360 361 361 361 360 357 355 353 351 352 351 347 345 345
365 365 365 364 363 364 365 364 363 363 363 363 362 360 358 359 361 362 362 362 362 362 361 361 361 361 361 360 360 361 361 361 360 358 356 353 351 351 351 346 346 346
365 365 365 364 364 363 364 364 364 363 364 363 362 362 360 359 360 362 363 363 363 363 361 361 361 361 361 361 359 360 361 360 359 358 356 353 351 352 351 347 346 346
365 365 364 364 363 363 364 366 365 364 364 362 363 363 362 361 362 362 363 364 364 363 360 360 361 360 361 362 361 360 360 358 357 357 356 354 353 353 351 348 347 347
365 366 364 364 364 364 365 367 366 365 365 364 362 362 363 362 362 362 362 363 363 363 360 359 361 361 360 361 362 360 360 358 357 356 356 354 353 354 353 349 348 348
365 366 366 365 363 364 365 366 366 367 365 364 364 363 363 363 363 364 363 363 364 363 362 360 361 362 361 362 363 362 360 359 358 357 357 355 354 354 354 351 349 349
366 366 365 365 363 364 365 364 365 367 367 365 364 363 364 364 363 364 364 364 363 364 364 362 362 363 363 362 363 363 362 361 360 359 359 357 356 355 355 354 351 351
366 365 364 364 363 362 363 363 362 366 367 366 364 361 362 364 364 364 365 365 364 364 364 364 363 364 364 363 363 364 364 362 361 361 360 359 357 356 357 356 353 352
366 365 364 364 363 361 362 361 361 363 365 365 365 361 359 362 364 365 365 366 366 364 364 365 365 365 365 364 363 363 365 364 363 362 361 360 359 358 358 357 354 353
367 366 366 364 364 361 360 360 360 360 362 364 365 363 359 360 364 365 366 366 367 366 365 366 366 366 367 365 363 363 364 364 363 362 362 361 361 360 359 358 356 354
366 366 366 365 364 363 361 360 359 358 359 362 364 365 362 359 361 365 366 366 367 368 366 366 366 366 367 367 364 362 363 365 364 363 363 363 362 361 359 358 356 356
365 367 367 365 364 364 362 360 360 359 358 360 363 365 364 360 359 362 365 367 367 368 368 367 367 368 367 367 366 363 362 364 365 363 363 364 364 362 360 359 357 356
366 367 367 367 365 364 363 361 361 360 359 360 362 364 364 362 358 359 364 366 368 369 369 367 367 368 368 367 367 365 363 363 364 364 362 362 363 363 361 360 358 357
367 366 368 367 366 365 365 365 363 362 361 360 361 363 363 364 362 359 361 365 367 369 370 369 368 368 367 365 365 366 365 363 364 364 362 361 363 363 362 360 359 358
368 367 368 369 367 366 367 367 366 363 363 362 361 362 364 364 364 362 360 363 366 368 369 370 370 368 366 365 364 364 365 365 365 364 364 363 362 363 363 362 361 359
370 369 370 370 369 369 368 369 367 365 364 364 363 363 365 365 365 365 362 362 365 367 369 370 369 367 365 365 364 362 362 364 365 364 364 364 363 363 363 363 362 360
371 370 371 371 371 370 369 370 369 367 366 366 365 366 365 365 366 366 365 364 364 366 368 369 369 369 366 364 363 362 360 362 364 364 364 364 364 363 363 364 363 361
372 371 371 371 373 372 371 371 370 369 368 366 366 367 366 367 367 366 367 365 364 365 366 369 369 368 367 365 362 361 359 359 361 363 364 364 365 364 363 364 363 362
372 373 371 372 373 373 372 371 371 370 369 367 367 367 367 368 368 368 367 366 366 366 366 367 368 367 368 366 363 361 360 359 360 363 363 364 365 365 364 363 363 363
373 373 373 373 373 373 372 371 371 371 370 367 366 366 367 368 368 368 368 367 368 367 365 366 367 367 367 366 365 362 360 359 360 361 362 363 365 365 365 364 363 363
373 373 373 374 374 374 372 372 371 372 371 369 367 366 368 368 369 369 369 368 368 367 367 367 366 366 366 366 365 364 362 360 360 361 362 362 363 364 364 364 364 363
373 374 374 373 375 374 373 372 372 372 371 370 367 367 367 368 368 369 369 368 368 367 368 367 366 366 366 366 365 364 363 361 359 361 362 362 363 364 364 364 363 362
373 373 374 373 373 374 373 372 372 372 372 370 369 368 367 367 367 368 368 368 368 367 367 366 366 367 366 365 364 364 363 361 360 361 362 362 362 363 363 363 362 361
373 374 374 373 373 374 373 372 372 372 372 371 371 369 368 367 367 367 368 368 367 367 366 365 366 367 366 366 365 363 362 361 361 361 362 362 362 362 363 363 361 361

ECMWFNIL_925_thetae_042.txt.gz
Theta_e
360 361 362 361 358 357 357 359 361 362 361 362 362 361 361 360 358 358 358 359 360 361 360 360 361 362 361 360 359 358 359 359 360 359 357 355 352 350 352 351 346 343
360 362 362 361 360 357 357 358 360 362 363 363 363 362 362 360 358 358 358 359 359 360 360 360 360 361 362 361 360 359 359 359 359 359 358 355 353 351 351 352 348 344
360 361 362 362 361 360 359 358 358 362 364 364 362 362 362 361 359 358 357 358 359 361 362 361 361 362 362 361 361 361 361 360 360 359 358 355 353 352 351 352 351 346
360 360 361 361 361 361 360 357 358 361 363 365 363 362 361 362 361 359 357 357 358 360 363 362 362 363 363 362 361 362 362 361 360 359 359 356 353 352 352 352 351 348
360 360 360 361 361 361 360 358 359 360 362 364 364 362 359 359 360 360 359 358 358 360 362 363 363 363 363 363 362 362 362 362 361 360 359 358 355 352 352 352 351 348
360 360 359 360 361 362 362 361 360 360 361 363 364 363 361 358 359 360 361 360 359 359 361 363 363 363 363 363 362 362 361 361 361 361 360 358 356 353 353 353 351 348
361 360 359 361 362 363 363 362 362 360 361 362 362 363 362 359 358 359 360 362 361 361 362 363 362 362 362 362 362 362 360 361 361 361 360 359 357 354 353 353 352 349
362 361 360 361 363 363 362 362 363 363 361 362 362 362 364 362 359 357 358 362 363 361 362 362 362 362 361 362 361 361 360 360 361 361 360 359 357 355 353 353 353 350
363 362 362 362 364 364 363 362 363 363 361 362 363 363 363 362 360 359 358 361 363 364 363 362 361 361 361 360 361 361 361 360 360 360 360 358 357 355 354 354 353 351
363 364 364 364 364 364 364 361 361 363 362 362 362 363 364 363 362 361 360 360 361 364 364 362 361 361 360 360 361 361 361 360 360 360 359 359 357 356 355 354 354 352
364 365 365 365 364 363 362 361 360 363 364 363 363 363 363 363 363 363 362 362 361 362 364 363 361 361 361 361 361 361 361 361 360 359 359 359 358 356 356 355 355 354
365 364 364 365 364 361 361 360 360 362 363 365 365 364 362 362 363 363 363 363 362 361 363 363 362 361 361 361 361 362 362 361 361 359 359 359 359 358 356 356 356 355
366 364 363 365 363 360 359 359 359 360 362 364 365 365 363 362 363 364 363 363 363 362 362 363 363 362 361 361 362 362 363 363 363 361 360 360 360 359 358 356 356 356
366 364 362 363 362 360 358 359 359 359 359 361 365 366 364 361 362 364 364 363 363 364 363 363 363 363 363 363 363 363 364 364 364 363 362 361 360 360 360 359 357 357
366 365 362 362 361 360 359 358 357 359 358 359 362 365 365 362 360 361 363 365 365 365 365 364 363 363 364 363 363 364 364 364 363 363 363 363 362 362 361 360 359 358
366 365 363 362 360 360 360 359 357 358 358 358 360 362 364 364 363 360 361 364 365 366 367 366 365 364 363 363 363 363 363 363 363 363 363 363 362 363 362 362 361 360
366 367 365 364 362 362 361 360 358 358 359 358 359 360 361 364 364 362 359 361 366 367 368 368 366 365 364 364 362 361 362 361 361 362 363 362 363 362 363 363 362 361
368 368 367 366 365 363 363 363 360 360 360 359 359 359 360 362 364 365 362 360 362 366 368 368 368 366 365 364 364 362 361 360 359 361 363 363 363 362 362 362 362 362
369 369 368 368 367 366 365 365 364 362 361 360 361 360 361 362 364 365 364 361 360 364 367 368 370 368 367 365 365 364 362 360 359 360 361 362 362 362 361 361 362 362
370 370 369 369 369 368 367 367 367 364 362 361 362 362 361 362 364 364 365 363 361 362 366 367 368 370 369 367 366 365 363 361 360 359 359 360 362 362 360 360 360 361
371 371 370 371 370 370 370 369 368 367 365 364 363 364 363 363 363 364 365 365 363 361 363 366 368 369 370 369 367 365 364 363 360 359 360 360 361 362 361 360 360 361
372 371 371 371 371 371 371 370 370 369 367 366 365 365 365 364 365 365 365 365 366 364 363 365 367 368 369 370 369 367 365 364 362 360 361 361 362 363 362 361 361 360
373 372 373 372 371 373 372 370 370 370 368 368 366 366 366 366 365 366 366 366 366 367 365 365 365 366 368 369 370 369 367 365 364 362 362 362 363 362 363 362 361 361
372 372 373 374 373 374 374 372 371 371 371 369 367 366 366 367 367 367 366 367 367 367 367 366 364 365 365 366 368 369 368 366 364 363 363 362 362 362 363 363 362 362
371 373 374 375 374 375 376 374 372 372 372 370 369 367 366 367 367 368 368 368 367 367 368 367 366 366 365 365 366 368 369 367 364 364 364 363 363 363 362 363 363 363
370 372 374 376 375 375 376 375 373 373 372 372 370 369 367 366 367 368 369 369 368 368 368 367 367 366 366 366 366 365 367 367 365 364 364 364 364 363 362 363 363 364

ECMWFNIL_925_thetae_045.txt.gz
Theta_e
356 356 357 358 357 357 357 357 356 355 356 357 357 357 357 357 356 356 356 357 357 357 359 361 362 362 361 360 360 359 359 359 358 358 357 356 354 349 346 346 347 347
356 356 356 357 358 358 358 358 358 356 356 357 357 357 358 358 357 357 357 358 358 358 359 360 361 361 361 361 360 359 358 358 358 358 357 356 355 351 348 347 347 346
357 357 356 357 357 357 358 359 359 358 356 357 357 357 358 359 359 359 358 357 358 359 359 360 360 360 360 361 361 359 358 358 358 358 358 357 355 353 349 348 346 343
357 357 357 356 356 356 356 358 359 359 357 357 358 359 358 358 359 360 359 358 358 359 360 359 359 359 360 360 361 360 358 358 358 358 359 357 356 355 351 349 348 342
357 357 357 356 356 356 356 356 357 359 359 358 358 359 360 360 359 359 359 358 358 359 359 359 358 359 360 360 360 360 359 358 359 358 359 358 356 355 351 350 350 346
357 357 357 357 357 357 356 356 355 357 359 360 359 360 361 361 360 359 359 359 358 359 359 359 359 359 360 360 360 360 360 358 358 358 359 358 357 355 352 350 351 351
358 357 357 357 357 357 357 357 356 356 357 360 361 361 361 362 363 361 359 359 359 359 360 359 359 359 359 361 361 361 361 359 359 359 358 358 358 356 354 351 350 351
358 357 357 357 358 358 358 357 357 356 356 358 360 361 362 361 362 362 361 359 358 359 360 359 360 360 360 361 362 362 362 361 360 360 359 359 359 358 355 353 351 350
358 358 357 357 358 358 358 358 358 357 356 357 358 360 362 361 361 361 361 360 358 358 359 360 360 360 361 361 362 362 362 361 361 360 360 359 359 359 357 354 353 352
359 359 358 358 358 358 358 358 358 358 357 357 357 358 361 362 361 360 360 361 360 359 359 359 360 360 361 361 361 361 361 361 361 360 359 359 358 358 358 355 353 352
360 359 358 358 358 358 358 358 359 359 358 357 358 358 359 361 362 361 359 360 361 360 359 358 359 360 361 361 361 361 360 360 360 359 359 359 358 357 357 356 354 353
361 360 359 359 358 358 358 358 358 359 359 359 358 359 359 360 361 362 360 359 360 360 360 359 359 360 360 361 361 361 360 360 359 358 358 359 359 358 357 356 355 353
362 361 360 359 358 358 358 358 358 359 359 360 359 359 360 360 361 362 361 360 359 359 360 361 360 360 361 361 361 361 360 360 359 358 358 358 359 359 357 356 355 354
362 361 360 360 359 358 357 358 358 358 358 359 360 360 360 360 361 361 361 361 360 358 359 360 361 361 361 361 361 361 360 360 360 359 358 358 358 359 359 357 356 355
362 361 361 360 359 359 358 358 358 358 357 358 359 360 359 359 359 360 362 362 361 360 359 360 361 362 362 361 361 361 360 360 360 360 359 359 358 359 359 359 357 356
362 361 360 361 360 359 359 358 358 358 357 357 358 359 358 358 358 359 361 361 362 362 361 360 361 362 363 362 361 360 360 360 360 361 360 360 359 359 359 359 358 357
362 362 361 360 360 361 360 359 358 358 357 356 357 359 360 359 359 359 360 361 362 362 362 362 361 361 362 363 362 361 360 360 360 361 361 361 360 359 359 358 359 358
364 362 362 361 360 361 361 360 358 357 357 356 357 359 360 360 360 360 359 361 362 362 362 363 362 361 361 361 362 362 361 360 360 361 361 361 361 361 360 359 359 359
365 364 363 362 361 360 360 361 359 357 357 357 357 358 360 361 361 361 360 360 361 363 362 362 363 362 362 361 361 362 361 360 360 360 361 361 362 361 361 360 360 359
367 366 364 363 363 361 360 361 360 358 357 357 357 357 359 361 362 362 362 361 360 362 363 363 363 363 363 362 362 361 361 361 361 360 361 361 362 361 361 361 360 360
368 366 365 365 364 363 362 361 360 360 358 357 357 357 358 360 361 362 363 362 361 361 362 363 363 363 364 363 363 362 362 362 361 361 361 360 361 361 361 361 360 360
368 367 366 366 365 364 364 362 361 361 360 358 357 357 358 358 359 361 361 362 363 362 361 362 362 363 364 364 364 364 363 363 362 361 361 360 360 360 360 360 360 360
368 368 366 367 366 366 365 364 363 362 362 360 359 358 358 359 358 359 360 361 363 363 362 362 361 362 364 365 365 365 365 364 363 362 361 361 360 359 359 359 360 360
368 368 368 367 367 367 367 366 365 364 364 363 361 360 359 359 359 359 360 360 362 363 363 362 362 361 362 364 366 367 366 366 364 362 362 361 361 361 360 359 359 359
368 368 368 368 367 367 368 368 367 366 366 365 364 363 361 360 361 361 361 362 362 362 363 363 363 362 361 362 364 366 367 367 365 363 362 362 362 361 361 360 360 360
369 369 369 368 368 368 368 369 368 368 368 367 367 366 364 363 363 363 364 364 363 363 363 364 365 364 364 363 364 364 367 367 366 364 363 363 363 362 362 362 361 360

ECMWFNIL_925_thetae_048.txt.gz
Theta_e
353 352 352 351 352 353 353 352 352 353 352 352 353 352 353 353 354 354 354 354 355 354 355 354 354 356 359 360 359 360 360 360 360 359 358 357 352 349 348 347 346 344
353 352 352 351 352 353 354 353 352 352 352 352 353 352 352 353 354 355 354 354 354 354 354 354 354 355 358 361 360 360 360 360 360 359 359 357 354 351 349 348 346 344
353 352 352 352 352 353 353 354 353 352 352 352 353 353 352 353 354 355 355 354 353 354 355 355 354 354 357 360 361 361 361 360 360 360 359 358 357 355 351 349 347 345
353 353 353 352 352 352 353 354 354 353 352 353 354 354 353 354 354 354 355 354 354 354 354 355 355 355 356 359 361 362 360 360 359 359 359 358 357 356 353 349 348 346
354 353 353 352 352 352 353 353 355 354 354 354 354 355 354 355 355 355 355 355 354 354 355 355 356 356 357 358 361 361 360 360 359 358 358 358 357 357 354 350 350 347
354 353 353 354 353 353 354 353 354 354 355 354 353 354 355 355 356 355 355 355 355 355 355 356 357 357 358 358 360 361 360 360 359 358 358 357 357 357 355 353 352 350
355 354 354 354 354 354 355 354 354 355 355 355 355 354 354 356 357 356 355 356 356 356 356 356 357 358 358 358 359 360 359 360 360 359 358 357 357 357 357 355 353 352
355 355 354 354 355 354 355 355 355 356 356 357 357 355 356 356 356 356 356 357 357 358 357 357 357 357 358 359 359 359 359 360 360 359 358 358 357 358 357 356 355 353
355 356 355 355 355 355 355 355 354 355 356 357 358 357 356 356 356 356 356 358 358 358 358 358 358 357 358 359 358 359 359 359 359 359 358 358 358 357 358 357 355 354
356 356 355 356 356 355 355 355 355 354 354 356 357 358 358 356 356 356 357 357 358 358 358 358 358 358 358 358 358 358 358 358 359 359 358 358 357 357 357 357 356 355
357 356 356 356 356 355 356 355 355 355 354 354 356 356 358 357 358 358 358 358 358 357 358 358 358 358 359 359 359 358 358 357 357 358 358 358 357 357 356 356 356 355
357 356 356 356 355 355 356 356 355 355 355 354 354 355 356 358 359 359 359 359 359 359 359 359 358 358 359 359 359 359 359 358 358 358 358 358 358 357 356 355 355 353
357 357 356 356 356 355 355 356 355 356 355 355 354 354 355 356 358 360 359 359 360 360 360 360 358 358 359 359 359 359 359 359 359 359 358 358 358 358 357 356 355 354
358 358 357 356 356 356 355 355 355 355 356 355 355 354 354 355 356 358 359 359 359 359 360 360 359 359 359 359 359 359 359 360 360 359 359 359 359 358 358 358 357 355
359 359 357 357 357 356 356 355 355 355 356 355 356 355 355 355 355 357 358 359 359 359 359 359 359 359 358 358 359 359 359 359 360 360 360 359 359 358 358 358 357 357
360 359 358 359 358 357 357 356 355 356 355 356 356 356 356 355 355 356 357 358 359 359 359 359 359 359 358 358 358 358 359 359 359 359 360 359 359 358 358 358 357 357
360 360 360 359 358 358 357 356 356 356 356 355 356 356 356 356 355 356 356 358 359 359 359 359 358 359 359 359 358 358 359 359 359 359 359 359 359 358 357 357 357 356
361 361 361 360 359 359 358 357 356 356 356 356 356 356 357 357 356 356 357 357 358 359 359 359 358 358 359 359 359 359 359 359 358 359 359 359 359 359 358 357 357 357
363 362 361 360 361 359 359 358 357 357 356 356 356 356 356 357 357 357 357 357 358 358 359 359 358 359 358 359 359 359 359 359 359 358 359 359 359 359 358 358 357 357
364 363 362 362 361 359 359 359 358 357 356 355 355 356 356 357 357 357 358 358 357 358 358 359 359 359 359 358 358 358 359 359 360 359 359 359 359 359 358 358 358 357
365 364 363 362 361 360 360 359 359 358 357 357 356 356 355 355 356 356 357 357 357 356 357 358 359 359 359 360 359 359 359 359 360 360 360 359 359 359 359 359 359 358
366 365 363 363 362 360 360 359 359 358 358 357 356 355 355 355 355 357 357 357 357 357 356 357 357 358 359 359 359 360 359 360 360 360 360 360 359 359 359 359 359 359
367 366 365 364 362 361 360 359 359 359 359 358 356 356 356 355 355 356 356 357 358 358 357 358 357 357 359 359 360 360 360 360 361 360 360 360 360 359 359 359 360 360
366 366 366 364 363 362 360 360 359 359 359 358 357 357 355 355 355 355 356 357 358 359 359 358 358 358 359 360 360 361 361 361 361 360 360 359 360 360 360 360 360 359
366 367 366 365 364 364 362 362 361 359 359 358 358 358 356 355 355 355 355 356 357 358 359 359 360 359 359 360 360 361 362 362 362 360 359 359 359 359 359 360 360 359
366 367 366 366 366 364 363 363 362 361 360 359 359 358 357 356 356 355 356 355 356 357 358 359 360 360 361 360 360 360 362 362 362 361 359 359 359 359 360 360 360 360

ECMWFNIL_925_thetae_051.txt.gz
Theta_e
352 353 352 352 352 351 351 351 350 350 349 349 350 351 351 351 352 352 352 352 352 353 352 351 350 350 350 351 355 357 358 358 358 358 358 358 358 357 356 354 352 350
353 353 353 352 351 352 351 351 350 350 349 349 348 349 350 351 352 352 351 352 352 352 353 352 351 350 351 351 353 356 358 358 359 359 359 358 358 358 357 356 353 350
353 353 352 352 352 352 351 351 351 351 350 349 348 348 348 350 351 353 352 352 352 352 353 352 351 351 352 351 352 354 357 358 358 359 359 359 359 359 358 356 354 350
353 353 353 352 352 352 351 352 352 351 351 350 349 348 348 350 351 352 352 353 352 353 353 353 352 352 352 352 353 353 355 358 359 358 359 359 359 359 359 357 354 351
354 354 353 352 352 351 351 351 351 351 352 351 350 351 350 350 351 352 352 352 352 353 353 353 352 352 352 352 353 353 354 356 358 358 359 359 359 359 358 358 356 355
354 353 353 352 352 351 351 351 351 351 352 352 351 352 351 351 351 351 352 352 351 352 353 353 353 352 352 353 353 354 354 355 357 358 360 360 359 359 358 358 357 356
353 353 353 353 352 351 351 350 351 351 352 352 352 351 352 351 351 351 351 352 351 351 352 353 353 353 353 354 354 355 355 355 356 358 360 361 359 358 358 358 357 357
353 353 353 353 352 351 351 351 351 351 351 353 353 352 352 352 351 351 351 352 352 352 353 353 353 353 353 354 354 355 356 357 357 358 360 360 360 359 358 358 357 357
353 353 352 352 352 352 352 351 351 351 351 352 352 353 352 352 352 351 352 354 353 353 354 353 353 353 353 354 354 355 356 357 357 358 359 360 359 359 359 357 357 356
353 353 352 353 352 352 352 352 352 352 351 352 352 353 353 353 353 353 352 353 354 354 354 354 354 353 354 354 354 355 355 356 357 357 358 359 359 359 358 358 357 357
353 353 352 353 353 352 353 352 352 352 352 353 352 353 353 353 353 354 354 354 354 354 355 354 354 355 354 355 355 355 355 355 356 357 357 358 358 358 358 357 357 357
353 353 353 353 353 353 353 352 352 352 352 353 353 353 353 353 354 355 354 354 354 354 355 355 355 355 355 355 356 356 356 356 356 357 357 357 357 357 357 358 357 356
354 354 354 353 354 353 353 353 353 353 352 353 353 352 354 354 355 355 355 355 355 354 355 355 355 355 355 355 356 357 357 357 356 357 357 357 357 357 357 357 357 356
354 355 354 354 354 354 353 354 353 353 353 353 352 352 353 353 354 354 355 355 355 355 355 355 355 355 355 355 356 356 357 357 357 357 357 357 357 357 357 357 356 356
355 355 355 355 354 354 354 354 353 354 354 353 353 353 352 352 353 354 355 355 355 355 356 356 355 355 355 355 355 356 357 357 357 357 357 357 358 357 357 357 357 356
356 356 356 356 355 355 354 355 354 354 354 354 353 353 352 353 352 353 353 354 355 356 356 356 356 355 355 355 355 355 356 357 357 357 357 357 358 357 358 357 356 356
356 356 356 356 355 355 355 355 355 354 354 354 354 354 353 353 353 352 352 353 354 355 355 356 356 356 356 356 356 356 356 357 357 358 358 357 358 357 358 357 357 357
357 356 356 356 356 355 355 355 354 354 354 354 354 354 354 353 353 353 353 353 353 354 355 356 356 355 356 356 357 357 357 358 358 357 357 358 357 358 357 357 357 357
358 357 357 357 357 356 355 355 354 355 354 354 354 354 354 354 354 354 353 353 353 353 354 354 355 355 355 356 356 356 357 357 357 358 357 357 358 357 357 358 357 357
359 358 358 358 358 357 357 356 355 355 354 354 354 354 353 354 354 354 354 354 354 353 353 354 354 355 355 356 356 356 357 357 358 357 357 357 357 357 357 357 357 357
359 359 358 359 359 358 358 357 357 356 355 355 354 354 354 354 354 354 354 354 354 354 354 354 354 354 355 355 355 356 356 357 357 357 357 357 357 357 357 357 357 357
360 360 360 359 359 359 358 358 357 357 356 356 355 355 354 354 354 354 354 354 355 355 354 355 354 354 354 355 355 356 356 357 357 357 357 357 357 357 357 357 357 357
362 361 360 360 360 359 359 359 358 358 357 357 356 355 355 355 355 354 354 354 355 355 355 355 354 355 355 355 356 356 357 358 358 357 357 357 357 357 357 357 358 357
363 362 361 361 361 360 360 359 359 359 358 357 357 356 356 355 355 354 354 354 354 354 354 355 355 355 355 355 356 356 357 357 357 357 357 356 357 357 357 357 357 358
364 364 363 363 362 361 361 360 360 359 359 358 357 357 356 356 355 355 355 354 354 354 354 354 355 355 355 355 355 355 356 356 357 357 357 357 357 357 357 357 357 358
365 365 364 364 364 362 362 361 361 360 360 359 358 358 357 356 356 355 355 354 354 354 354 354 354 355 355 355 355 355 355 356 356 357 357 356 357 356 357 357 357 358

ECMWFNIL_925_thetae_054.txt.gz
Theta_e
350 350 350 350 350 350 350 350 350 351 351 351 351 350 351 351 350 350 349 349 349 350 350 350 351 351 350 347 344 344 347 351 356 357 357 357 357 357 358 357 357 356
350 350 350 350 350 350 350 350 350 351 351 351 350 351 350 350 351 350 349 349 349 350 350 350 351 352 351 349 346 345 347 350 354 357 357 357 357 358 358 358 357 357
351 350 350 350 350 350 350 350 351 350 350 351 350 350 350 350 351 350 350 350 349 350 351 350 351 351 352 351 349 347 347 350 352 355 357 357 357 358 358 358 357 357
352 351 351 351 350 350 350 351 351 350 351 351 350 350 349 349 350 350 350 350 350 350 351 350 350 351 352 351 351 349 348 349 351 353 355 357 357 358 358 358 358 358
352 352 352 351 351 351 351 351 351 351 351 350 350 350 349 349 348 349 349 350 350 350 350 350 350 350 351 352 351 350 349 350 350 352 353 355 356 358 358 358 358 358
352 352 352 352 351 351 351 351 351 351 351 351 350 350 349 349 348 347 348 348 349 348 349 351 351 350 351 351 351 351 349 350 350 351 352 353 355 356 357 358 358 358
352 352 352 352 351 351 352 351 351 351 351 351 350 350 350 349 349 349 348 347 347 348 349 350 350 351 351 352 352 352 351 350 350 351 352 352 353 354 356 357 358 358
352 352 352 352 352 352 352 351 351 351 351 351 351 350 350 349 349 349 349 348 349 349 350 351 350 350 350 351 352 352 352 351 351 352 352 353 353 354 354 355 356 358
352 352 352 352 352 352 352 351 351 351 351 351 350 350 350 349 349 350 350 350 349 349 350 350 350 351 351 351 352 352 352 352 352 352 352 353 354 354 354 354 355 356
353 353 352 352 352 352 352 352 351 351 350 351 350 350 350 350 349 350 350 351 350 351 351 351 351 351 351 352 352 352 352 352 352 353 352 353 353 353 355 355 355 355
353 353 352 352 352 352 352 352 351 351 351 350 351 351 350 350 350 350 350 351 351 351 351 351 350 351 352 352 352 352 352 352 352 352 352 353 353 353 354 354 356 355
352 352 352 352 353 352 352 352 351 351 350 350 350 350 350 350 350 351 351 351 351 351 351 350 351 351 351 352 353 353 353 353 353 353 353 353 354 353 354 354 355 355
352 352 352 352 352 352 352 352 351 351 351 351 351 351 351 350 351 351 351 351 351 351 351 351 351 352 352 352 353 353 353 353 353 354 354 354 354 354 354 354 355 355
352 352 352 352 352 351 352 352 351 351 351 351 351 350 350 351 351 351 351 351 352 351 351 352 352 352 352 352 352 352 352 353 353 354 354 354 354 355 355 355 355 355
352 352 352 352 352 351 352 352 351 352 351 351 351 351 351 351 351 351 352 351 351 352 352 352 353 352 352 352 352 352 352 353 354 354 355 355 355 355 355 355 355 355
352 352 352 352 352 351 352 352 352 352 351 351 352 351 352 351 351 352 352 352 352 352 353 353 353 352 352 352 352 352 353 353 354 354 354 355 355 355 355 356 355 355
352 352 353 352 352 352 352 352 352 351 351 351 352 352 351 352 351 351 351 352 353 353 353 353 353 353 353 352 353 352 353 353 353 354 354 354 355 355 355 355 356 355
353 352 353 353 352 353 352 352 352 352 352 352 352 352 352 351 351 351 351 351 352 352 353 353 353 353 353 353 353 353 353 353 353 354 354 354 354 354 355 355 355 355
353 353 353 353 353 353 353 353 352 353 353 353 352 352 352 352 352 351 352 352 351 351 352 353 352 353 353 353 353 353 353 354 354 354 354 354 354 354 354 355 355 355
354 354 354 354 354 354 353 353 353 353 353 353 353 353 352 352 352 352 352 352 351 352 351 351 352 352 352 352 352 353 353 353 354 354 354 355 354 355 355 355 355 356
355 354 355 354 354 354 355 354 354 354 354 353 353 353 353 353 353 353 353 352 352 352 352 351 351 351 351 351 351 352 353 353 354 354 355 355 355 356 355 356 356 356
355 355 355 355 355 355 354 354 355 354 354 354 353 353 353 353 353 353 353 353 353 352 352 352 352 351 351 351 351 352 352 353 354 354 355 355 355 355 355 356 356 356
356 356 356 356 356 356 355 355 355 355 355 354 354 354 354 353 353 353 353 353 353 353 352 352 353 352 352 351 352 352 352 353 354 354 354 354 354 355 355 354 355 356
357 357 357 357 356 356 356 356 355 355 355 355 354 354 353 354 354 353 353 353 353 353 353 352 353 352 352 352 352 352 353 352 353 353 354 354 354 354 355 354 355 355
357 357 358 357 357 357 356 357 356 356 356 356 355 355 355 354 354 354 354 353 353 353 353 353 353 353 353 352 352 353 353 353 353 353 353 354 354 354 354 355 355 355
358 359 358 358 358 358 358 357 357 357 357 356 356 356 355 355 355 354 354 354 353 354 353 353 353 353 353 354 353 353 353 353 354 353 353 353 354 354 354 354 354 355

ECMWFNIL_925_thetae_057.txt.gz
Theta_e
351 350 348 349 349 349 350 349 349 349 349 350 350 348 347 346 347 349 349 349 349 349 349 349 349 349 349 350 350 350 349 349 351 350 350 356 358 357 358 358 357 357
351 351 350 350 350 349 349 349 348 349 348 348 349 348 347 346 347 348 349 349 349 349 349 348 349 349 349 350 350 351 350 350 352 351 349 353 358 358 358 358 358 357
352 352 351 351 351 349 350 350 348 348 348 348 348 347 347 348 348 349 349 349 349 349 349 348 348 348 349 350 350 351 352 352 354 352 348 350 356 358 358 358 358 358
352 352 352 352 352 351 351 351 349 349 349 349 348 348 349 349 349 350 349 349 350 349 349 349 348 349 349 350 350 351 352 353 353 351 349 350 353 355 357 357 358 358
352 352 352 352 353 352 351 351 350 350 350 350 349 349 349 349 350 350 350 350 350 349 350 349 349 349 349 350 350 350 352 354 354 352 350 351 352 353 355 356 356 357
353 352 352 353 353 353 352 351 351 350 350 350 350 349 350 350 350 350 350 350 350 350 350 350 349 350 350 350 350 351 352 354 357 355 351 350 352 353 354 353 353 355
354 353 353 353 354 353 352 352 351 351 350 351 350 350 350 350 350 350 350 349 349 350 351 350 349 349 350 351 350 351 351 353 355 356 354 352 351 352 352 351 351 353
354 354 353 353 354 353 353 353 352 351 351 351 351 350 350 350 350 350 350 350 350 350 349 348 348 348 349 350 350 350 351 352 353 354 355 355 352 351 351 351 351 352
355 355 354 354 354 354 354 353 353 352 351 351 351 351 351 350 350 350 350 349 349 349 348 348 348 348 348 349 349 349 350 352 353 353 354 355 354 352 352 353 353 353
355 355 355 354 355 354 354 354 354 354 353 352 352 352 352 351 350 350 350 350 349 349 349 348 348 349 349 349 349 349 350 350 351 352 352 353 353 353 353 355 355 354
356 355 355 355 355 354 354 354 354 354 354 353 353 353 353 352 351 350 350 350 350 349 349 348 348 349 349 350 350 350 350 350 351 351 351 351 352 352 353 354 355 355
355 355 355 355 355 354 354 354 354 354 354 353 353 353 353 353 352 351 351 350 350 349 349 348 348 349 350 350 351 351 351 351 352 351 351 351 351 352 353 354 355 354
356 355 355 355 355 355 355 354 354 354 354 353 353 353 354 354 353 353 352 350 350 350 349 349 348 349 350 350 351 352 351 351 352 353 353 352 352 352 354 356 355 354
355 356 355 355 355 355 355 355 354 354 354 354 354 353 354 354 354 354 353 352 351 350 350 350 349 349 350 350 350 351 352 352 352 353 354 355 354 353 354 355 355 356
356 356 356 356 355 355 355 355 354 354 354 354 354 354 354 354 354 354 354 354 353 352 352 352 352 352 351 351 350 351 352 353 354 354 354 354 354 354 354 354 354 356
356 356 356 356 355 354 354 354 355 355 354 354 354 354 354 354 354 355 355 355 354 354 354 354 354 353 351 350 350 351 352 354 355 354 353 353 354 354 354 355 355 356
356 355 355 355 354 354 354 353 354 355 355 355 354 354 354 354 355 355 354 355 355 355 355 355 355 353 351 349 349 349 352 354 356 355 353 354 355 355 355 356 357 357
356 355 355 355 354 354 354 353 354 355 355 355 355 354 354 354 355 355 354 355 355 355 355 356 355 353 350 349 349 349 350 352 355 357 357 356 357 357 357 357 358 358
356 356 356 355 354 354 354 354 354 355 355 355 355 355 355 355 354 355 355 355 355 356 356 356 356 354 352 350 349 349 350 351 353 356 357 358 358 358 358 358 358 358
355 356 355 355 354 353 354 355 355 355 355 355 355 355 356 355 355 355 355 356 355 356 356 356 356 355 353 351 350 350 350 351 352 354 357 358 358 358 358 358 357 358
355 356 356 356 355 354 355 355 356 356 356 355 355 356 356 356 355 355 356 356 355 355 356 356 356 354 353 352 351 350 351 351 352 353 355 357 358 358 358 357 357 358
356 356 357 356 356 355 356 356 356 356 356 355 356 356 356 356 356 356 356 356 356 355 355 356 355 354 353 352 351 351 351 352 352 352 354 356 357 357 357 357 357 357
357 356 357 357 357 357 357 357 357 356 356 356 356 356 357 357 357 356 356 356 356 356 356 356 355 354 353 352 352 351 351 351 352 352 353 354 356 356 357 357 356 356
357 357 357 358 358 358 358 358 358 357 357 356 356 357 357 357 357 357 357 357 357 356 356 356 356 355 354 353 352 352 351 351 351 352 353 354 355 355 356 356 356 355
357 358 358 358 359 359 358 358 358 357 358 357 357 357 357 357 358 357 357 358 357 357 356 356 356 356 355 354 353 352 352 351 351 352 353 355 355 355 356 356 356 355
357 358 358 359 359 359 358 358 358 358 358 358 358 358 358 358 358 358 358 358 358 358 356 356 356 356 356 355 354 353 352 352 351 352 354 355 355 356 357 357 357 357

ECMWFNIL_925_thetae_060.txt.gz
Theta_e
356 356 356 355 356 353 352 354 353 353 353 353 353 355 355 356 356 355 356 359 360 359 359 358 357 356 356 357 357 357 357 357 357 355 356 358 359 360 360 360 360 360
356 356 356 356 356 355 354 354 354 353 354 354 352 353 356 358 358 357 358 359 359 358 358 358 358 357 357 357 358 358 358 359 358 356 356 358 358 359 359 359 359 359
357 357 357 356 356 356 355 354 356 354 354 354 354 353 355 357 358 359 359 358 358 357 357 358 358 358 357 357 358 358 358 360 359 356 357 358 357 358 358 358 358 359
358 358 358 357 356 356 355 354 356 356 353 354 354 354 354 356 358 359 359 358 357 357 358 358 358 357 358 358 358 358 358 359 360 358 359 359 358 358 357 358 358 357
359 358 358 358 356 356 357 356 356 356 354 353 354 355 355 356 357 358 359 359 358 357 357 358 359 357 358 359 358 357 357 357 358 360 361 361 359 358 357 357 358 357
359 359 359 359 358 357 358 357 356 356 355 354 354 355 356 357 358 357 357 359 358 357 356 356 358 357 357 358 359 358 357 356 357 359 361 361 359 357 356 357 358 359
361 360 360 359 359 358 358 358 357 357 357 356 356 356 356 358 359 358 357 358 358 357 357 355 357 358 357 357 359 359 359 358 358 359 360 361 360 359 357 357 359 361
360 361 360 360 359 358 358 359 359 358 358 357 356 357 357 358 359 358 357 357 358 358 358 358 358 360 358 356 358 360 359 358 358 359 361 360 361 361 361 359 360 362
360 360 360 359 359 358 358 359 359 358 357 357 357 357 358 358 357 358 358 358 359 359 359 360 359 360 360 357 358 360 361 358 358 359 361 361 361 361 361 360 361 362
360 360 360 360 359 358 358 358 358 358 358 358 357 357 358 358 358 357 358 359 360 360 360 360 361 361 360 358 359 359 361 359 359 360 361 361 360 360 361 360 360 362
360 360 359 360 359 358 358 357 357 357 358 359 358 357 357 358 359 358 359 360 361 360 360 361 361 361 360 358 357 359 359 359 359 360 361 361 360 360 360 360 360 361
360 360 360 360 359 358 357 357 357 356 357 358 358 358 357 358 359 359 358 360 361 361 361 361 362 361 360 358 356 357 359 358 358 359 361 361 361 360 360 360 361 361
360 360 359 359 359 358 357 357 357 356 356 358 359 358 357 356 357 359 359 360 361 362 360 361 362 362 361 360 358 357 358 359 358 358 359 360 360 359 358 358 360 361
360 360 360 360 360 360 358 357 358 356 357 358 359 358 358 356 356 358 360 360 361 361 361 361 362 362 362 362 360 358 357 359 359 358 357 358 359 359 358 357 358 359
360 360 361 360 361 361 360 360 359 358 357 358 360 359 358 356 356 356 359 360 361 361 361 361 361 362 362 361 362 361 358 357 359 359 358 357 358 359 359 359 359 357
361 361 362 361 361 361 361 361 359 360 359 359 360 360 359 358 358 357 358 359 360 361 361 361 360 361 361 359 359 359 360 358 358 359 359 359 359 360 359 359 358 357
362 362 362 363 362 363 362 361 360 360 360 360 360 360 360 359 359 359 358 358 360 361 361 361 361 360 359 357 354 353 356 360 360 359 361 361 361 360 360 358 357 357
362 363 363 363 363 363 364 363 361 361 361 361 361 361 361 361 361 360 360 358 360 360 360 361 361 360 358 356 352 348 348 355 359 360 360 361 362 362 361 360 358 359
363 364 364 364 365 364 365 364 363 362 361 361 361 361 362 362 362 361 361 361 360 360 360 361 360 360 359 356 353 349 344 347 354 357 359 360 361 361 362 362 361 361
364 365 365 365 365 365 365 365 363 362 362 362 362 362 362 362 362 362 362 362 361 360 360 360 360 360 359 358 354 351 347 346 350 355 358 358 360 362 362 363 363 363
365 365 365 365 366 365 364 365 364 364 363 361 361 362 363 363 362 362 362 363 362 362 361 361 361 359 359 359 356 354 351 350 351 354 357 358 359 361 362 363 364 364
364 365 366 365 365 365 364 365 364 364 364 362 362 362 362 363 363 363 363 363 362 362 361 361 361 359 359 358 357 355 354 353 352 354 356 358 359 360 362 363 364 364
364 364 365 365 365 365 364 364 364 364 364 363 362 362 362 363 363 363 362 362 362 362 362 362 361 360 359 357 356 356 355 354 354 355 357 359 359 360 362 362 364 364
364 364 364 364 364 364 364 364 364 364 365 364 362 362 362 362 363 363 363 362 362 363 363 362 362 361 359 358 356 355 354 354 355 357 358 359 360 360 361 362 363 362
364 364 364 364 364 364 364 364 365 364 364 364 363 362 362 362 362 362 363 363 362 362 362 362 362 362 361 358 357 355 354 354 356 358 359 360 360 361 362 362 362 361
364 364 364 363 365 365 364 364 365 365 365 364 363 363 362 362 362 362 362 363 362 362 362 361 361 362 361 360 358 357 355 354 356 359 359 360 360 361 361 362 363 363

ECMWFNIL_925_thetae_063.txt.gz
Theta_e
357 357 355 353 352 349 349 352 352 351 348 345 347 351 352 353 352 351 351 354 358 359 358 359 360 360 359 358 359 359 358 357 357 356 356 359 360 361 362 361 360 360
359 358 357 354 354 352 350 351 351 351 351 347 343 347 351 353 354 353 352 353 356 358 358 358 360 360 359 357 358 360 360 360 359 355 355 357 358 358 361 360 361 361
361 360 359 357 355 355 352 350 351 352 351 350 347 344 348 352 354 356 356 354 354 355 357 358 358 360 360 358 357 359 359 360 359 356 354 356 357 357 358 359 359 360
362 361 361 358 354 354 353 351 352 353 351 351 350 347 345 349 352 356 357 356 355 355 355 357 357 357 358 359 359 358 358 359 360 358 356 357 357 357 356 357 358 358
362 361 361 359 355 354 354 352 351 352 352 350 351 350 348 348 351 354 357 359 358 356 355 355 357 356 357 359 359 359 358 356 358 359 359 359 358 357 355 356 357 358
361 362 361 360 357 354 354 354 352 353 353 351 350 352 351 350 351 353 356 359 359 356 354 354 357 357 356 358 359 359 357 355 355 358 361 361 359 356 354 354 356 358
361 362 362 361 358 355 355 357 356 354 355 353 351 352 352 353 354 354 355 357 357 355 352 352 354 356 356 357 359 360 359 357 355 356 359 361 360 358 355 354 355 357
361 363 363 362 360 358 357 357 358 357 356 354 353 352 352 354 356 357 355 356 357 356 354 353 354 356 356 355 357 360 360 359 356 356 359 361 361 360 359 356 355 357
362 363 364 363 360 359 358 357 357 358 357 356 354 353 353 355 356 358 358 357 357 356 357 356 355 357 358 356 357 358 360 358 357 356 359 360 360 361 360 358 357 357
363 364 363 361 360 359 358 356 356 358 357 357 355 353 354 356 357 359 359 359 358 357 359 359 358 359 360 358 357 358 359 360 359 357 358 360 360 359 359 358 357 358
363 363 362 362 360 359 358 356 356 357 357 358 357 355 353 355 358 359 360 361 361 358 359 361 361 361 361 359 357 357 358 360 360 359 358 359 360 359 358 357 356 357
362 361 361 361 360 357 357 357 356 355 357 359 359 356 354 354 358 360 359 361 362 360 360 361 362 362 362 360 356 356 358 358 359 359 359 360 361 360 359 358 357 356
362 360 361 360 361 358 356 356 356 353 353 357 358 357 355 353 355 360 360 360 363 362 361 361 362 362 363 362 359 354 356 358 358 359 360 360 361 360 357 355 355 356
361 361 359 359 359 358 356 356 355 353 351 354 356 357 356 354 354 358 359 360 362 363 362 362 363 362 362 364 361 356 355 356 357 358 358 359 359 358 355 353 352 352
361 360 359 360 360 358 357 356 355 354 353 352 355 357 356 354 352 354 358 360 360 363 363 362 363 363 363 364 363 360 355 353 356 358 357 356 357 356 355 354 352 351
362 361 360 360 360 361 359 357 356 355 355 354 355 357 356 356 354 352 355 359 360 362 363 362 362 363 363 362 362 361 359 354 353 356 357 356 355 356 355 354 353 351
363 362 362 361 361 362 361 360 358 357 355 355 355 358 357 358 355 353 353 355 358 361 363 362 361 361 362 362 359 359 359 358 354 354 357 358 356 356 356 355 353 352
364 364 364 362 362 363 363 362 360 358 357 357 356 358 360 360 359 357 355 353 355 359 361 362 361 360 360 361 359 355 355 358 357 354 356 358 358 357 357 357 355 352
366 365 365 365 364 366 367 365 363 360 359 360 359 360 363 363 361 359 358 357 355 356 359 360 360 361 359 359 359 355 352 353 356 357 354 355 358 358 358 358 358 357
367 367 367 367 368 368 368 368 365 363 362 361 361 363 364 365 364 361 361 361 360 358 359 360 360 360 360 359 358 357 353 350 353 357 356 355 356 358 359 360 360 360
369 368 368 369 369 369 370 368 367 366 364 362 363 364 365 366 365 364 363 364 362 361 360 361 360 359 360 361 359 358 356 353 353 356 358 356 356 359 360 362 362 362
369 369 370 371 371 370 370 370 368 367 366 365 363 363 365 367 366 365 365 365 365 363 361 361 361 359 360 361 360 359 358 356 356 357 358 359 359 359 361 362 363 364
370 370 371 371 371 371 371 370 369 369 368 366 365 364 365 366 367 366 365 365 366 365 364 362 361 360 360 361 360 361 359 358 357 358 360 360 360 361 361 362 363 364
370 370 371 371 371 371 370 370 370 370 369 367 366 366 365 365 366 366 365 365 366 366 367 364 361 360 360 360 360 360 359 358 358 359 361 361 361 362 362 362 363 363
370 371 371 371 372 371 370 371 370 370 370 368 367 366 365 364 365 366 366 366 365 365 366 365 363 361 360 360 359 359 358 358 359 360 361 361 362 363 363 364 365 364
371 371 371 371 372 371 371 371 371 370 370 370 367 366 364 363 364 365 366 366 365 365 365 365 364 362 362 361 360 360 358 358 359 361 362 362 364 364 363 364 366 365

ECMWFNIL_925_thetae_066.txt.gz
Theta_e
344 344 343 343 342 342 345 350 350 349 350 351 353 354 353 351 350 351 352 354 356 357 358 357 358 359 359 359 359 358 357 357 357 357 357 359 361 360 360 359 358 358
346 345 344 344 344 342 343 349 352 351 350 349 349 351 352 351 350 350 350 352 355 357 359 359 359 359 360 360 359 359 359 359 358 357 356 356 358 358 359 359 359 360
349 347 345 345 345 345 344 346 350 351 351 348 345 345 349 351 352 351 351 351 354 357 360 359 360 360 361 360 359 359 359 361 360 359 356 355 357 358 358 358 358 359
352 350 347 346 346 345 344 344 347 350 351 349 346 344 345 349 352 353 352 352 353 356 358 358 358 360 360 360 359 359 359 359 360 360 358 356 356 357 358 357 357 357
355 353 350 348 347 347 345 343 346 348 349 350 349 346 343 345 350 354 353 353 353 354 355 356 357 358 360 360 359 359 359 359 359 360 359 357 357 358 358 356 356 357
358 355 353 351 349 349 347 345 345 348 348 349 349 349 346 343 346 352 354 355 355 355 354 355 356 358 359 359 359 360 359 359 358 359 358 358 358 359 357 356 355 356
360 358 355 355 353 351 350 350 348 347 348 348 348 350 349 345 344 348 353 356 356 357 356 354 356 357 358 358 358 359 360 359 357 357 357 358 359 360 357 355 354 355
362 360 357 357 356 353 352 352 351 349 348 349 349 349 350 350 346 346 350 354 357 358 357 355 354 355 356 358 359 359 359 359 357 356 357 357 359 361 359 357 355 354
363 362 360 359 359 357 354 353 353 351 349 349 350 349 349 350 350 348 349 351 355 358 358 356 354 354 356 357 358 359 360 359 358 356 357 358 360 362 361 359 357 356
364 363 361 361 360 359 356 354 354 353 350 350 350 351 350 350 351 352 351 351 353 357 358 356 354 354 355 356 357 358 359 360 359 358 356 357 359 361 362 361 360 357
363 361 361 361 360 358 356 354 354 354 353 351 351 351 350 350 351 353 354 353 353 355 357 357 354 354 355 356 357 357 358 359 359 359 357 357 358 359 361 360 360 358
362 361 361 361 359 357 356 353 353 353 355 354 353 352 351 350 351 353 354 357 356 355 356 357 356 355 355 356 357 357 357 358 359 360 358 358 358 359 360 360 359 358
361 361 361 361 359 357 355 355 353 352 355 356 355 355 352 350 352 354 355 357 358 357 357 356 356 356 357 356 358 357 357 357 359 360 360 359 358 359 360 360 358 358
361 360 360 361 360 358 355 355 354 353 353 355 356 356 354 350 351 355 356 358 360 360 359 358 358 358 359 359 359 358 357 357 357 359 360 360 359 359 359 360 360 359
361 361 362 361 361 358 357 356 355 353 353 355 356 356 355 353 350 354 357 358 360 361 361 360 359 360 360 360 359 358 357 356 356 357 358 358 360 360 359 360 359 357
362 362 362 362 361 359 358 357 356 354 354 354 357 357 356 356 352 351 356 359 360 362 363 362 360 360 361 360 359 358 355 355 355 356 357 357 358 359 359 359 359 355
363 363 362 361 362 361 360 358 357 357 356 355 356 357 358 357 355 352 353 357 359 361 362 362 361 361 362 360 359 358 356 353 353 355 356 356 357 358 358 357 357 355
364 363 362 362 362 362 361 359 357 357 357 355 354 356 357 357 356 355 352 355 359 360 362 363 363 361 361 361 360 359 357 354 352 353 354 356 356 356 356 356 355 354
364 364 363 361 362 363 362 361 359 358 358 357 354 355 356 357 357 356 354 353 356 359 360 361 363 362 360 361 361 359 358 356 354 353 353 353 354 355 355 356 354 353
364 364 364 363 363 363 363 362 360 358 358 357 356 355 356 358 358 357 356 354 354 356 359 360 361 362 361 361 360 360 359 356 355 355 355 353 353 354 356 355 355 354
366 365 365 364 363 363 364 363 360 359 359 358 357 355 356 358 358 358 358 356 354 355 357 359 360 361 362 361 360 360 360 358 356 356 357 355 353 354 356 357 357 356
367 366 365 366 364 364 365 364 362 361 359 358 358 356 357 358 360 359 359 358 357 356 356 357 358 359 361 361 360 360 359 359 358 356 356 356 355 356 357 357 357 358
368 367 367 366 366 365 365 365 364 362 360 360 358 357 358 359 360 361 361 360 360 358 357 358 357 358 359 359 360 359 359 359 359 358 357 356 355 356 358 359 359 359
368 368 368 368 367 367 366 366 365 364 362 361 360 359 360 360 362 363 363 362 362 360 360 358 357 359 359 358 359 359 359 359 359 359 358 357 356 356 357 358 359 360
369 369 369 369 368 367 367 367 366 365 363 362 360 361 362 362 363 364 365 364 362 362 362 361 359 359 358 358 360 359 360 359 359 360 360 360 359 358 358 356 357 358
370 370 370 369 369 369 369 370 369 367 365 363 362 361 361 363 365 365 366 365 363 362 363 364 362 361 359 359 359 359 360 360 359 360 361 360 361 360 360 359 358 356

ECMWFNIL_925_thetae_069.txt.gz
Theta_e
344 345 349 350 346 343 342 340 342 344 345 348 352 353 353 353 352 353 355 356 354 354 356 357 357 356 356 355 354 355 356 355 356 357 356 356 358 359 359 359 359 357
345 345 346 348 346 344 341 339 340 342 344 345 346 349 352 353 352 353 353 354 354 353 353 356 357 356 356 356 354 354 355 356 356 358 357 356 356 358 359 359 359 359
345 346 345 345 344 343 343 341 338 340 342 344 345 346 347 350 351 352 354 353 353 353 353 354 356 357 356 357 356 353 353 354 354 355 357 356 355 357 357 357 358 358
345 344 344 343 342 341 344 345 343 341 341 343 347 347 345 346 347 348 351 353 353 353 353 353 355 357 357 357 357 356 354 353 351 352 355 356 356 355 356 356 357 357
346 345 343 343 341 340 342 345 346 345 343 342 346 349 349 347 345 344 348 352 353 352 352 354 356 358 358 356 358 359 357 355 354 353 355 357 356 355 355 356 356 357
348 346 344 343 341 340 341 343 346 346 346 345 345 348 350 349 348 346 346 350 353 352 353 354 356 357 358 357 357 358 357 357 358 357 356 356 355 355 356 356 356 356
350 348 345 344 342 342 341 341 342 345 347 347 347 347 347 349 350 349 348 349 351 353 353 355 356 356 357 357 357 357 357 357 358 358 358 356 353 354 356 357 356 355
351 349 347 345 343 342 342 340 341 343 344 347 349 348 347 345 346 348 351 350 349 352 354 354 357 356 355 357 358 357 357 356 358 358 358 356 354 353 355 358 358 356
352 351 348 347 344 343 342 341 340 340 342 345 346 348 348 347 343 344 350 353 351 350 352 353 356 355 354 355 356 357 357 356 357 357 358 358 355 353 354 355 357 357
356 354 351 349 347 344 343 343 342 341 341 343 344 345 348 349 347 343 347 352 353 352 352 353 354 355 354 355 355 356 356 356 356 356 357 358 356 355 354 353 354 354
358 357 354 351 350 347 345 345 343 343 342 342 344 345 346 348 349 346 345 349 353 354 354 352 353 354 354 355 356 356 356 356 356 355 355 356 357 356 355 354 353 352
360 358 357 354 352 350 349 347 346 346 345 344 344 346 346 347 349 349 347 346 349 353 355 355 354 355 354 355 355 356 356 356 356 355 354 355 356 355 355 356 355 354
362 360 358 356 354 353 351 350 349 349 348 347 346 346 348 347 348 349 349 347 347 350 354 355 356 356 355 354 355 355 356 356 356 356 355 355 356 356 355 355 355 355
363 361 359 357 356 354 353 352 351 350 350 350 348 347 347 348 348 349 350 349 349 348 350 355 356 357 356 354 354 355 356 356 357 357 356 356 357 357 356 356 355 355
362 362 361 359 357 355 355 354 352 351 350 351 350 349 348 348 348 349 350 350 351 350 349 352 355 357 357 355 354 355 355 356 357 358 357 356 357 357 357 357 356 356
362 362 361 360 359 356 356 355 355 353 351 351 351 350 348 348 348 349 351 351 353 353 352 352 353 355 356 356 355 354 355 355 356 357 357 358 358 357 358 357 357 357
363 362 361 360 360 359 357 357 355 354 352 352 353 352 350 349 349 349 351 351 352 355 355 355 355 355 355 356 356 355 354 355 356 357 357 358 358 358 358 358 356 357
362 362 361 360 360 359 358 357 355 353 352 351 352 354 352 352 351 350 351 351 352 354 356 357 356 355 356 355 355 355 355 356 357 358 357 357 357 358 358 357 357 357
363 361 361 360 360 359 358 356 356 354 353 352 353 355 355 354 353 351 351 353 354 354 356 358 358 358 357 357 357 356 356 356 357 357 357 357 357 357 357 357 357 357
363 361 361 361 360 360 359 357 356 355 354 353 352 354 355 355 355 353 351 353 355 356 356 358 359 358 358 359 358 357 356 356 357 357 356 356 356 356 355 356 356 357
364 362 361 361 360 360 360 359 357 356 355 354 353 354 356 355 355 355 353 353 355 357 358 358 360 359 359 359 359 359 357 358 358 358 356 355 355 355 355 355 354 355
363 362 362 362 361 362 361 360 358 357 356 356 355 354 356 357 356 356 356 355 355 357 358 358 359 360 359 359 358 359 359 359 359 358 357 355 355 354 354 354 354 354
364 364 362 362 362 361 362 361 360 358 357 357 356 355 356 357 357 357 357 356 355 356 357 358 359 359 359 360 360 359 360 360 360 360 359 357 355 354 354 353 353 353
363 365 362 362 363 362 362 362 361 360 359 357 357 357 355 356 357 358 357 357 355 355 356 358 359 360 360 360 359 359 360 360 360 360 360 358 357 356 356 356 356 355
363 365 363 363 363 362 362 362 363 361 360 358 358 357 356 356 357 357 357 357 356 355 355 355 357 359 359 359 359 360 360 360 360 360 360 359 358 357 356 356 357 358
363 366 364 364 364 363 362 362 363 362 361 359 358 357 357 357 356 357 357 357 357 357 356 355 355 355 356 359 358 360 360 360 359 359 359 360 359 358 357 356 355 355

ECMWFNIL_925_thetae_072.txt.gz
Theta_e
348 347 346 346 346 344 344 345 344 346 348 350 352 351 351 354 355 355 354 354 355 355 353 353 354 355 355 355 355 355 355 355 353 354 355 355 354 355 357 357 357 355
347 346 345 346 345 343 345 346 345 344 345 347 349 349 350 352 354 355 355 355 355 354 353 354 355 354 353 354 354 355 355 355 354 354 355 356 355 356 357 358 358 357
346 345 345 346 344 343 345 347 346 346 344 345 347 348 350 351 352 353 353 354 354 354 353 355 356 355 354 355 354 354 355 355 355 355 356 356 355 356 358 358 359 358
346 345 345 346 344 342 344 346 345 345 344 344 346 348 349 349 351 351 352 352 353 354 353 353 355 356 356 355 354 354 354 355 356 355 356 356 356 355 356 357 358 358
345 344 344 346 346 343 343 344 344 343 344 344 345 347 349 349 350 351 352 351 352 353 353 352 353 355 356 356 355 354 352 353 354 355 356 356 356 355 354 355 356 357
346 344 344 345 347 346 344 344 343 342 342 343 344 345 347 349 350 351 352 352 352 353 353 352 352 353 354 356 356 355 353 351 350 352 354 353 354 355 355 355 355 356
347 345 344 344 346 347 346 344 342 341 341 342 343 343 344 346 346 347 350 352 352 352 353 353 353 352 352 354 355 356 355 353 351 352 352 350 352 355 356 355 354 355
347 346 344 344 344 346 347 345 343 340 338 339 340 340 341 340 339 339 343 347 349 350 351 352 353 352 352 352 355 356 356 355 355 355 354 352 352 355 356 355 354 354
348 347 345 344 344 344 345 345 344 342 339 339 338 339 339 338 336 336 339 343 344 345 347 350 353 352 351 352 354 356 357 356 356 357 356 355 355 355 354 353 354 354
349 348 346 345 344 344 343 343 343 343 343 342 341 341 341 339 338 339 342 344 344 343 344 347 351 352 352 352 352 354 355 355 355 356 356 356 356 355 354 353 353 353
351 350 348 347 345 344 343 342 342 342 342 344 343 344 343 342 341 342 345 347 347 346 345 345 349 350 351 352 352 353 354 353 354 354 354 354 354 354 355 355 354 353
352 351 350 348 347 345 343 342 341 341 340 342 343 345 345 344 344 344 346 347 348 349 348 347 347 349 350 352 353 354 354 354 353 353 354 353 352 351 354 356 356 354
353 352 351 350 349 347 345 343 342 341 340 340 341 343 344 345 346 346 345 345 346 347 348 349 349 349 350 351 353 354 355 354 353 353 354 353 352 350 351 355 356 356
356 354 352 351 350 348 347 345 343 342 341 340 340 340 342 343 345 346 346 345 344 343 345 347 350 350 350 350 352 353 355 354 354 353 353 354 353 351 350 351 354 354
358 357 355 354 352 350 349 347 345 343 342 341 340 340 340 341 342 343 345 346 346 344 344 346 350 351 351 350 350 351 353 354 354 354 355 354 354 353 352 350 350 351
360 360 358 357 355 354 352 349 347 346 343 342 342 341 340 341 342 342 344 345 347 346 345 346 349 351 351 351 350 350 351 353 355 355 355 355 354 354 354 352 350 351
361 361 360 360 358 357 355 353 351 349 346 345 344 343 342 342 342 343 344 345 346 347 346 347 348 350 350 350 350 350 351 352 354 355 356 356 356 355 355 354 353 352
362 362 362 361 360 359 357 355 354 352 350 348 347 346 345 344 344 344 344 345 346 347 347 347 348 348 349 350 350 350 352 353 353 355 356 356 356 356 355 355 354 353
363 363 362 361 361 360 359 357 356 354 352 351 349 348 347 347 346 346 345 345 346 347 348 348 348 348 348 349 349 350 352 354 354 354 355 355 356 356 355 355 355 355
364 363 363 362 362 361 360 359 357 355 354 353 351 350 349 349 348 347 347 346 346 347 349 349 349 348 348 348 349 349 351 353 355 355 354 355 355 355 355 355 356 356
363 363 362 362 362 361 361 359 358 357 355 354 353 352 350 350 350 349 348 347 347 347 348 349 350 349 350 349 349 349 350 352 355 356 355 355 355 354 355 355 355 355
362 362 362 362 362 361 361 360 359 358 357 355 354 353 352 351 351 350 350 348 348 348 348 349 350 350 351 351 350 350 350 352 354 355 355 355 355 355 355 355 355 355
361 360 361 362 362 361 360 360 359 359 358 356 355 353 353 352 351 352 351 350 349 348 348 349 350 350 351 352 352 351 352 353 354 355 356 356 356 356 355 355 355 356
359 359 359 361 362 361 361 360 359 359 358 357 356 355 353 352 352 352 352 352 351 350 350 350 350 351 352 352 352 352 353 354 355 355 356 356 356 356 356 355 355 355
358 358 358 360 361 361 361 360 360 359 359 357 356 355 354 353 352 352 353 353 353 352 351 351 352 352 352 353 353 353 354 355 356 356 356 357 357 357 357 356 356 355
357 357 357 359 361 361 361 361 360 360 359 358 357 356 355 354 353 353 353 353 354 353 353 352 352 353 354 354 354 354 355 356 357 357 357 357 357 358 357 357 356 356

ECMWFNIL_925_thetae_075.txt.gz
Theta_e
348 348 346 345 346 346 348 349 349 349 348 349 350 350 350 347 347 351 354 353 353 354 355 354 353 353 354 355 356 356 355 355 354 354 355 354 354 354 355 356 354 353
348 348 346 346 346 347 347 348 348 347 347 348 349 349 348 347 347 350 353 354 353 353 354 354 353 352 353 355 356 355 354 354 354 355 356 356 356 355 354 354 355 355
348 348 347 346 346 346 346 346 347 347 346 346 348 349 348 346 347 349 352 354 354 354 353 354 353 352 351 354 355 355 355 354 354 354 355 355 355 355 355 354 355 356
348 348 347 346 346 345 346 346 346 346 346 346 347 348 347 346 347 348 351 353 353 353 354 353 354 352 352 353 354 354 354 354 354 354 354 354 355 355 355 355 356 358
349 347 346 346 347 347 347 346 345 346 345 345 345 345 346 346 347 347 349 352 353 353 353 354 354 353 353 354 355 354 354 354 354 354 354 354 355 355 355 355 356 356
349 348 347 346 347 347 347 346 345 345 344 344 344 344 344 344 346 347 348 350 351 352 353 353 353 353 353 354 355 355 354 355 355 354 354 354 354 355 355 355 355 355
349 349 347 347 347 347 346 345 345 345 342 343 344 344 344 343 345 346 348 348 349 350 351 351 352 352 353 353 354 355 356 355 355 355 355 354 354 355 354 355 354 354
348 348 347 346 346 347 346 344 344 343 343 344 345 345 344 344 343 345 347 348 348 349 349 349 351 351 352 352 352 354 354 355 355 355 355 355 354 354 354 353 354 354
348 348 347 346 346 345 346 345 344 343 343 345 346 346 346 344 343 344 346 348 348 348 349 349 350 350 352 353 352 352 353 353 355 354 355 355 354 352 351 351 351 353
348 348 347 346 345 345 346 346 344 343 343 344 345 345 344 343 343 344 345 347 348 348 349 349 349 350 351 351 352 352 352 352 352 353 353 355 354 352 351 350 350 351
349 348 347 346 345 344 344 345 345 344 344 344 343 343 343 343 344 345 346 347 347 348 347 347 346 348 349 350 349 350 352 352 351 351 352 353 354 353 353 352 352 351
349 348 347 347 346 344 344 344 344 344 344 345 343 343 342 341 343 344 345 345 345 344 343 340 340 343 345 345 345 348 351 352 352 352 352 352 353 353 352 352 352 351
350 349 348 347 347 346 344 343 343 343 344 345 345 344 343 342 341 341 341 342 342 340 337 335 336 340 343 342 343 345 349 352 352 352 352 352 353 353 353 353 353 351
351 350 349 348 348 346 345 344 343 343 342 343 343 344 344 343 342 341 339 340 339 338 336 334 335 340 344 344 343 345 347 350 351 351 351 352 352 353 353 353 353 353
352 351 350 349 349 348 347 345 344 343 342 342 342 342 343 344 343 343 342 341 341 340 339 338 338 339 342 345 346 346 347 348 349 350 350 351 352 353 353 353 352 353
353 353 352 351 350 349 348 347 346 345 343 341 342 341 341 341 342 343 344 344 343 343 342 341 341 341 340 342 344 347 348 348 349 350 351 350 352 351 352 351 351 351
354 354 353 352 351 350 349 349 347 346 344 343 342 341 341 340 340 341 342 343 344 344 344 344 343 342 341 340 341 344 347 349 349 350 351 351 352 351 351 350 349 350
355 354 354 354 353 352 351 350 349 348 347 346 344 342 342 341 340 339 340 340 342 343 343 344 344 342 342 342 341 341 343 346 349 350 350 351 351 351 350 350 350 350
356 356 355 355 355 354 352 351 351 350 348 347 346 345 343 341 341 341 340 340 340 341 342 343 343 343 342 342 342 342 342 344 348 349 350 351 351 350 350 350 351 351
357 358 357 357 357 355 355 354 352 352 351 349 348 347 345 344 343 342 341 340 340 340 340 341 342 342 342 342 342 342 343 344 346 348 350 350 351 351 351 351 351 352
358 358 358 358 358 357 357 356 355 354 353 352 351 350 348 346 345 344 343 342 341 341 341 341 341 341 342 342 342 343 343 345 346 348 350 351 351 351 352 352 352 352
359 360 359 359 359 359 358 358 358 357 355 354 354 352 351 349 348 346 346 344 343 343 342 342 342 342 342 342 343 343 344 345 346 348 350 350 351 351 352 352 352 353
360 360 360 360 359 360 360 359 359 358 357 357 356 354 353 352 351 349 348 347 346 346 345 344 344 344 344 343 343 344 345 346 347 348 349 350 350 351 351 352 352 353
361 361 360 361 361 361 360 360 360 360 359 358 357 356 355 354 353 352 350 349 349 347 347 346 346 346 345 345 344 345 346 347 347 347 349 350 350 350 351 352 353 353
360 361 361 361 361 362 361 361 361 360 360 359 358 358 357 356 354 353 352 351 350 349 349 348 347 347 347 346 346 346 346 347 349 348 349 349 349 350 350 352 352 352
358 359 360 360 360 361 361 362 361 361 360 360 359 358 357 357 355 354 353 352 351 351 350 349 349 348 348 347 347 347 347 347 349 349 349 349 350 351 351 351 352 353

ECMWFNIL_925_thetae_078.txt.gz
Theta_e
348 346 346 346 345 345 345 346 347 348 348 348 348 348 348 348 348 348 349 349 350 350 351 353 353 354 352 353 354 354 355 354 355 355 354 354 354 353 353 354 354 355
348 347 346 346 346 346 345 345 346 347 348 348 348 347 348 348 348 348 348 349 351 351 352 353 353 354 353 352 353 353 354 354 354 354 353 353 354 354 354 354 354 355
349 348 347 346 346 346 345 345 345 347 347 347 348 348 348 348 347 348 347 348 350 351 352 352 352 354 354 353 352 352 353 354 354 354 353 353 354 354 355 355 355 355
349 349 347 346 346 345 345 345 344 345 347 347 348 347 347 347 347 348 347 347 348 350 353 353 352 353 354 354 353 352 352 353 354 354 353 354 354 354 354 355 355 355
348 349 348 347 346 346 346 345 344 345 346 347 347 347 347 346 346 348 348 347 346 347 351 352 353 353 353 354 354 353 353 353 354 354 354 353 353 353 353 354 355 355
348 348 348 347 347 346 346 345 344 344 345 346 346 347 347 346 345 346 348 347 346 346 348 350 352 353 353 353 354 354 353 353 354 354 354 353 353 353 352 354 354 354
348 348 348 347 347 347 346 346 344 344 344 346 346 346 346 346 346 345 346 347 347 346 347 348 350 352 353 353 353 353 353 353 354 354 354 354 354 353 353 353 354 354
348 348 348 347 347 347 347 346 345 344 344 345 345 344 344 345 345 345 345 345 345 346 346 347 348 350 351 351 352 352 352 352 353 354 354 354 354 354 353 353 353 353
349 349 348 348 347 346 346 346 345 344 344 344 343 343 344 345 344 344 344 344 344 345 345 346 348 348 349 350 350 351 351 351 352 352 353 354 354 354 353 353 353 353
349 349 348 348 347 346 346 345 344 343 344 344 344 345 346 345 345 343 343 343 344 344 344 345 347 347 347 348 349 350 351 351 351 351 352 352 352 352 352 352 352 352
349 348 348 348 347 347 346 345 344 344 344 345 345 346 346 345 344 343 343 343 344 344 344 344 345 347 347 346 346 347 349 350 351 351 351 352 351 351 351 350 351 350
349 348 348 348 347 347 346 346 345 344 344 344 344 345 345 344 344 343 343 344 344 345 344 343 344 346 346 346 345 345 346 347 349 350 350 351 351 351 350 350 350 349
348 348 348 348 347 347 346 346 345 345 344 344 344 344 344 344 343 343 343 344 345 345 345 344 344 345 346 346 346 345 345 344 345 347 348 348 348 349 350 350 349 349
349 348 347 348 347 347 346 346 345 345 344 344 344 344 344 343 343 343 343 344 344 344 344 344 345 346 346 346 346 345 343 340 339 342 344 345 345 347 349 349 349 349
348 348 348 348 347 347 347 346 346 345 344 344 343 343 343 343 343 343 343 343 343 343 342 343 345 346 345 345 345 344 341 337 336 339 342 344 344 346 348 348 348 348
349 349 348 348 348 347 347 346 346 345 344 344 343 343 343 343 343 343 343 343 342 342 342 342 342 343 342 342 341 340 339 337 336 338 341 343 345 347 348 348 348 348
350 349 349 349 348 348 348 347 347 346 345 344 343 342 342 342 343 343 343 343 343 342 342 342 341 341 340 339 338 338 338 338 338 338 341 343 346 347 348 348 348 349
350 350 350 350 349 349 348 348 347 346 346 345 344 343 342 342 342 342 342 343 343 343 343 342 342 341 340 339 339 338 338 339 339 340 342 343 344 346 347 347 348 349
351 351 351 351 351 350 350 349 348 347 347 346 345 344 343 342 342 341 341 341 341 342 342 342 342 341 340 340 340 339 339 340 340 342 343 344 344 345 346 347 347 348
352 352 352 352 352 351 351 350 349 348 348 347 346 345 344 343 342 341 341 341 340 340 341 340 341 340 339 340 339 339 340 340 341 342 343 344 345 345 345 346 346 347
353 352 352 352 353 352 352 351 351 350 349 349 348 347 346 345 344 343 342 341 341 340 340 339 340 339 339 339 339 339 339 340 341 342 343 344 344 345 345 345 345 346
353 352 353 353 353 353 352 352 352 351 351 350 349 348 348 347 345 345 344 343 342 341 340 340 340 340 340 340 339 339 339 340 341 342 343 343 343 344 345 345 345 346
353 353 353 354 354 354 354 353 353 353 352 351 351 350 349 349 348 347 346 345 344 343 342 342 342 342 342 341 340 340 339 340 341 341 342 343 343 343 344 344 345 345
354 354 354 355 355 355 355 355 355 354 354 353 353 352 351 350 350 349 348 347 346 345 344 344 344 345 344 343 342 341 340 340 341 341 342 342 343 343 344 344 345 345
354 356 356 356 357 357 356 356 356 356 356 355 354 354 353 353 352 351 350 349 349 348 347 347 347 347 347 346 345 343 342 341 341 341 342 342 343 343 344 345 346 346
355 357 358 358 358 357 357 358 357 357 357 357 357 356 355 355 354 354 353 352 352 351 350 349 349 349 349 348 348 346 344 343 342 342 342 343 343 344 345 346 346 346

ECMWFNIL_925_thetae_081.txt.gz
Theta_e
350 349 349 348 347 347 346 346 345 345 346 347 348 348 348 348 348 349 348 347 347 347 347 349 351 352 353 354 354 354 354 354 355 355 354 354 354 356 357 357 358 358
349 349 349 349 348 347 346 345 344 345 345 346 347 347 347 347 348 348 348 347 347 347 347 348 351 352 353 354 353 353 353 353 354 355 354 353 353 355 357 358 358 358
349 349 349 348 348 347 346 345 345 344 345 345 346 347 347 348 347 348 348 348 348 348 347 348 350 352 353 353 353 352 352 352 353 355 353 353 353 355 357 358 359 359
350 349 349 349 348 347 346 345 345 345 345 345 345 346 347 347 348 348 348 349 349 349 348 348 350 352 352 353 353 353 352 351 352 353 353 353 353 354 356 357 358 359
350 350 349 349 348 348 347 346 345 345 345 345 345 345 346 347 347 348 348 348 348 349 349 349 349 352 352 353 353 354 353 353 353 351 352 354 353 354 356 355 355 357
350 349 349 349 348 348 348 347 346 345 345 345 346 345 345 346 347 347 347 347 347 348 349 349 349 350 352 353 353 353 354 355 355 352 350 354 354 355 356 354 353 355
350 350 349 349 349 348 348 348 347 346 345 345 345 345 345 345 346 347 347 347 346 346 348 349 348 348 350 352 353 353 353 354 354 352 352 354 355 355 356 354 353 354
351 351 350 349 349 349 348 348 347 346 345 345 345 344 344 344 345 346 347 347 347 346 346 347 347 347 348 350 352 352 353 354 354 353 353 354 354 354 355 355 354 354
351 351 350 349 350 350 349 349 348 346 345 344 344 345 344 343 344 346 346 346 346 345 345 345 345 346 347 348 349 350 352 354 354 353 353 354 355 355 355 355 355 355
352 352 351 350 350 350 349 349 348 348 346 344 344 345 345 343 343 344 346 346 345 344 344 344 344 344 345 346 347 348 350 352 352 352 351 353 354 354 355 355 354 355
352 352 351 351 350 350 349 349 349 349 347 345 345 346 345 344 342 343 344 344 343 344 344 343 343 343 343 344 344 345 347 348 349 349 349 350 352 352 353 353 353 354
352 352 352 351 350 350 350 349 349 349 348 346 345 346 346 345 343 343 342 342 342 343 344 343 341 341 342 343 343 344 345 346 347 346 347 347 348 349 350 350 351 352
352 352 352 352 351 350 350 349 349 349 348 347 346 345 346 346 345 344 341 341 342 343 344 342 341 341 341 342 343 344 344 345 345 345 346 346 345 346 347 348 348 349
352 352 352 352 351 350 350 349 349 349 348 348 346 345 345 345 345 345 342 340 342 344 344 343 342 341 341 341 342 343 343 343 344 345 346 348 347 345 345 346 346 346
352 352 352 352 351 350 349 349 349 349 348 348 347 346 346 345 345 345 344 342 342 342 343 343 343 342 341 341 341 343 343 343 344 344 345 347 347 345 344 342 341 343
352 352 351 352 351 349 349 349 349 349 349 348 348 347 346 346 345 345 345 344 343 343 343 343 343 343 341 340 340 342 342 343 344 343 344 345 344 343 343 341 340 342
352 351 350 351 350 349 349 349 349 349 349 348 348 347 347 346 345 345 345 345 345 345 345 345 344 342 340 339 340 341 342 343 343 343 343 344 343 341 341 341 342 342
351 351 350 350 349 349 349 348 348 349 349 348 347 347 347 346 346 346 346 345 345 346 346 346 344 342 340 339 340 341 342 342 343 344 345 344 343 341 339 340 342 345
350 351 351 349 349 349 349 349 349 349 349 348 348 348 347 346 346 347 346 346 346 346 346 346 345 342 341 340 341 341 341 342 343 345 346 346 344 341 340 339 341 343
351 352 352 351 350 350 350 350 350 350 349 349 349 348 348 346 346 346 346 346 346 346 346 346 346 344 342 341 341 341 341 342 341 343 346 347 344 341 341 340 339 341
353 353 354 354 353 352 352 352 351 350 350 350 350 350 349 347 347 347 346 346 345 346 346 346 346 345 343 342 341 341 341 341 341 342 345 347 345 342 341 340 339 340
353 353 353 353 354 354 354 354 353 352 351 351 351 350 350 349 348 347 347 346 345 345 346 346 346 345 344 343 342 341 341 341 342 341 343 345 345 342 341 340 340 341
352 352 352 352 352 352 353 354 355 354 353 352 352 351 351 350 349 349 348 347 347 346 345 345 345 345 344 343 342 342 341 341 342 341 342 343 343 342 341 340 340 341
351 351 351 352 351 351 352 353 353 354 354 354 353 353 352 352 351 350 350 349 348 347 347 346 346 346 345 344 343 342 341 341 341 341 341 342 342 341 341 340 340 340
351 351 352 353 352 351 351 352 351 353 354 353 353 354 354 353 353 352 352 351 350 349 348 347 347 347 346 346 345 343 342 340 340 341 342 342 342 343 343 341 341 340
351 352 352 353 354 352 351 352 351 351 352 352 353 353 353 353 354 353 354 353 352 351 350 349 349 349 348 348 347 345 344 342 340 341 342 342 343 344 345 345 343 342

ECMWFNIL_925_thetae_084.txt.gz
Theta_e
356 356 356 356 355 353 353 353 353 353 354 354 354 355 356 357 358 358 358 358 358 358 360 361 361 361 362 363 363 362 362 362 360 360 362 362 360 358 358 358 358 358
356 356 356 356 355 355 354 354 353 353 353 354 353 353 356 358 358 358 357 358 358 357 358 360 360 360 360 361 362 361 362 363 360 359 361 362 360 359 359 358 359 359
356 356 356 355 354 354 354 353 354 354 353 353 353 353 355 356 357 357 357 356 356 356 357 358 358 358 359 360 361 361 361 361 359 358 361 362 360 359 359 358 358 359
357 355 355 354 353 354 354 353 353 354 352 351 352 352 352 353 354 356 357 357 356 355 356 357 357 357 358 359 360 359 359 360 359 359 361 362 361 360 360 359 358 359
357 356 355 354 353 353 354 353 353 353 352 350 352 352 353 355 355 354 355 356 357 356 355 356 357 356 356 358 359 358 358 358 358 359 360 361 361 360 359 359 360 359
358 357 355 354 355 353 354 354 353 353 351 350 351 351 353 356 355 353 353 355 354 353 353 354 355 355 355 357 358 358 358 356 356 359 359 359 359 359 358 358 360 360
358 358 356 355 355 354 354 354 353 353 351 350 350 351 351 354 354 353 353 354 353 351 352 352 354 355 354 356 358 358 359 358 357 359 359 358 357 358 358 357 358 359
358 358 358 356 355 354 354 354 353 353 353 351 351 351 352 352 352 352 353 353 352 352 353 353 355 356 354 354 356 357 358 358 357 359 360 358 357 357 358 357 357 358
358 357 358 357 355 354 353 353 352 353 353 353 351 350 351 351 350 350 352 355 354 353 355 355 355 356 354 353 355 357 358 357 355 356 358 358 357 357 357 356 357 357
358 357 357 357 355 353 353 351 350 351 353 353 351 349 349 350 351 349 351 355 356 354 355 356 355 356 355 353 355 357 357 357 356 357 358 358 356 356 356 356 356 356
358 357 356 356 354 353 352 351 349 348 350 352 352 349 347 348 351 351 350 354 357 355 354 356 356 356 356 354 353 355 356 355 356 357 358 358 358 357 357 357 357 356
357 357 356 356 355 353 352 352 350 348 348 350 351 350 347 347 350 352 351 353 356 354 353 355 356 355 357 356 353 353 354 354 353 355 357 357 357 357 357 357 357 357
357 357 356 355 355 355 353 352 351 350 348 350 351 351 349 347 347 350 352 352 354 354 351 353 356 356 356 357 354 352 354 355 353 352 354 354 354 353 352 352 352 353
356 356 356 356 356 356 355 353 352 351 350 350 351 351 350 347 346 348 351 351 352 352 351 350 354 356 357 358 357 353 353 355 354 352 351 351 352 352 350 349 348 348
356 355 356 357 357 357 357 356 354 353 353 352 352 352 351 349 348 346 348 350 350 351 351 350 351 353 355 356 357 356 353 352 353 352 350 349 350 351 350 350 349 346
356 356 357 357 358 358 358 358 356 354 354 353 353 354 352 352 351 349 348 348 350 351 351 351 349 349 352 353 353 354 354 352 352 352 353 352 351 351 351 350 349 347
357 357 357 358 358 359 360 359 357 356 355 355 355 355 354 354 353 352 350 348 349 350 351 351 349 347 349 348 344 344 347 352 353 353 354 355 353 353 353 351 349 348
358 359 358 358 359 360 360 360 359 357 356 356 356 356 356 355 354 354 353 351 349 349 350 350 350 348 348 347 342 337 336 342 349 351 352 354 354 354 353 352 350 348
357 359 359 358 359 360 360 360 360 358 357 356 356 356 356 356 356 355 354 353 352 351 350 350 350 350 350 348 345 340 335 336 342 346 347 349 351 353 353 353 353 351
357 359 359 359 359 360 360 360 359 359 358 356 355 355 356 357 357 355 355 355 354 353 352 352 351 351 350 349 348 345 342 339 341 344 346 346 348 351 352 353 354 354
356 356 357 359 359 359 360 360 359 358 358 356 354 354 355 356 356 356 356 355 355 355 354 353 352 351 350 350 349 348 346 344 343 345 346 347 347 349 351 353 354 354
356 356 357 358 358 359 359 360 359 358 358 357 355 354 354 354 355 356 355 355 355 355 355 354 354 353 351 350 349 348 347 346 344 345 347 348 348 349 351 352 353 354
356 357 358 358 358 358 358 359 359 358 358 358 357 355 354 353 354 355 355 355 355 355 355 355 355 354 352 351 350 349 348 346 345 346 348 349 349 349 350 351 354 355
354 355 356 356 357 357 357 358 359 358 359 358 357 356 356 355 354 354 355 355 354 354 355 354 355 355 353 352 351 350 348 347 346 347 349 350 350 350 351 351 352 353
353 355 355 355 355 356 356 357 357 358 358 358 358 357 357 357 356 355 355 354 353 353 354 354 355 355 354 352 351 350 349 347 347 348 350 350 351 351 352 352 353 352
351 353 354 355 356 356 356 356 357 357 358 358 358 357 357 357 357 356 355 354 351 351 353 354 355 355 354 353 352 351 350 348 347 349 351 351 352 352 352 353 353 354

ECMWFNIL_925_thetae_087.txt.gz
Theta_e
354 354 355 355 354 351 350 351 352 353 355 356 355 355 357 357 358 358 358 359 359 359 363 364 363 363 363 362 362 362 362 359 357 359 361 361 360 358 358 358 357 357
356 355 355 356 354 353 352 351 351 351 353 355 354 353 356 356 357 358 358 360 359 357 360 362 362 362 362 361 361 363 363 362 360 358 360 362 360 358 358 357 358 359
357 356 356 355 353 353 352 350 351 351 351 352 353 353 355 356 357 357 357 358 358 356 358 359 360 361 361 360 363 363 361 362 361 356 359 363 361 358 357 356 356 358
358 356 356 354 351 351 351 350 351 352 350 350 351 352 352 354 355 357 357 358 357 356 357 357 357 358 358 360 363 362 359 361 362 357 358 361 360 359 358 357 356 357
359 356 355 354 351 350 351 350 349 350 349 349 349 350 351 352 354 355 357 357 357 356 355 356 357 357 357 358 360 360 358 358 358 356 356 356 359 360 358 358 359 359
360 358 356 354 352 350 350 350 350 349 349 348 348 348 349 352 353 354 355 356 356 354 353 354 355 355 355 356 358 359 358 356 355 356 355 355 359 358 355 358 361 361
360 360 358 355 353 352 351 350 350 350 348 347 347 347 348 350 353 355 354 354 354 353 352 351 353 353 353 354 356 358 358 357 356 357 358 358 359 356 353 358 361 361
358 359 358 356 353 351 351 351 351 351 349 347 346 347 348 348 351 353 353 353 354 353 352 351 352 354 354 352 354 356 358 357 355 357 359 359 358 357 355 358 359 359
357 358 358 356 352 350 350 349 349 350 350 349 347 346 348 348 349 350 350 353 354 353 353 352 352 354 355 353 353 354 356 357 354 354 356 357 357 356 356 356 356 356
357 356 357 355 352 351 349 347 346 347 349 351 348 344 345 347 348 348 348 351 354 354 353 354 354 355 356 354 353 354 356 357 356 354 354 355 355 354 354 354 354 355
358 356 355 355 353 351 349 347 344 344 346 348 348 345 343 344 347 348 348 350 354 354 354 354 355 356 356 355 353 354 355 356 355 355 355 355 355 354 354 354 354 354
358 356 355 354 354 351 349 348 345 343 343 346 348 346 343 343 345 347 348 349 352 354 354 354 355 356 356 356 354 352 353 354 354 354 354 355 355 355 354 354 354 354
358 357 355 353 353 352 349 348 347 344 343 343 345 346 345 343 343 345 347 348 351 353 353 353 354 355 355 356 356 353 352 353 353 352 353 353 353 352 352 351 351 352
357 356 356 354 353 354 351 348 347 346 345 344 344 345 345 343 341 342 346 348 349 351 352 351 352 355 355 356 357 356 353 352 352 353 352 351 350 350 349 348 347 347
358 357 356 356 355 355 353 351 349 348 347 346 345 345 346 344 342 341 343 345 347 349 351 349 348 350 354 355 357 357 355 351 351 353 353 349 348 348 348 347 345 344
359 358 358 357 358 357 357 355 352 350 349 348 348 347 346 346 344 342 342 343 345 348 350 349 346 345 348 352 354 356 356 352 350 351 353 351 348 347 347 346 345 343
360 360 359 359 359 359 359 360 358 354 352 351 351 349 349 349 348 347 344 342 344 346 348 347 345 343 343 347 350 352 354 353 351 350 351 351 351 349 348 347 345 344
359 360 360 360 360 360 361 362 361 358 355 354 354 353 352 352 352 351 349 346 345 344 345 345 344 343 342 344 346 348 348 348 349 349 349 350 351 351 351 349 347 345
358 360 360 358 359 361 363 363 363 362 359 356 355 355 355 355 355 355 354 352 350 347 346 345 345 344 344 344 344 345 344 343 344 344 344 345 348 349 350 350 350 349
355 358 361 360 359 361 363 363 363 364 361 357 356 356 357 357 357 357 356 356 355 353 351 349 347 346 345 345 345 346 345 345 344 343 341 340 341 344 346 349 351 352
354 355 358 361 360 358 357 358 361 363 362 358 356 357 358 358 359 358 358 358 358 357 356 354 351 349 348 348 347 347 347 347 347 347 346 343 341 341 342 344 348 351
354 355 355 357 357 355 353 353 357 360 361 359 357 356 357 358 359 359 358 358 359 359 358 357 355 352 351 351 350 350 350 349 349 350 351 350 349 347 344 343 345 348
352 354 355 356 356 356 354 353 354 355 357 358 358 358 357 356 358 358 358 358 359 359 359 359 357 355 354 353 352 351 351 350 350 351 353 354 353 353 351 348 348 348
347 351 354 356 356 355 354 354 353 354 356 357 356 358 359 357 357 357 358 358 358 358 359 359 358 358 356 355 353 352 352 351 350 352 353 354 354 355 354 353 352 350
345 348 351 353 354 353 352 354 353 354 356 355 353 356 360 359 358 358 357 358 358 358 358 358 358 358 358 357 355 354 353 352 351 353 354 355 355 356 356 356 355 353
344 347 349 352 354 353 353 353 353 353 353 353 353 354 355 357 359 359 358 357 357 358 358 357 358 358 358 358 357 356 355 353 352 354 355 355 356 356 357 357 357 356

ECMWFNIL_925_thetae_090.txt.gz
Theta_e
355 356 356 355 356 356 356 357 356 356 357 357 359 358 358 357 355 356 358 359 359 358 357 358 356 353 355 357 356 356 358 357 356 357 359 360 358 358 358 357 355 355
354 356 356 356 355 355 354 355 355 355 356 356 356 356 356 358 357 356 358 358 359 359 358 358 356 355 356 355 353 356 358 355 354 356 358 360 358 357 358 356 356 357
354 355 356 356 355 354 352 352 353 353 355 356 355 355 355 357 358 357 358 359 359 358 358 359 359 359 360 358 354 356 356 353 356 357 357 359 359 357 358 356 355 356
355 354 355 355 355 354 351 351 352 351 353 355 354 355 355 355 357 357 359 360 359 357 358 359 360 360 362 360 355 355 355 354 358 358 357 359 358 355 358 358 354 354
356 355 355 354 353 354 352 351 352 351 351 352 353 354 353 354 356 357 358 359 358 357 357 358 359 359 360 360 356 356 356 357 358 359 359 358 355 355 358 356 356 356
358 356 355 355 353 353 353 351 350 351 351 351 351 353 352 353 356 357 358 359 358 357 357 357 358 358 358 359 359 358 358 358 358 359 359 354 351 356 360 356 356 358
360 358 356 355 353 352 352 351 350 350 350 350 350 351 351 352 354 356 357 358 357 356 356 356 356 357 357 358 358 359 358 358 357 358 358 354 352 358 359 354 356 358
360 359 356 356 354 352 351 350 350 350 349 349 349 349 350 351 353 355 355 357 357 355 354 354 354 355 355 356 357 358 359 358 357 357 358 357 357 358 356 354 355 357
359 360 357 356 354 352 351 350 350 350 349 349 349 348 348 349 351 353 354 355 356 355 353 353 353 353 353 354 354 356 358 357 356 356 357 358 360 359 358 356 355 356
355 358 358 356 354 351 350 350 350 350 350 349 348 347 347 348 349 351 353 354 354 355 354 352 352 352 353 354 353 354 357 357 356 355 355 358 358 358 358 357 356 356
351 353 356 356 354 351 350 349 350 350 350 350 347 346 346 347 348 350 352 352 353 354 354 353 353 353 353 354 354 354 355 356 356 356 355 356 356 356 356 356 355 355
350 351 353 355 354 352 349 348 348 348 349 350 348 346 345 346 347 349 350 350 351 353 354 354 353 354 354 355 355 354 354 355 356 356 355 355 355 356 355 354 354 354
352 351 351 352 352 352 350 347 347 346 346 348 349 347 345 345 346 347 348 349 350 351 353 355 354 354 355 356 357 355 354 354 355 356 356 355 355 355 355 355 354 354
354 353 353 353 353 351 349 348 347 345 344 345 347 347 345 344 344 346 347 349 349 351 353 355 355 355 356 356 356 356 354 354 354 355 355 354 354 355 354 354 354 353
353 353 353 352 353 353 351 349 347 346 344 344 345 345 346 344 343 343 346 347 348 350 353 354 355 355 356 356 356 356 355 354 353 353 354 353 353 353 353 352 351 351
353 353 353 352 353 353 354 353 350 346 344 344 345 344 345 345 343 342 344 346 347 349 351 352 353 354 354 355 355 356 356 354 353 352 353 353 352 352 352 350 349 349
353 353 353 353 354 353 352 353 353 352 348 345 344 345 345 345 344 342 342 343 346 348 349 350 350 350 351 353 354 355 355 355 353 351 351 352 352 352 351 349 348 348
352 352 353 354 355 354 353 353 352 352 353 352 349 346 345 345 346 345 343 342 343 346 348 349 350 348 347 348 352 353 354 354 355 353 351 351 352 353 352 349 347 347
354 353 353 354 355 355 354 352 351 352 354 353 352 352 350 349 347 346 345 344 342 343 345 346 348 349 346 345 346 349 350 351 353 354 352 350 350 352 353 351 349 348
354 355 355 354 354 356 357 355 352 352 353 352 351 352 353 353 353 351 348 347 345 345 346 346 347 347 347 345 343 345 346 347 348 350 351 350 349 349 351 352 350 350
352 354 355 355 355 355 357 357 356 355 355 354 353 352 352 353 354 354 353 353 351 350 349 349 348 347 346 345 343 342 344 345 345 346 347 346 345 346 348 350 350 350
348 350 352 353 354 355 357 357 357 356 355 355 355 355 354 352 352 353 354 355 355 355 354 353 351 350 349 347 345 343 342 343 345 345 346 345 344 342 343 344 346 347
346 348 350 351 352 355 356 356 356 355 355 355 355 356 356 354 352 351 353 354 354 354 355 357 356 355 354 352 349 345 343 343 344 346 347 347 346 345 343 342 342 342
344 346 349 349 350 351 353 354 354 354 354 355 354 355 356 355 354 352 351 352 354 354 354 355 356 358 357 356 354 351 348 345 345 347 349 350 350 349 348 348 347 345
344 345 345 344 344 347 349 351 352 353 353 353 353 354 355 355 355 353 351 351 352 353 353 353 354 357 359 359 357 355 352 349 346 347 350 351 353 353 353 353 352 352
342 344 344 342 342 344 345 346 349 351 351 352 352 353 354 355 355 353 353 353 353 353 353 353 354 356 358 359 359 357 356 353 349 349 351 352 354 354 355 355 355 355

ECMWFNIL_925_thetae_093.txt.gz
Theta_e
355 354 353 353 354 354 355 355 356 358 357 357 358 356 357 357 355 358 358 358 358 356 355 356 356 356 355 355 355 356 355 355 356 355 355 356 356 357 358 357 356 355
355 354 354 354 354 354 355 355 356 357 356 357 357 356 358 357 355 356 357 357 358 357 355 356 355 355 355 354 356 356 355 355 356 356 357 358 356 357 358 356 356 356
355 355 354 354 355 355 356 356 356 356 356 356 356 356 358 358 356 357 357 356 357 358 356 355 355 354 352 352 354 355 355 355 354 355 357 358 357 357 357 356 356 356
354 355 355 355 355 355 356 356 356 356 356 356 356 356 357 357 357 358 358 357 357 358 358 355 354 352 350 351 350 350 353 353 353 355 356 358 358 357 356 356 355 354
354 354 355 355 355 355 355 355 354 354 354 355 356 355 355 356 357 357 358 358 357 358 358 357 356 354 353 356 353 349 350 350 352 357 357 356 357 356 356 355 355 354
353 353 355 355 355 355 354 353 352 353 352 353 354 354 354 355 356 357 357 359 358 358 358 357 357 358 357 357 356 353 351 349 351 358 360 357 357 355 355 357 355 353
354 353 354 354 354 354 354 353 351 351 351 352 353 353 354 354 355 356 356 358 359 359 358 357 357 359 358 357 357 356 354 352 352 357 358 358 356 353 354 359 357 355
357 355 354 354 354 353 354 353 351 351 351 351 352 352 353 353 354 356 356 356 357 357 358 357 357 358 358 358 357 357 357 356 356 357 356 356 354 351 353 359 358 355
358 357 356 355 354 354 354 353 351 351 351 350 351 351 351 352 352 354 356 356 357 356 357 357 357 357 357 357 358 357 357 357 358 358 357 355 354 352 353 358 356 353
357 358 358 357 356 354 354 353 352 351 350 349 350 350 351 351 351 352 354 355 356 356 356 355 355 356 356 356 357 357 356 356 357 358 356 355 355 354 356 357 356 354
354 355 357 357 356 355 354 353 352 351 350 350 350 350 350 350 350 350 351 354 356 356 356 355 354 354 355 355 355 356 356 355 354 356 357 356 354 354 357 358 358 356
352 350 352 355 356 355 352 350 350 349 350 349 349 350 349 348 349 350 350 352 353 355 356 355 354 353 353 354 353 353 355 356 354 354 356 357 356 354 355 356 357 356
351 348 348 353 355 354 352 349 347 347 349 349 349 349 349 348 348 348 350 350 351 353 354 355 354 353 352 353 353 352 353 355 355 354 354 355 356 356 356 356 355 355
350 349 348 351 352 352 352 350 348 346 347 348 349 349 349 348 347 347 348 349 350 352 352 352 354 354 353 353 353 353 353 354 355 354 354 353 354 354 355 355 355 355
350 350 351 352 352 351 352 351 349 347 346 346 348 349 349 348 347 347 347 347 348 350 351 350 351 353 353 353 353 352 353 355 355 354 354 354 354 354 354 354 354 355
351 352 353 353 353 352 352 350 348 348 346 345 346 348 350 349 346 346 346 347 347 348 350 350 350 352 353 353 353 353 353 354 355 355 354 354 354 355 355 354 354 354
352 352 353 352 353 353 352 352 351 349 348 345 344 345 348 350 348 346 345 346 347 347 348 349 349 350 351 353 353 353 353 354 355 355 355 354 354 354 354 354 354 353
352 352 353 353 353 353 353 353 352 351 350 348 345 343 345 348 350 349 345 344 346 347 347 348 349 349 349 351 353 353 354 354 355 355 354 354 354 353 353 353 353 352
354 354 354 354 354 354 355 354 353 351 350 350 348 345 344 346 349 351 349 346 345 346 347 347 348 348 348 349 351 352 353 354 354 354 353 353 353 353 352 352 351 351
353 354 354 355 354 354 354 354 354 354 353 352 351 350 347 346 347 350 351 350 348 347 347 347 347 348 348 347 348 349 350 351 352 353 353 352 351 351 352 352 351 351
350 352 353 354 354 354 354 354 355 356 356 354 353 352 351 349 348 348 349 350 352 350 349 349 348 348 348 348 348 348 348 348 349 351 352 352 351 350 349 350 351 351
348 350 350 352 353 353 355 355 356 356 356 356 356 354 354 353 352 351 350 350 351 352 352 351 350 349 350 350 349 348 347 347 348 349 351 352 351 350 348 348 349 350
346 346 346 347 349 351 352 353 354 354 354 355 355 355 355 355 354 354 354 353 352 351 352 353 351 351 352 353 353 352 350 348 347 349 351 351 351 350 349 348 349 349
342 344 345 344 345 346 348 350 350 352 352 353 353 354 354 354 355 355 355 355 354 352 352 352 353 353 353 354 355 355 354 351 347 346 348 350 350 349 349 348 348 347
335 340 343 344 342 339 342 346 347 348 350 350 351 353 353 352 353 354 355 355 355 355 354 352 352 352 352 353 354 353 354 352 348 344 345 348 349 349 349 348 347 346
335 334 337 340 339 334 335 340 343 344 347 348 348 349 351 352 353 353 354 355 355 355 355 354 352 352 352 353 353 353 353 353 350 347 346 347 348 349 350 349 349 347

ECMWFNIL_925_thetae_096.txt.gz
Theta_e
356 355 355 354 353 354 354 353 353 354 354 355 356 355 357 358 356 357 358 357 356 356 358 357 356 355 355 356 356 355 356 355 355 355 353 351 352 353 354 355 356 355
357 355 355 354 354 354 354 354 354 354 354 355 356 355 355 357 356 356 357 358 357 357 359 357 356 356 356 355 355 355 355 355 354 355 353 352 353 354 354 356 356 356
356 355 354 353 353 353 354 354 354 355 355 355 355 355 355 356 356 356 356 358 358 357 357 357 355 355 355 355 355 354 355 355 354 355 355 355 355 355 356 356 356 356
355 355 353 353 353 352 353 354 354 355 356 356 356 356 356 356 356 357 356 356 357 357 356 356 356 355 355 355 354 354 355 355 354 355 355 356 357 356 356 356 356 355
354 355 354 353 353 353 353 353 354 354 355 356 356 355 356 356 357 358 357 355 356 356 356 356 356 355 355 355 353 353 354 353 353 354 353 355 357 356 356 356 356 355
354 355 354 353 353 354 354 354 354 354 355 356 356 355 355 355 357 358 357 357 357 356 355 356 356 356 355 354 353 352 351 350 350 352 353 354 356 356 356 356 355 355
355 354 354 354 353 354 354 355 355 355 354 355 355 355 355 355 356 356 356 357 357 357 356 356 356 356 355 354 354 354 353 351 349 350 351 353 354 354 354 354 354 355
355 355 354 354 354 354 354 354 354 355 354 354 354 354 355 355 355 355 355 356 357 357 357 356 356 357 356 355 355 356 355 354 352 351 351 352 354 354 353 351 352 354
355 354 353 353 354 354 354 354 354 354 353 353 353 352 353 354 354 354 354 355 356 357 357 357 357 357 357 356 356 356 356 355 355 355 354 355 356 355 354 351 350 352
356 355 353 353 354 354 355 354 354 354 352 351 351 351 351 352 353 353 354 355 356 356 357 357 357 358 357 356 356 356 356 356 356 355 354 355 356 357 355 354 351 351
355 356 355 353 353 354 354 353 353 354 353 351 351 351 351 351 352 352 353 354 355 355 356 356 356 356 356 357 357 356 355 355 356 355 354 354 355 356 356 355 354 353
355 355 356 356 354 354 354 354 353 353 354 352 351 351 351 350 350 351 352 353 354 354 355 355 355 355 355 356 356 356 355 355 355 355 354 354 354 354 355 355 355 354
352 353 355 356 356 355 355 354 353 352 353 353 352 350 351 350 349 351 351 351 352 352 353 353 355 355 354 354 355 355 355 354 354 354 353 354 353 353 354 355 355 355
352 353 354 354 355 356 355 355 354 351 350 351 351 350 350 350 349 350 350 351 350 350 350 350 353 355 355 354 354 353 354 354 353 353 353 354 354 353 353 353 354 355
353 353 353 352 353 354 354 354 353 351 349 348 349 350 350 350 349 349 349 349 349 350 350 349 351 353 354 354 354 353 353 353 353 352 352 352 353 354 354 353 352 353
352 351 352 351 351 352 352 352 352 352 350 349 347 347 348 349 349 349 348 348 348 348 349 349 350 351 352 353 353 353 353 353 352 352 352 351 352 353 354 353 352 352
351 351 351 351 350 351 351 350 351 351 351 350 348 346 347 347 348 349 348 347 347 347 348 349 349 349 350 350 350 351 351 352 352 353 352 352 352 353 354 354 352 352
352 351 351 351 351 352 352 351 351 351 351 351 349 347 346 346 346 348 349 348 347 347 347 348 348 347 347 348 349 349 349 350 351 352 352 352 352 352 354 354 354 353
353 352 352 352 352 352 352 352 352 352 351 351 350 349 349 348 346 346 348 349 348 347 346 347 348 348 347 346 347 347 348 349 350 351 351 352 352 351 352 353 354 354
353 354 354 354 354 353 353 353 353 353 353 352 351 350 350 349 347 345 347 349 349 349 347 346 346 347 347 347 347 346 346 348 349 350 351 352 352 352 352 351 351 351
350 352 353 353 354 354 354 354 355 355 354 354 353 352 352 351 350 348 347 347 349 350 350 349 347 347 347 348 348 348 348 349 350 351 352 353 353 353 353 352 351 349
347 347 348 349 351 352 354 354 355 355 355 355 355 354 354 353 353 352 350 349 349 350 351 351 351 350 349 349 349 349 349 350 351 352 353 353 354 354 354 353 353 351
343 344 345 344 344 346 348 349 351 353 354 354 354 355 355 355 354 354 354 353 352 351 351 352 352 352 352 351 351 351 350 350 349 349 350 350 351 352 353 353 353 353
339 340 341 341 340 338 339 342 345 348 350 352 352 353 354 354 354 354 354 354 354 353 354 354 353 353 352 351 352 352 352 352 351 350 350 349 349 348 349 349 351 352
335 336 337 339 338 334 333 337 340 343 346 348 349 351 352 352 353 353 353 354 354 354 354 355 355 354 353 352 352 351 352 353 353 353 353 353 352 352 351 349 349 349
331 333 334 336 337 335 334 335 336 338 340 341 342 345 349 350 351 352 353 353 353 354 354 355 355 355 354 354 353 352 351 351 352 352 353 353 353 353 353 353 352 351

ECMWFNIL_925_thetae_099.txt.gz
Theta_e
352 353 353 353 353 353 353 353 353 354 354 354 355 352 352 354 354 356 356 356 356 354 353 355 357 356 355 354 354 355 355 354 354 355 355 355 354 352 351 352 353 355
352 352 353 353 353 353 353 353 353 353 353 354 355 353 353 354 355 356 356 356 356 355 354 355 356 356 355 354 354 355 355 354 355 355 354 353 352 351 352 353 354 355
352 352 353 353 353 354 353 353 353 353 353 354 354 353 353 354 355 356 356 356 356 356 355 355 356 356 356 355 355 355 355 354 354 354 354 353 353 353 353 354 355 356
352 353 353 354 354 355 354 353 354 353 353 352 353 354 353 354 355 355 356 356 355 356 356 355 356 356 356 355 355 355 355 354 354 354 354 354 354 355 354 355 355 356
352 353 354 355 355 354 353 353 353 353 353 352 353 353 353 354 354 354 355 356 355 355 356 356 356 356 356 355 354 355 354 354 354 354 354 354 354 354 355 355 355 355
353 353 354 356 355 354 353 353 353 353 353 353 354 354 354 355 355 354 355 356 356 355 355 356 356 356 356 355 355 355 354 354 353 354 354 353 353 353 354 355 355 355
353 352 354 356 355 354 353 352 353 353 353 354 354 354 355 355 355 355 355 356 357 356 355 355 355 356 355 355 355 355 353 353 352 353 352 351 351 352 354 355 355 354
353 352 353 354 355 354 353 352 352 353 353 353 354 354 355 355 355 355 355 355 356 357 356 356 356 355 355 355 355 355 353 352 352 353 352 350 350 351 352 353 353 353
354 352 352 353 354 354 354 353 352 353 353 353 353 354 354 354 355 355 355 355 355 356 356 356 356 356 356 355 355 355 354 353 354 354 353 351 350 349 350 352 354 354
354 353 352 352 353 354 354 353 353 353 353 354 353 354 354 354 354 354 355 355 355 356 356 356 356 356 356 356 356 356 356 355 354 354 353 352 351 351 352 354 355 355
354 353 353 352 352 353 353 353 353 353 353 354 354 354 354 353 353 353 353 354 354 355 355 355 356 356 356 357 356 356 356 356 355 354 354 353 351 351 352 353 354 354
355 354 354 353 352 352 352 353 353 353 353 353 352 353 353 352 352 352 351 352 352 353 353 354 355 355 356 356 356 356 356 356 356 355 354 354 353 352 352 352 352 352
356 355 355 355 353 353 352 352 352 352 352 352 351 352 352 352 352 351 350 350 351 351 351 352 354 355 355 355 355 355 356 356 356 356 355 354 354 353 353 352 352 352
355 355 355 355 355 354 353 352 352 352 352 352 352 351 351 352 352 351 350 350 350 350 350 351 352 354 354 354 355 355 354 354 354 355 355 355 354 353 353 353 353 352
351 352 351 350 351 352 354 354 353 352 353 353 353 352 351 352 352 352 351 350 350 349 349 349 351 352 353 353 353 353 354 354 353 354 354 353 353 353 352 352 352 352
350 350 350 348 347 348 351 353 354 354 353 352 352 352 351 351 352 352 351 350 350 350 349 350 350 351 351 351 351 351 351 353 353 353 353 353 353 352 352 352 351 351
350 349 349 348 349 348 347 349 351 353 353 353 352 350 349 348 349 350 350 350 350 349 349 349 349 349 350 350 349 349 349 352 353 353 353 353 352 352 352 352 351 350
349 349 349 349 349 349 348 347 348 350 351 352 352 350 349 348 347 347 348 348 349 349 348 348 348 348 348 348 348 348 348 350 351 352 353 353 352 352 351 351 351 351
350 350 349 349 349 349 348 348 347 348 349 350 351 351 350 350 349 348 347 347 347 348 348 348 348 348 348 348 347 348 348 349 350 351 352 352 351 351 351 351 351 351
350 351 350 350 351 352 351 351 350 350 351 351 351 351 350 351 350 349 348 348 347 347 347 349 348 348 348 347 347 347 347 348 350 351 352 352 351 351 351 350 350 350
347 348 347 348 350 352 352 351 352 353 353 353 353 353 352 351 351 350 350 349 348 347 347 348 349 349 348 347 346 346 346 347 349 350 351 352 352 351 351 350 349 350
343 343 341 341 342 345 347 347 349 351 352 354 354 354 354 354 353 352 351 351 350 348 347 347 348 350 350 349 347 346 345 347 348 349 350 351 351 351 351 350 350 350
337 337 337 336 335 336 339 341 344 347 350 351 351 352 353 354 354 354 353 352 352 350 349 348 347 349 350 350 350 348 346 346 346 348 349 349 350 350 350 350 350 350
331 332 334 336 335 334 335 336 338 342 346 348 348 349 350 350 351 353 353 353 354 353 353 352 350 350 350 350 350 350 349 348 348 348 348 348 348 349 349 349 350 350
329 329 329 331 333 334 334 334 334 335 338 341 343 345 347 347 349 351 352 352 353 353 354 353 353 353 352 352 352 352 351 351 350 350 350 350 349 349 349 349 349 349
327 328 327 327 328 330 331 333 333 334 336 338 340 340 341 343 347 350 351 352 353 353 354 354 354 354 354 354 353 353 352 352 351 351 351 351 351 351 351 351 351 351

ECMWFNIL_925_thetae_102.txt.gz
Theta_e
350 351 351 351 352 352 352 352 353 353 354 354 354 354 353 351 351 353 354 355 356 355 354 354 355 356 356 355 355 353 353 354 353 353 354 354 354 353 353 354 354 354
350 351 351 351 352 352 352 352 353 353 353 353 353 354 354 352 352 353 354 355 355 356 356 354 353 355 356 356 354 353 354 354 354 354 354 354 353 352 351 353 354 355
350 351 351 351 352 352 353 352 353 353 352 352 352 352 354 353 353 353 354 355 355 356 355 355 353 354 356 356 355 354 354 355 354 354 354 354 353 353 352 352 353 354
350 351 351 351 352 352 352 353 353 353 352 352 352 352 353 354 353 353 354 355 355 356 355 355 354 354 355 356 355 355 354 354 354 353 354 354 353 353 353 354 354 354
350 351 351 351 351 352 352 352 353 353 352 353 353 352 352 353 353 353 353 354 354 355 355 355 355 354 355 355 355 355 354 354 354 354 353 353 354 354 354 354 354 355
350 352 352 352 351 352 352 352 353 353 353 352 352 352 352 352 353 353 353 354 354 354 355 355 355 354 355 356 356 355 354 354 354 354 354 353 354 353 353 353 353 354
350 351 352 352 352 352 352 352 353 353 352 353 352 352 352 352 353 353 354 354 354 354 354 355 355 355 355 355 355 355 355 355 354 354 353 353 353 353 351 352 353 354
350 351 351 352 352 352 353 354 354 353 352 352 352 352 352 352 353 353 354 354 354 354 354 355 356 355 355 355 355 355 355 355 354 354 353 351 351 351 349 350 352 353
350 350 351 352 352 352 353 354 354 353 352 352 352 352 352 352 353 353 353 354 354 355 354 354 356 356 356 356 355 355 355 355 355 354 353 352 352 351 349 349 349 350
351 351 351 352 352 352 352 354 354 353 352 352 351 352 352 352 353 353 354 354 354 355 354 354 355 355 356 356 355 355 355 354 355 354 354 354 354 353 352 350 350 350
352 352 352 352 352 352 352 353 354 354 353 352 352 352 352 352 353 353 353 354 353 354 354 354 354 354 355 355 355 355 355 355 355 355 355 355 355 355 354 353 352 352
353 352 353 353 352 352 352 352 353 354 354 353 352 352 352 352 353 353 354 354 353 353 353 353 353 353 354 354 354 355 355 355 356 355 355 355 355 355 355 354 354 353
353 353 353 353 353 353 352 352 352 352 353 353 353 353 353 353 353 353 353 353 352 352 351 351 352 352 352 352 353 354 354 355 355 355 355 354 354 354 354 354 354 353
354 353 353 353 353 353 353 353 352 352 352 353 353 353 352 352 352 352 352 352 352 352 350 350 350 350 351 351 351 352 354 354 354 354 354 354 353 353 353 353 354 353
352 353 354 353 353 353 353 353 353 353 352 352 352 352 352 352 352 352 352 352 351 352 351 351 350 350 350 350 350 351 352 353 353 353 354 353 353 352 352 352 352 353
349 352 354 353 353 353 353 353 353 353 353 352 352 351 351 351 351 352 352 352 351 351 352 351 350 350 349 349 349 350 350 352 352 352 352 352 352 352 352 352 352 351
349 351 353 352 352 352 352 352 352 352 352 352 352 351 351 350 349 349 350 351 351 351 351 351 351 350 350 349 349 349 350 351 352 352 352 351 351 352 352 352 352 351
348 349 350 350 350 351 350 350 350 350 350 351 351 351 350 350 348 347 347 348 349 348 348 349 350 350 350 349 348 348 348 350 351 351 351 351 351 351 350 350 350 351
348 349 348 348 349 349 349 349 348 348 349 349 350 350 351 351 350 349 348 348 348 347 347 347 348 348 348 348 348 348 348 348 349 349 350 350 350 350 350 350 351 351
346 347 347 348 349 349 349 349 349 348 348 348 349 349 349 350 350 349 348 349 349 349 348 347 347 346 347 347 347 347 347 347 347 348 348 348 348 348 349 350 350 351
340 340 341 343 345 347 348 349 349 349 349 350 350 350 350 350 349 349 349 349 350 351 350 350 349 347 346 346 346 347 347 347 346 346 347 347 347 347 348 348 348 349
336 337 337 338 340 343 345 347 348 349 349 351 351 352 352 352 351 351 351 351 351 351 350 350 350 348 347 347 347 347 348 349 348 347 346 346 346 346 346 346 347 348
332 333 334 335 336 338 340 342 343 345 346 349 350 351 352 352 352 353 353 353 352 352 352 352 351 350 349 348 348 348 348 349 349 349 347 346 346 346 346 346 346 347
328 329 330 331 332 334 335 337 339 340 342 344 345 346 348 349 351 352 352 352 353 352 353 353 352 352 352 351 351 350 349 350 350 350 350 349 348 347 346 346 347 347
328 328 329 330 331 332 333 334 334 336 338 340 340 341 342 344 346 348 349 350 351 352 353 353 353 353 353 353 353 352 351 351 350 350 350 350 350 350 349 349 349 349
327 328 329 329 331 332 333 333 332 333 335 338 339 340 341 341 341 342 344 345 347 349 350 351 352 353 353 353 353 353 353 352 351 350 349 349 349 349 349 350 350 350

ECMWFNIL_925_thetae_105.txt.gz
Theta_e
349 349 349 349 351 352 352 352 353 354 355 356 358 357 357 355 354 354 356 356 355 356 356 355 356 356 357 357 355 355 355 354 357 356 355 357 358 357 357 357 357 357
349 349 350 350 351 352 352 352 353 353 353 354 356 356 354 354 353 353 354 356 356 357 356 355 355 355 356 358 356 356 355 353 356 357 355 357 358 357 357 357 357 357
349 349 350 351 352 351 352 352 352 353 353 354 354 354 354 354 354 353 353 355 357 357 356 356 356 355 354 356 356 357 356 354 356 358 356 357 358 357 357 357 357 357
349 349 349 352 353 352 352 352 352 352 354 354 353 353 354 354 354 353 353 353 355 356 356 356 357 357 355 355 356 357 357 356 356 356 355 356 356 356 357 357 357 357
350 350 349 351 352 351 351 352 353 353 353 353 353 353 352 352 353 354 353 353 354 355 356 356 356 357 356 355 355 357 358 357 356 354 354 356 356 356 357 357 357 358
350 350 349 350 350 350 351 352 353 353 353 354 353 353 352 352 352 353 353 354 355 356 357 357 357 357 357 356 355 356 357 357 357 354 354 356 356 356 357 357 357 358
350 350 349 350 351 350 351 352 352 352 353 354 353 352 353 352 352 352 352 353 355 356 356 356 355 356 356 356 355 355 355 356 356 354 355 356 356 355 356 356 356 356
352 351 350 350 352 352 353 353 353 352 352 353 354 353 352 352 352 353 353 353 355 355 355 354 354 354 356 356 356 355 356 357 357 356 355 357 356 355 355 356 355 354
353 353 352 352 353 354 354 355 354 354 353 353 354 354 353 352 352 353 353 353 354 354 354 354 354 354 355 356 356 356 356 357 358 357 357 358 358 357 357 357 356 356
354 354 354 354 354 355 355 355 355 355 354 354 355 355 354 353 352 353 353 353 353 354 354 354 354 354 354 355 355 355 355 356 356 356 356 357 358 358 358 358 358 357
354 355 354 354 354 354 355 354 355 355 355 355 355 355 355 354 352 352 352 353 354 355 355 354 354 354 354 354 355 355 354 356 356 356 355 356 356 357 356 356 357 358
353 354 354 354 354 354 354 354 354 354 355 355 355 355 355 354 354 353 352 352 353 354 355 354 353 353 353 353 355 355 355 355 357 357 356 356 356 356 356 356 356 357
352 353 352 354 355 354 354 354 354 354 354 355 355 355 355 355 355 354 353 352 353 353 354 353 352 352 351 350 352 353 354 354 356 357 358 357 356 356 357 357 357 357
352 352 353 353 354 353 354 354 354 355 354 354 354 355 355 355 355 355 354 353 354 353 352 352 351 351 352 350 350 350 352 354 354 355 357 358 357 357 357 357 357 357
351 351 353 353 353 352 353 354 354 354 354 354 353 353 354 354 354 354 353 353 353 352 352 352 352 352 352 351 350 350 351 353 354 353 355 357 357 357 357 356 355 356
351 352 352 353 353 353 353 353 353 353 353 352 353 353 353 353 353 353 353 353 353 352 352 352 352 352 351 351 351 351 351 352 352 351 351 353 354 355 356 357 356 356
351 352 352 352 352 352 352 352 352 352 353 352 352 352 352 352 352 352 352 352 352 352 352 352 352 351 350 350 351 351 350 350 351 351 351 350 352 354 355 356 357 357
351 351 350 351 351 351 351 352 352 352 352 352 352 352 352 352 351 351 351 352 351 351 351 351 351 350 350 350 350 349 349 349 350 353 354 353 353 353 353 353 354 355
350 349 349 349 350 350 350 351 351 352 352 352 352 352 351 352 351 351 351 350 350 350 350 350 350 349 349 349 348 347 347 347 348 351 354 355 354 353 352 351 350 351
348 348 348 348 348 348 349 349 349 350 351 350 351 351 351 351 351 351 351 350 350 350 349 350 350 349 348 348 346 347 346 346 346 348 351 353 353 352 352 350 348 348
344 345 346 347 348 348 348 348 348 349 350 349 349 350 350 350 350 350 351 350 351 351 350 350 351 349 349 349 348 348 348 347 347 347 349 350 349 349 348 348 348 348
340 341 342 344 346 347 347 347 347 348 349 349 349 350 350 351 351 352 352 352 352 353 352 353 353 351 350 350 350 349 348 347 347 348 348 349 349 349 348 347 347 347
336 338 339 340 341 342 343 343 345 347 349 350 351 351 351 352 352 352 353 353 353 353 353 354 354 353 351 350 350 349 348 347 348 348 349 349 349 349 349 348 348 346
332 333 335 336 336 337 337 339 341 343 345 347 348 349 350 351 352 352 352 353 353 353 354 354 354 354 353 352 351 350 350 349 349 349 349 350 350 350 349 349 349 349
330 331 332 333 333 333 333 335 336 338 340 342 342 343 345 346 347 349 349 350 351 352 352 353 353 354 353 353 353 352 352 351 351 351 350 351 351 350 350 350 350 350
330 331 331 332 333 333 333 333 334 335 337 340 341 341 340 340 341 343 345 347 347 348 349 350 350 350 350 351 352 353 353 353 352 352 352 352 352 351 351 352 352 351

ECMWFNIL_925_thetae_108.txt.gz
Theta_e
355 356 356 356 356 356 357 357 357 357 358 358 358 358 358 358 358 359 358 360 361 360 363 364 362 362 361 361 362 361 361 360 359 360 360 360 359 358 357 357 356 356
356 356 356 356 356 357 357 357 357 357 358 359 359 358 359 359 359 359 358 360 360 360 363 363 361 362 361 361 362 361 361 361 359 358 360 360 360 358 356 356 356 357
356 356 356 355 355 356 356 356 357 358 357 358 358 358 359 357 358 359 358 359 360 359 361 362 361 361 361 362 363 361 361 361 359 358 360 360 360 359 357 356 355 357
357 356 356 354 353 354 355 355 357 358 357 357 358 359 359 358 358 359 359 359 360 360 360 361 361 360 360 363 363 360 361 362 360 360 361 361 360 359 358 356 356 356
357 356 355 354 353 354 355 355 356 357 357 358 359 359 359 360 359 359 359 359 360 360 360 360 360 360 361 363 362 360 360 359 359 360 361 361 360 359 358 358 358 357
356 357 356 355 354 355 356 356 356 357 357 357 358 358 359 359 359 359 358 359 359 358 358 359 360 359 359 362 362 361 359 358 359 361 361 361 360 358 357 358 359 359
355 356 356 355 354 354 356 356 356 356 356 356 357 358 358 358 358 358 358 358 357 357 357 358 360 360 359 361 362 362 362 360 361 363 362 360 359 359 358 358 359 359
354 354 355 354 353 354 355 355 356 356 357 356 356 357 358 357 358 358 358 358 357 358 358 358 361 361 359 359 360 362 362 360 360 362 361 359 359 359 358 357 358 358
353 353 353 353 352 352 353 353 354 355 356 357 356 357 357 357 357 357 358 358 358 359 360 360 361 361 359 359 361 362 363 360 359 361 361 360 360 360 358 357 358 358
354 352 352 352 352 351 351 352 352 353 355 356 356 355 355 357 357 357 358 359 358 360 361 360 361 361 359 360 361 361 362 362 361 361 361 360 360 359 359 358 358 357
354 353 352 352 352 350 350 350 351 351 354 355 355 354 354 356 356 357 358 359 358 359 360 360 360 360 361 360 360 360 360 361 362 361 362 361 360 360 360 359 359 358
355 354 353 353 352 351 350 350 350 350 352 354 355 354 354 355 356 356 357 358 358 357 358 359 360 360 361 360 359 359 359 360 360 361 361 361 361 361 360 359 359 358
356 355 354 354 354 353 352 351 350 350 351 353 353 354 355 355 355 355 356 356 356 356 356 358 359 359 360 360 360 359 359 359 359 359 359 360 360 360 358 358 357 357
356 355 356 355 356 356 356 354 353 351 351 352 352 354 355 355 354 354 355 355 354 354 354 355 357 358 358 359 359 358 358 358 357 358 357 357 358 358 357 356 356 354
353 355 358 358 358 359 359 358 356 354 353 352 352 353 354 354 354 353 354 353 352 353 354 353 353 354 355 356 357 357 357 356 356 356 355 355 356 356 355 355 355 353
347 349 353 355 357 359 361 360 358 357 355 354 354 354 353 353 354 354 353 353 352 353 353 352 349 348 351 354 354 354 355 355 355 355 355 355 355 355 355 354 354 353
347 347 349 350 351 354 357 359 358 358 357 356 356 356 355 354 354 354 352 350 350 350 350 349 346 345 348 351 352 351 352 354 355 355 356 356 355 355 355 354 353 353
350 350 351 352 351 351 352 354 356 357 357 357 357 357 356 356 355 355 354 351 348 348 348 348 346 345 347 350 349 348 349 352 353 354 353 354 354 354 354 354 353 353
353 353 353 353 353 353 352 353 354 355 356 357 358 357 356 357 357 356 356 355 353 351 351 350 347 347 349 349 348 348 349 350 351 352 352 352 353 353 354 354 354 354
353 354 354 354 353 353 353 353 353 354 355 356 357 357 357 357 357 357 357 356 356 355 355 354 351 350 350 350 348 348 348 348 349 351 351 351 352 353 354 354 354 356
350 351 352 353 353 352 352 352 351 352 353 354 355 356 356 356 356 356 355 356 356 356 356 355 353 352 353 352 350 348 348 347 349 351 351 351 352 353 354 355 355 356
347 348 348 349 350 351 351 350 349 349 350 351 352 354 354 355 355 355 355 355 356 357 357 355 353 352 353 352 351 350 349 349 350 352 353 353 353 354 355 356 356 357
343 344 344 345 346 346 347 347 347 347 347 348 349 351 353 354 354 355 356 356 356 357 357 356 354 354 354 353 352 351 350 351 353 354 355 355 355 355 356 356 357 358
341 341 342 342 342 342 343 343 344 345 346 348 350 350 351 352 353 354 355 356 356 356 357 356 354 354 355 354 353 352 350 352 355 356 356 356 356 356 357 357 357 357
338 338 339 340 339 338 338 339 340 340 341 345 348 349 349 351 352 353 353 354 354 355 355 355 353 353 354 354 354 353 352 353 355 357 357 357 357 357 356 357 358 358
335 336 337 337 338 337 336 336 338 339 339 341 342 342 343 345 347 350 351 351 352 353 353 351 349 346 348 351 352 352 353 354 355 357 357 357 357 357 357 356 356 356

ECMWFNIL_925_thetae_111.txt.gz
Theta_e
356 356 357 357 357 357 358 358 358 358 357 356 355 355 356 357 358 358 357 360 362 362 364 366 364 362 361 362 362 360 362 363 358 358 360 360 358 357 357 355 354 354
356 356 357 357 357 359 359 358 356 357 357 357 356 355 356 358 359 359 358 360 360 360 364 365 362 361 361 361 361 360 362 363 359 357 359 359 358 357 357 356 355 355
356 356 357 357 357 357 357 357 358 357 356 355 357 356 356 356 357 359 360 361 359 358 362 362 362 362 360 362 362 360 360 361 359 357 357 358 358 357 358 357 355 355
357 356 355 355 355 355 355 356 358 358 355 355 356 356 356 355 356 358 359 360 360 359 361 360 361 361 360 363 363 358 358 360 359 357 357 358 359 359 359 358 356 356
357 356 355 354 353 354 355 355 356 356 355 356 356 355 356 357 358 358 358 359 360 360 361 360 360 361 361 363 362 358 357 357 356 358 358 359 360 360 358 357 358 358
357 356 355 354 353 354 355 355 355 354 353 355 354 353 355 358 359 358 357 359 359 358 360 359 359 359 360 362 361 359 358 357 357 360 361 360 360 358 357 358 360 359
356 356 355 354 354 354 355 355 355 355 355 354 353 354 356 357 358 359 359 359 358 357 357 357 358 358 358 360 361 360 360 359 359 360 360 359 359 358 358 358 360 360
353 354 354 354 352 352 353 354 355 355 355 355 353 354 356 355 356 358 359 358 357 356 357 356 359 360 359 359 360 360 359 358 358 359 358 357 359 360 360 359 359 360
352 352 353 352 351 350 351 352 354 355 355 355 353 355 355 354 355 356 357 359 357 356 357 357 360 361 359 358 360 361 361 358 357 359 359 359 359 359 359 358 358 358
351 351 352 352 350 349 349 350 352 353 354 355 354 354 354 354 354 354 356 359 358 356 358 360 361 361 359 358 360 362 362 360 359 359 361 361 360 360 359 359 358 358
353 352 352 352 350 349 348 349 350 351 353 354 354 354 353 353 353 352 355 359 359 358 360 360 361 361 360 359 359 360 361 361 360 359 360 360 360 360 360 359 359 359
355 353 352 352 350 350 349 348 348 349 352 352 352 352 352 352 353 353 354 358 359 358 359 360 360 361 361 360 359 359 360 360 360 360 360 360 360 360 359 359 358 357
356 354 354 352 352 351 349 348 349 348 349 350 350 352 352 351 352 353 353 356 359 358 357 360 361 360 361 362 360 359 359 359 360 360 360 359 359 359 358 358 357 356
356 353 354 354 354 353 351 350 350 348 348 350 350 352 352 351 350 352 353 354 357 357 356 358 360 360 360 361 361 360 359 359 359 359 358 359 358 358 356 356 355 354
358 356 355 355 355 357 356 355 353 351 350 350 351 352 352 352 351 351 352 353 354 355 354 354 357 357 358 359 359 359 358 358 357 357 357 357 357 357 356 355 353 352
361 360 360 359 358 359 360 359 357 355 353 352 352 352 352 353 353 352 352 351 352 354 353 352 352 353 353 355 355 356 356 356 355 355 356 356 356 356 356 355 354 352
356 356 357 356 358 360 361 362 362 360 357 355 354 353 353 353 354 354 354 352 351 352 352 352 351 349 349 349 352 354 355 355 355 354 354 354 356 356 356 355 353 352
349 348 347 347 349 353 356 358 360 361 361 359 357 355 354 354 353 353 354 353 351 351 352 351 350 348 346 346 347 351 351 351 350 350 351 352 354 355 354 354 353 352
349 349 347 346 347 348 349 352 354 357 359 358 358 357 356 355 354 353 353 353 351 350 349 348 347 346 345 344 345 347 348 347 347 347 347 348 349 351 352 354 354 354
351 351 350 350 351 350 351 352 353 355 357 358 358 357 355 353 352 352 353 353 352 351 349 348 347 347 346 345 346 347 347 347 348 348 347 346 347 348 349 352 354 355
350 350 351 351 352 352 352 352 353 355 357 357 357 356 356 354 352 352 352 352 353 353 351 350 350 351 350 348 348 349 348 347 348 350 350 348 348 348 349 351 353 353
348 349 349 349 349 349 350 350 352 355 355 355 354 354 354 354 352 352 351 350 352 353 352 351 352 352 352 350 350 351 350 349 349 350 351 351 350 349 349 351 352 353
347 347 347 346 345 346 346 347 351 354 353 353 352 353 353 353 352 352 352 350 349 350 352 353 353 352 351 351 351 352 351 352 352 352 352 352 352 351 350 350 351 352
345 345 345 345 345 345 345 346 347 350 351 351 350 350 351 351 351 351 351 351 349 349 349 349 350 352 353 353 353 352 352 353 354 354 354 353 353 352 351 351 352 354
343 343 344 344 343 343 344 345 346 346 347 349 350 349 349 349 350 351 351 351 350 349 348 345 346 351 354 354 354 354 353 353 353 356 355 353 352 352 351 351 351 352
339 341 341 342 342 342 342 343 344 345 346 347 347 346 346 347 348 349 350 349 347 346 348 347 347 350 352 352 353 353 353 353 354 355 355 354 352 351 350 349 348 349

ECMWFNIL_925_thetae_114.txt.gz
Theta_e
357 355 355 357 358 357 357 358 358 359 358 357 357 356 357 357 355 355 357 360 360 360 360 357 356 360 359 358 359 358 358 357 356 357 357 359 359 357 358 356 354 353
357 357 356 357 357 356 357 357 357 357 356 357 356 355 356 357 356 356 356 358 359 359 361 360 359 359 359 359 358 358 359 358 357 358 357 358 358 357 357 357 355 354
357 357 357 356 356 357 357 356 356 357 356 357 356 354 355 357 358 358 357 358 359 359 360 362 361 360 359 360 358 357 359 357 356 358 358 357 358 356 356 358 357 354
357 357 357 356 355 357 357 356 356 358 356 356 357 355 354 357 358 358 359 359 358 358 359 360 361 361 359 359 359 359 359 357 356 358 357 355 355 354 354 357 357 356
357 356 357 356 355 357 357 357 358 359 357 355 355 355 355 355 356 357 358 359 359 359 359 359 360 361 359 359 359 358 357 357 358 358 355 353 352 353 355 357 357 357
357 356 355 355 355 355 356 357 357 357 357 355 355 357 356 355 355 355 357 359 359 358 359 359 360 360 360 360 359 358 357 357 357 356 355 355 356 358 358 357 356 358
357 357 356 355 355 355 354 355 355 355 356 355 356 358 356 356 356 357 356 357 358 357 357 359 359 359 359 360 360 359 358 357 357 357 356 357 360 360 358 357 358 359
356 356 356 355 354 354 354 354 354 355 355 354 356 357 355 356 357 357 357 357 358 356 356 358 357 357 358 359 359 360 359 358 359 360 358 357 358 359 358 358 358 359
354 355 355 355 353 352 353 353 354 355 356 355 356 356 355 357 357 358 358 358 358 357 357 357 356 356 358 358 358 360 359 358 358 360 360 359 358 358 359 359 358 358
353 353 354 354 353 351 351 351 352 354 356 357 357 356 356 357 358 358 358 358 358 358 356 356 356 357 358 358 358 358 359 359 358 358 359 360 359 358 359 358 358 358
351 351 352 352 352 351 349 349 350 351 354 356 356 355 356 357 357 357 357 356 357 358 357 356 356 358 359 359 357 357 359 360 360 358 357 358 359 359 358 359 358 358
351 351 351 351 351 351 349 349 349 349 351 354 356 355 355 356 356 357 357 355 355 358 359 357 357 358 360 359 358 357 359 360 360 359 358 357 359 359 358 359 359 358
353 352 352 351 351 351 350 349 348 348 348 351 355 355 355 356 356 356 357 355 355 358 360 358 357 358 359 359 359 357 357 358 359 359 359 359 359 359 359 358 357 357
354 353 353 352 352 352 351 350 349 348 348 349 353 355 355 355 355 354 355 355 355 358 359 358 358 359 359 359 359 358 357 358 358 358 359 358 357 359 359 357 356 356
357 356 354 353 353 353 353 352 351 350 349 348 350 353 352 353 353 353 353 354 354 356 359 359 358 358 358 358 358 358 357 358 358 358 358 357 355 357 358 357 356 355
361 362 360 355 354 355 356 356 355 354 354 351 351 352 351 351 351 352 353 353 353 355 357 358 357 357 358 357 357 357 357 357 357 357 357 356 355 356 357 356 355 355
361 363 361 358 359 359 359 361 361 359 358 356 354 353 353 352 351 351 351 352 353 354 355 356 355 354 354 354 355 356 356 356 357 356 355 355 356 356 356 355 354 354
361 361 360 359 359 358 356 358 360 361 360 358 355 353 352 353 352 351 351 351 352 353 352 354 354 353 352 351 352 354 354 354 354 353 352 354 354 353 353 353 353 353
357 358 356 355 355 353 351 351 352 354 357 357 357 355 354 354 353 353 354 353 353 353 352 351 353 353 351 349 350 351 350 349 349 349 348 348 350 350 350 351 353 352
354 354 354 354 353 351 350 349 348 348 350 353 355 354 354 355 355 355 355 354 353 353 352 351 350 349 348 347 348 348 346 346 349 348 347 345 346 348 348 348 349 350
353 353 353 354 353 352 352 351 350 350 349 350 351 351 352 355 355 355 355 354 352 351 351 350 347 346 348 348 347 347 348 349 351 350 348 347 346 348 349 348 348 349
350 351 351 351 351 351 352 352 352 353 351 350 350 350 353 356 356 355 355 354 352 351 350 349 347 346 349 349 348 348 350 350 350 350 350 350 349 349 350 351 350 349
348 349 349 349 348 348 349 350 351 351 351 351 352 352 355 356 355 355 354 353 352 351 350 349 347 346 349 350 349 350 350 349 351 353 353 352 352 352 352 352 350 349
347 347 347 347 347 347 347 347 348 348 349 350 351 352 354 354 354 354 353 353 352 350 349 349 349 348 350 350 350 350 350 350 353 355 355 354 354 354 354 352 351 350
345 345 346 346 346 346 346 347 347 347 348 348 349 350 352 352 352 351 351 351 350 349 348 349 349 349 350 352 352 351 351 352 353 355 355 355 355 355 354 353 352 351
342 343 344 344 344 345 345 346 347 347 348 348 348 349 350 350 350 349 350 350 349 349 349 347 348 349 350 351 352 353 354 354 354 355 355 356 356 355 354 353 352 352

ECMWFNIL_925_thetae_117.txt.gz
Theta_e
354 355 354 353 355 357 356 357 358 358 358 356 356 355 356 356 356 356 357 357 357 356 358 358 356 356 356 357 356 354 356 357 356 357 356 357 358 355 356 358 356 355
353 356 355 353 355 356 357 358 358 358 357 357 356 355 355 355 356 356 356 358 358 357 359 358 356 355 355 356 357 355 357 356 355 356 356 355 356 355 355 357 356 356
353 355 356 355 355 356 357 357 357 358 358 357 357 356 356 356 356 355 354 356 357 359 359 358 357 355 355 357 358 357 356 356 355 356 358 357 356 355 354 355 356 356
355 355 355 355 356 356 356 357 357 357 357 357 356 356 356 356 356 356 356 355 356 359 359 358 359 358 357 357 359 358 356 356 355 355 357 357 356 355 353 353 355 356
356 356 356 356 356 356 357 357 357 357 356 356 356 355 354 356 357 357 358 357 357 358 359 358 359 360 359 358 358 358 357 357 357 355 356 356 354 352 351 351 354 357
356 356 356 356 356 356 357 357 356 357 357 356 356 355 354 355 357 358 358 359 358 358 359 359 359 360 361 359 358 358 356 356 357 356 356 355 352 351 352 355 357 357
356 356 356 357 356 356 357 356 356 358 357 356 356 355 354 354 355 356 356 357 358 358 359 359 359 359 360 360 359 359 357 356 358 358 357 356 353 353 357 359 358 357
356 356 356 356 356 357 357 356 356 358 358 357 355 354 355 355 355 355 355 355 357 358 358 358 358 359 359 359 358 359 358 357 357 358 358 357 356 356 357 358 358 357
357 356 355 355 355 356 356 354 354 356 357 356 356 356 356 356 355 356 355 355 356 357 357 357 357 358 359 358 358 359 359 358 358 357 358 358 357 356 356 356 357 358
357 357 356 354 355 355 355 354 354 354 355 355 355 356 357 356 355 356 356 356 357 357 357 357 356 357 357 357 357 357 358 358 358 358 358 358 357 357 357 357 358 358
356 357 356 355 355 355 354 353 353 354 354 355 354 354 356 355 355 356 357 358 357 357 357 357 357 357 356 356 357 357 357 358 358 358 358 358 357 356 358 358 358 358
354 355 356 355 355 354 353 352 352 353 354 355 355 355 356 355 355 356 358 358 357 357 357 357 356 356 355 356 357 358 358 358 358 358 359 359 358 356 357 358 358 359
353 354 354 354 354 354 352 351 351 351 352 355 356 356 355 355 355 356 357 356 356 356 356 357 357 357 356 356 357 359 358 357 358 359 359 360 359 358 358 359 358 358
351 352 353 353 352 352 351 351 349 349 349 352 355 355 354 355 355 355 356 356 355 355 354 355 357 358 357 356 357 359 359 358 358 357 358 359 359 359 359 358 358 358
353 354 353 353 353 352 351 350 350 351 349 350 353 354 354 354 354 354 355 355 355 355 354 354 357 358 358 357 358 359 359 359 358 357 357 358 358 358 357 356 357 358
354 358 359 357 356 356 353 352 353 354 350 349 353 355 354 355 354 354 355 355 355 355 355 356 358 357 356 357 358 358 358 358 357 357 358 358 358 357 357 356 356 356
353 358 360 359 357 358 357 355 357 357 354 351 352 354 353 354 354 354 354 353 353 355 355 356 357 356 355 355 357 358 357 357 356 355 356 357 356 356 355 355 354 355
354 358 360 359 357 357 357 357 357 358 358 357 355 353 353 353 353 353 353 352 352 353 353 355 356 355 354 353 355 356 357 357 356 355 355 355 355 353 353 353 351 352
354 357 359 358 358 357 357 356 357 358 358 358 358 356 354 352 352 352 351 350 351 350 351 351 352 352 352 352 352 352 353 354 355 355 356 354 352 351 351 352 352 351
354 355 356 357 357 356 355 355 355 357 357 355 355 356 356 354 354 353 352 351 352 351 350 351 350 350 351 351 351 351 350 351 353 356 355 351 349 347 348 350 351 351
355 355 354 354 354 353 352 352 353 354 354 352 353 353 353 353 353 354 354 353 352 352 351 351 351 351 351 350 350 350 349 348 350 352 353 351 348 347 346 347 349 349
353 354 353 353 353 352 352 352 353 353 352 351 351 350 350 350 350 352 354 355 354 353 351 351 350 350 350 349 348 347 347 347 347 348 350 351 349 348 348 347 347 348
349 350 351 351 351 351 351 351 352 352 351 351 350 349 348 348 350 352 354 354 354 353 352 351 350 349 348 348 347 346 346 348 349 349 350 351 351 351 351 351 350 350
347 347 348 348 348 348 348 349 349 350 350 350 350 350 350 349 351 354 354 354 354 353 352 351 350 349 348 347 347 348 349 350 351 351 351 353 354 354 354 353 353 353
345 346 346 346 347 347 347 347 347 347 348 348 348 349 351 351 353 354 354 353 353 352 351 351 350 349 348 347 347 349 349 349 350 352 354 355 356 355 354 354 353 353
343 344 344 344 345 346 346 347 347 347 348 348 347 348 349 349 350 350 350 350 350 350 351 350 350 349 348 349 349 350 350 350 351 353 354 355 356 355 354 354 353 353

ECMWFNIL_925_thetae_120.txt.gz
Theta_e
355 355 354 353 353 352 352 352 353 353 353 354 352 351 355 355 354 354 354 355 355 355 356 355 356 356 355 355 356 354 354 355 356 355 356 356 355 353 352 355 356 355
354 353 352 353 354 353 352 351 352 353 353 354 353 352 355 356 355 355 355 356 356 356 356 356 356 356 355 355 356 355 355 356 356 355 355 355 354 352 352 354 355 355
354 352 351 353 354 352 352 351 352 353 353 353 354 354 355 356 356 356 355 356 356 357 356 356 357 357 356 355 356 355 354 355 355 354 354 355 355 354 352 352 353 355
355 352 351 353 353 352 353 354 353 354 355 355 356 355 354 355 355 355 355 355 356 357 356 356 357 357 357 355 355 356 356 355 354 354 355 356 356 355 353 352 352 353
354 353 353 353 353 353 355 356 356 356 357 357 356 355 354 354 355 355 355 355 355 355 356 357 358 358 358 356 355 356 358 358 356 355 356 355 354 354 352 351 350 352
354 354 355 354 353 353 355 356 357 357 357 357 357 356 355 356 356 356 355 355 355 354 355 356 357 357 358 358 357 357 357 357 356 356 357 355 354 354 352 351 351 354
354 353 354 355 354 354 355 355 356 356 356 357 357 357 357 356 356 356 356 356 356 356 356 357 357 358 358 359 359 358 356 356 355 355 357 356 356 356 354 354 356 357
355 353 354 355 354 354 355 355 356 356 356 356 356 356 356 355 354 355 356 357 358 357 357 358 358 358 358 358 359 359 358 357 356 355 357 358 357 357 355 355 356 357
355 355 355 355 355 355 355 355 356 356 356 356 356 355 355 354 354 354 355 357 357 357 358 358 358 358 358 358 359 359 358 358 357 357 357 357 356 356 356 355 355 355
356 356 356 355 356 356 356 355 356 356 356 356 356 356 355 354 353 354 354 355 355 356 357 358 358 358 358 358 358 359 358 357 358 358 356 357 356 357 357 356 355 355
357 356 355 355 355 356 356 356 356 356 356 357 357 357 355 354 354 354 354 355 354 355 356 356 357 357 357 357 358 358 357 356 357 357 357 357 357 358 357 356 356 357
357 357 355 355 355 355 356 356 356 355 355 356 357 357 356 355 355 356 355 354 355 355 355 356 356 356 356 357 357 356 356 356 356 357 357 357 357 358 358 357 357 357
357 357 356 355 354 355 355 355 356 355 353 354 355 356 356 355 355 356 355 355 356 357 357 356 356 357 357 356 356 355 355 356 357 357 357 357 358 358 359 358 357 357
356 355 356 356 355 354 353 353 355 354 353 353 354 354 355 355 355 355 354 354 355 356 357 357 357 357 357 356 356 355 355 356 358 358 357 357 358 358 359 358 358 358
353 353 354 355 355 354 354 354 353 353 352 352 353 353 354 354 354 354 355 355 355 356 356 356 356 356 356 356 356 355 356 356 358 358 358 358 357 357 358 358 358 357
351 352 353 355 356 354 354 354 353 352 351 350 351 353 354 355 355 355 355 355 355 355 356 356 356 355 355 355 356 357 357 357 358 358 358 358 357 357 357 358 357 357
351 351 353 357 357 356 354 353 352 352 351 350 350 352 354 355 355 355 355 355 355 355 355 356 355 354 354 355 356 356 357 357 358 358 358 357 357 357 357 356 355 354
352 353 355 358 358 357 357 356 355 354 352 349 350 353 355 356 355 355 355 355 355 355 355 355 355 354 354 355 356 355 356 357 357 358 358 357 356 356 356 354 353 352
351 352 354 356 357 357 356 357 357 357 355 352 351 353 355 354 355 355 354 354 354 354 354 355 355 355 355 355 356 355 354 356 357 357 357 357 355 355 355 354 353 352
353 353 352 354 356 356 355 356 356 356 357 356 355 354 353 353 353 354 353 353 353 352 353 353 354 354 355 355 355 354 353 353 354 354 356 356 355 355 355 354 353 350
351 353 353 354 356 355 356 356 353 351 352 355 356 355 353 351 352 353 352 352 352 351 350 351 352 351 351 352 352 352 352 352 351 351 351 353 354 355 353 352 350 348
349 352 354 354 355 353 354 354 352 349 350 352 354 354 352 351 350 351 351 351 351 351 351 350 350 350 350 350 350 350 351 351 351 350 349 350 353 353 350 348 348 347
349 351 352 353 353 353 352 352 352 351 351 351 352 351 350 350 350 349 349 350 351 352 353 352 351 351 351 350 350 350 350 350 350 350 347 347 350 351 350 349 348 347
347 348 349 349 349 350 350 349 350 350 350 350 350 350 349 348 348 348 348 349 350 352 353 352 352 352 351 350 350 350 350 349 348 347 346 346 349 351 351 350 351 351
345 345 345 346 346 346 346 347 347 347 347 347 347 348 349 349 347 347 348 350 351 352 352 352 352 352 351 351 350 349 348 348 347 347 348 349 350 351 352 353 353 353
343 343 344 345 345 345 345 345 346 346 346 347 347 347 347 349 350 350 350 350 351 352 351 351 351 351 351 351 350 349 348 347 349 352 353 352 353 353 353 353 353 353